GFSGL_sfc_30mbdewp_000.txt.gz
Dewpoint
36 35 35 35 34 34 34 35 35 35 34 34 34 34 34 34 37 37 36 35 32 31 32 32 32 32 32 31 29 27 25 25 24 22 24 24 25 28 27 26 28 34 35
37 36 34 34 32 32 34 32 31 32 33 31 31 31 32 32 34 36 35 35 33 32 30 29 29 28 27 25 24 24 23 23 22 20 21 21 20 22 23 25 27 25 29
37 35 33 32 30 30 29 29 30 30 30 27 24 22 20 21 21 21 22 24 23 22 21 22 23 23 23 22 22 22 22 22 22 21 20 20 20 21 20 22 22 25 27
37 35 33 31 28 27 27 26 26 25 23 20 19 20 21 20 20 23 22 23 22 20 21 20 21 21 22 22 23 23 21 21 20 20 19 18 19 20 20 18 19 21 21
37 34 34 30 27 27 27 25 24 22 19 18 18 20 21 20 22 23 22 21 20 19 19 19 19 21 23 22 20 20 20 19 19 19 19 19 19 19 20 23 23 24 25
30 32 32 30 28 28 27 25 22 20 18 18 20 20 20 19 23 23 23 21 20 19 18 18 18 20 20 21 22 22 21 18 18 17 17 17 18 19 21 22 23 23 22
28 29 32 35 33 32 27 24 19 18 19 20 21 21 21 22 23 23 22 20 18 17 17 18 19 19 21 21 23 24 23 26 26 23 20 20 19 19 20 21 21 22 23
22 26 32 33 32 29 27 25 21 18 19 20 21 21 21 22 24 23 22 20 18 18 18 18 18 19 22 21 20 22 22 22 22 23 24 24 23 22 23 25 26 26 25
20 28 29 33 27 27 26 25 20 18 19 21 22 25 24 23 24 27 26 22 21 19 19 21 22 21 20 20 22 23 23 22 22 23 24 26 26 26 26 25 23 23 23
30 30 28 25 26 27 27 24 18 19 20 25 25 26 25 24 25 25 24 22 20 20 21 21 19 22 25 25 25 25 24 24 22 24 23 22 21 26 29 30 27 23 20
28 30 32 30 26 24 23 17 19 19 20 25 25 25 25 24 24 24 24 22 22 21 20 20 21 27 25 22 21 22 22 22 22 21 21 20 21 22 22 23 26 28 24
30 30 29 27 25 20 18 19 19 19 22 22 22 22 22 22 21 21 22 18 19 22 21 23 23 23 22 21 22 23 23 22 21 21 22 23 24 24 25 24 24 28 31
27 26 26 22 21 21 19 18 18 19 21 21 19 18 18 20 19 19 17 16 18 21 22 22 23 23 22 23 25 22 23 22 23 23 22 23 25 26 26 26 28 30 31
24 25 23 21 22 22 20 18 19 22 21 20 18 17 17 17 17 17 19 19 19 20 20 21 23 21 22 23 23 23 24 24 22 23 23 24 26 27 27 28 29 28 28
25 24 24 25 25 22 21 20 21 22 19 18 18 17 18 16 16 15 16 19 20 20 20 21 19 18 18 20 19 21 22 21 22 22 23 24 25 25 25 26 28 27 27
27 26 26 25 25 23 22 22 22 21 19 18 17 17 17 16 15 14 14 15 19 19 19 17 16 17 17 18 19 19 19 21 20 22 22 23 23 24 24 26 29 29 26
27 27 26 25 26 25 25 25 23 24 22 21 19 19 17 16 16 14 14 14 19 18 17 17 17 14 14 14 15 16 18 20 20 21 22 22 23 23 25 25 26 25 24
27 25 26 28 28 27 23 23 24 24 23 23 25 22 17 16 16 18 16 14 15 15 15 14 13 14 14 14 15 16 18 19 18 19 21 22 22 23 24 23 23 24 25
25 24 24 24 25 25 24 26 26 25 23 23 21 22 17 15 17 21 17 14 12 12 11 11 12 14 14 14 15 16 17 18 18 18 19 21 23 23 22 22 23 22 23
24 25 24 22 25 26 27 25 24 25 23 22 21 21 18 14 17 18 17 15 12 12 13 12 13 14 14 14 14 15 15 15 16 16 16 18 21 23 22 22 22 22 22
24 26 27 26 25 28 25 24 26 25 24 23 22 21 15 14 18 18 16 16 13 12 12 13 14 13 13 13 13 13 13 14 14 15 15 16 19 19 21 22 21 22 20
24 23 27 28 28 26 27 23 23 25 25 24 24 22 18 17 20 17 18 17 16 13 13 12 13 13 13 12 13 13 12 11 11 12 13 14 17 16 18 19 19 18 19
25 27 25 27 27 28 25 26 26 26 25 24 23 23 22 21 19 18 18 18 18 17 14 13 13 12 12 12 13 13 12 11 12 12 12 13 16 14 15 16 16 16 14
25 27 26 26 27 27 25 25 26 24 25 25 24 24 23 22 19 18 17 19 18 17 16 13 13 12 11 11 11 11 11 11 11 12 12 14 14 14 14 15 13 14 13
27 28 27 27 27 26 26 25 26 26 26 26 26 24 24 22 21 19 18 18 16 15 14 12 12 12 11 10 11 10 10 10 10 10 12 13 11 12 10 13 11 13 11
29 26 25 27 27 27 26 27 26 25 25 25 25 25 24 24 21 20 18 17 16 14 13 13 11 11 11 11 10 10 9 9 9 9 10 12 11 10 9 10 10 10 10

GFSGL_sfc_30mbdewp_003.txt.gz
Dewpoint
36 36 35 35 35 36 34 32 32 32 33 32 31 30 30 31 32 34 34 34 34 33 33 33 32 32 31 35 35 32 32 32 28 24 24 25 23 23 23 26 32 32 37
37 37 36 35 33 34 32 30 30 29 30 31 29 25 24 23 24 27 31 32 29 24 23 22 23 23 24 26 28 27 25 25 24 22 22 22 22 23 23 23 26 24 35
37 37 36 36 32 29 28 28 27 27 26 23 22 21 21 22 22 23 23 23 23 22 21 21 20 20 19 21 24 24 24 22 21 19 20 21 20 21 20 21 22 22 23
37 38 39 39 36 28 29 28 25 24 21 19 18 18 20 22 23 22 21 20 20 20 21 21 20 19 20 22 23 23 23 20 19 19 19 19 19 20 22 23 24 26 24
28 33 36 36 33 34 32 29 29 24 21 17 17 19 21 22 22 21 21 20 19 19 19 19 18 20 21 24 23 23 21 20 19 18 18 17 17 18 19 22 22 22 23
21 22 26 37 36 35 34 33 29 21 16 17 19 20 22 21 24 23 21 19 18 18 17 17 19 20 22 23 27 27 25 23 19 17 16 16 17 18 20 20 20 20 20
22 25 34 35 35 36 37 34 22 19 17 17 20 22 21 21 23 22 22 20 18 18 18 18 18 17 21 23 23 23 21 22 23 25 22 21 20 21 20 19 19 20 21
25 29 31 32 33 36 36 27 21 19 15 19 21 23 23 23 25 25 23 22 21 21 20 20 20 22 25 22 21 21 22 22 22 22 22 23 24 24 23 22 25 27 26
29 29 30 30 31 31 31 26 25 19 18 21 24 24 23 24 26 27 27 25 23 22 21 21 20 19 20 23 24 24 24 24 23 22 23 27 29 30 28 28 25 23 21
30 30 32 32 31 32 32 27 23 17 20 24 23 24 25 25 27 25 26 25 21 21 21 20 20 21 27 26 23 22 20 19 20 21 21 21 21 21 21 25 26 24 23
30 31 31 31 31 30 29 20 16 19 24 23 22 21 23 23 22 24 21 20 19 21 19 19 21 21 22 23 22 23 22 21 22 21 20 20 20 20 22 23 23 24 24
27 28 28 27 27 24 20 19 19 21 20 20 18 18 19 20 20 20 17 16 17 19 19 20 22 24 21 21 23 25 22 22 22 20 20 20 22 23 24 26 27 26 27
27 26 25 24 23 22 21 19 20 21 20 19 18 16 17 19 18 17 17 18 18 20 20 21 22 20 21 22 23 23 23 23 22 21 21 22 24 24 24 24 25 27 29
26 26 25 25 25 24 22 21 21 20 19 19 18 16 17 17 15 16 17 18 21 21 20 21 21 20 20 22 21 22 22 21 21 20 21 23 25 25 25 27 26 27 27
27 26 26 26 25 24 22 20 22 20 19 19 18 17 15 14 16 16 15 16 18 21 20 20 18 17 17 18 18 19 20 21 20 20 21 22 23 24 24 26 26 26 26
27 27 27 26 25 25 24 24 23 22 21 20 19 17 16 17 18 18 15 14 17 17 17 17 16 15 15 15 16 17 17 19 19 20 21 22 22 22 23 25 25 25 25
27 27 27 26 26 25 23 22 20 22 26 24 21 21 20 18 18 19 16 14 13 15 15 14 14 14 14 14 15 16 16 19 19 18 19 20 21 22 23 23 23 23 23
27 27 24 23 23 24 22 22 22 23 24 23 25 24 23 19 17 22 19 14 12 13 13 13 13 14 14 14 14 15 15 17 17 17 17 18 20 21 22 22 22 22 22
26 25 23 21 22 23 23 24 24 23 23 22 23 26 25 17 19 19 18 12 11 11 13 13 14 14 14 14 13 13 14 15 14 15 15 16 17 20 20 21 21 22 21
25 25 23 23 21 22 25 25 22 23 24 21 22 21 18 13 13 17 15 12 11 11 11 12 14 14 12 12 13 12 13 12 12 12 13 14 16 19 19 21 20 21 18
25 24 25 26 25 25 26 25 24 21 21 21 23 22 18 14 14 18 16 14 12 12 11 11 12 13 12 11 13 12 12 10 10 11 11 12 14 16 17 19 19 17 19
24 23 22 21 22 24 26 27 21 23 25 25 25 23 20 17 17 21 17 16 15 13 12 11 11 12 12 10 12 11 11 9 9 10 11 11 12 15 15 16 16 16 13
23 23 25 23 21 24 27 27 22 22 23 23 24 23 22 21 21 19 18 17 16 16 14 12 11 12 11 10 11 10 10 9 10 11 10 11 13 13 12 14 12 14 12
22 23 26 22 22 24 26 26 24 24 22 23 25 25 24 24 22 19 18 17 17 16 15 13 11 12 11 10 11 10 10 10 10 10 9 11 12 11 10 12 11 11 11
23 22 23 22 23 24 25 25 25 22 22 24 24 24 24 24 22 21 19 18 17 16 14 13 11 12 10 10 11 10 9 9 9 9 10 11 11 10 8 9 9 9 9
25 24 26 24 22 24 24 24 25 26 22 22 23 24 23 23 24 22 20 17 16 15 13 12 11 10 10 11 10 10 8 8 8 8 10 11 10 8 8 6 7 7 6

GFSGL_sfc_30mbdewp_006.txt.gz
Dewpoint
37 37 37 36 36 36 35 33 32 33 33 31 30 28 25 25 26 27 28 31 33 28 26 24 22 23 23 24 25 26 30 32 30 28 28 23 22 22 23 24 29 33 36
35 37 38 37 35 34 33 32 32 31 30 28 27 25 22 22 23 23 26 26 23 21 21 21 20 20 20 20 21 21 24 24 26 27 22 21 20 21 22 24 26 26 34
25 30 33 34 38 34 32 31 28 28 28 28 23 20 19 21 22 24 24 22 21 21 21 20 19 19 18 18 20 22 23 22 22 20 20 21 20 20 20 25 24 24 25
22 24 25 28 35 34 30 31 33 35 36 29 19 18 20 22 24 22 20 20 20 19 20 20 19 18 18 20 22 23 23 23 22 20 20 19 19 18 21 22 21 22 22
22 24 32 36 35 34 33 34 35 36 36 24 18 18 22 23 22 21 21 20 19 19 19 18 17 18 17 19 23 28 27 25 22 19 18 18 16 17 16 21 19 20 20
22 30 32 35 36 35 35 35 35 36 23 18 19 21 22 22 25 24 21 20 19 19 18 18 19 18 19 21 22 23 22 24 23 24 21 18 17 17 19 19 19 18 16
25 30 30 33 35 35 36 36 36 29 26 20 20 22 21 22 25 25 24 21 21 19 20 20 20 18 21 23 24 22 22 22 22 23 22 21 21 20 20 20 19 19 20
29 29 30 30 31 32 34 33 33 27 23 19 23 23 23 23 25 27 26 25 23 23 22 21 20 20 20 20 20 24 24 24 23 22 21 22 23 23 23 22 22 23 26
28 29 30 31 31 31 31 31 32 29 19 23 24 23 24 26 27 26 25 24 22 20 21 20 19 21 21 23 24 22 21 20 20 21 24 25 27 28 28 27 25 24 21
28 29 30 31 31 31 31 31 30 19 23 23 23 24 24 21 24 22 20 21 18 19 20 18 19 19 20 23 24 23 21 19 20 20 21 21 21 21 20 22 24 23 23
28 28 29 29 28 28 28 23 19 23 23 21 19 22 21 20 21 19 17 17 18 19 17 18 19 21 21 19 21 23 22 24 23 23 21 20 20 20 21 21 22 22 21
27 27 26 25 24 23 22 21 22 22 20 18 17 17 19 18 17 16 16 16 17 18 19 20 22 19 21 22 23 23 22 22 23 21 20 20 20 21 23 24 25 26 25
26 26 26 25 25 25 22 20 21 20 19 18 18 16 17 17 15 17 18 17 19 20 20 20 17 18 20 21 20 22 22 21 20 19 20 21 23 24 25 25 25 26 28
26 26 26 26 26 25 22 22 20 19 19 20 18 17 16 15 15 17 17 16 18 21 20 20 19 19 18 20 20 20 21 21 20 19 20 21 24 24 25 26 25 26 25
26 26 26 26 25 24 21 22 22 20 20 20 19 18 15 14 15 18 17 15 18 17 16 17 16 15 15 15 15 16 18 20 18 19 19 20 22 23 24 26 26 26 24
27 27 26 26 25 25 23 22 23 23 22 22 21 18 16 17 18 20 17 15 12 14 14 14 13 13 14 15 14 14 15 17 18 18 18 19 20 21 22 24 24 23 23
31 31 28 26 25 25 23 21 20 21 25 26 23 22 21 21 19 20 18 15 12 14 12 13 13 13 13 14 14 14 14 15 17 16 16 17 18 20 21 22 21 21 22
29 29 28 25 22 23 22 22 23 23 21 21 24 24 24 22 18 21 20 14 10 12 12 13 13 14 13 13 13 12 13 13 12 13 14 15 16 18 19 20 21 20 21
30 28 25 22 21 21 21 23 24 22 22 22 22 25 25 23 19 19 18 12 11 10 11 11 13 13 12 12 12 11 11 10 10 10 11 12 14 16 17 19 19 19 17
28 25 22 22 24 22 21 26 24 23 21 21 20 21 22 19 12 14 15 12 10 10 10 11 11 12 11 10 12 11 11 9 8 9 10 11 12 14 15 17 17 18 17
28 24 24 25 24 23 23 24 24 23 19 20 22 21 20 17 15 14 17 15 13 11 11 11 10 11 11 10 12 10 10 8 8 8 9 10 11 12 14 15 15 14 14
27 24 23 23 20 19 21 25 25 21 21 22 22 25 21 18 16 16 19 17 15 13 11 11 11 11 11 9 11 9 9 7 8 8 8 9 11 12 12 12 12 12 10
25 24 22 23 24 21 20 24 26 24 21 23 21 22 20 20 19 20 19 18 15 14 13 12 11 10 10 9 9 9 9 8 9 9 8 9 10 11 9 10 10 11 9
25 23 22 22 23 19 20 23 25 24 23 20 21 23 25 25 23 22 18 16 15 15 13 13 11 11 10 9 9 9 10 10 9 9 9 9 10 9 8 9 8 8 7
26 23 22 21 22 21 20 22 24 24 22 20 21 21 23 23 23 22 20 17 16 16 16 13 11 10 10 9 9 9 8 8 8 7 9 10 10 8 8 7 7 7 6
29 27 25 23 23 22 20 21 22 23 24 25 21 22 21 20 20 21 21 19 16 15 14 12 11 10 10 9 9 9 8 7 6 7 9 9 9 7 6 7 6 6 6

GFSGL_sfc_30mbdewp_009.txt.gz
Dewpoint
28 32 33 33 33 36 36 35 33 33 34 34 33 29 27 25 25 24 24 26 29 29 25 23 21 22 21 21 21 21 22 23 23 24 28 29 24 22 21 26 25 27 37
27 29 29 31 32 35 35 34 33 32 31 33 34 33 28 23 22 22 23 28 24 21 20 20 19 18 18 19 19 19 20 21 23 21 26 23 20 21 21 23 23 22 24
22 24 28 31 32 33 35 31 29 30 31 33 35 31 24 21 22 23 25 23 21 20 20 19 19 18 17 17 18 20 22 23 23 22 21 22 22 21 17 24 22 22 21
21 24 29 32 33 31 30 30 30 32 35 35 35 29 22 21 23 24 22 20 21 20 20 20 19 18 17 18 19 25 26 26 25 23 22 21 20 18 21 19 18 20 18
20 25 29 33 35 34 34 34 34 35 35 36 28 21 22 23 23 21 20 21 21 20 20 20 19 19 19 18 18 21 22 25 24 24 23 20 18 17 15 20 18 19 18
21 25 29 30 32 34 35 36 36 36 36 23 29 25 23 22 24 23 23 22 21 20 20 20 20 21 19 18 19 21 21 23 23 23 22 22 23 20 18 19 19 17 14
22 27 29 31 31 32 33 35 35 33 30 27 21 22 21 22 25 26 27 25 24 23 23 22 20 18 19 20 20 20 20 22 23 23 23 22 21 20 20 20 19 18 18
22 29 29 30 29 31 32 32 32 33 32 25 22 24 23 26 28 28 28 24 22 22 20 19 20 20 22 20 24 23 24 21 22 24 24 23 22 22 22 22 21 21 22
22 27 29 30 30 31 30 30 31 31 27 23 24 24 23 25 25 24 21 21 19 18 19 19 18 19 19 23 24 23 22 21 20 19 19 21 24 27 27 25 23 22 20
23 27 29 29 30 28 28 29 29 19 23 23 22 23 22 19 23 19 18 19 17 18 19 18 18 19 21 20 21 22 20 19 20 20 21 21 22 20 20 22 23 22 22
26 27 27 27 25 25 24 22 20 23 24 20 21 21 20 20 19 17 17 17 17 20 18 18 20 20 20 21 22 22 22 23 22 22 22 21 21 20 20 21 21 21 20
26 27 26 26 25 25 24 21 23 23 19 18 18 18 19 17 17 17 17 17 17 19 19 20 21 17 19 20 21 22 22 22 20 20 20 20 20 21 22 23 23 23 23
27 27 26 26 26 25 22 21 21 20 18 18 18 16 17 18 16 18 19 17 20 20 20 19 17 16 16 17 17 20 20 20 19 18 18 20 22 24 25 26 26 26 27
28 27 27 26 26 25 22 21 20 19 19 19 19 18 17 16 15 17 18 14 19 16 16 16 17 17 16 16 15 16 19 19 19 18 18 20 23 24 24 26 24 25 24
28 28 27 28 26 23 21 22 21 21 21 20 20 19 16 16 14 19 19 16 13 15 13 13 14 13 13 14 13 14 15 16 16 17 17 18 20 22 23 25 25 25 23
30 30 30 30 26 25 23 22 23 24 24 24 24 19 16 18 19 20 19 16 14 14 12 12 11 11 11 13 13 12 12 13 14 15 16 16 17 19 22 23 23 22 23
29 28 31 30 27 24 23 22 20 20 24 25 26 23 22 20 21 20 19 16 13 12 11 11 11 11 11 13 12 12 11 11 12 13 13 14 15 17 19 20 21 21 21
29 29 29 29 27 23 23 22 21 23 21 21 22 25 24 24 22 19 20 15 11 11 11 11 12 11 10 12 12 11 10 8 8 9 11 12 13 15 16 18 19 17 18
29 29 28 26 24 21 21 20 23 22 21 22 21 23 24 25 23 20 19 14 12 10 10 11 11 12 10 10 11 10 9 7 7 7 9 10 11 13 14 16 16 17 16
30 29 25 22 22 25 23 22 25 23 22 19 19 19 20 21 19 14 13 13 12 11 10 11 10 11 10 9 10 9 9 7 6 7 8 9 9 11 13 14 14 13 14
30 28 25 24 25 23 22 21 23 23 23 18 19 21 21 21 19 16 15 15 15 13 11 10 10 9 9 8 9 8 8 7 7 7 7 8 9 10 11 12 12 12 11
30 29 26 24 24 22 19 19 21 24 25 20 20 21 23 20 19 17 16 17 17 14 13 11 11 10 10 9 8 8 8 6 7 7 7 8 9 9 9 10 10 10 9
28 27 26 24 22 22 20 19 20 23 25 22 20 20 20 21 20 19 18 18 17 15 13 11 10 11 9 9 7 9 8 7 8 8 7 8 9 9 8 8 8 9 7
29 26 24 24 21 21 21 18 18 22 23 23 21 19 21 23 22 21 20 19 15 14 12 13 12 12 10 9 7 8 9 8 8 7 8 8 9 9 7 7 7 7 6
30 27 24 24 23 22 21 19 18 21 23 23 21 19 21 21 22 22 21 19 17 15 14 13 12 12 11 10 8 9 8 7 6 5 7 9 9 8 7 7 6 6 6
30 28 27 27 25 24 24 23 22 21 20 21 22 22 21 21 21 20 20 19 19 16 15 13 12 12 10 9 8 8 7 7 5 5 7 8 8 7 5 7 6 5 5

GFSGL_sfc_30mbdewp_012.txt.gz
Dewpoint
24 26 27 29 30 31 32 35 35 34 34 34 35 32 29 30 30 27 25 25 25 29 26 22 21 22 20 21 19 20 19 20 18 17 20 23 25 28 24 25 27 24 28
24 25 27 29 30 30 31 33 33 33 33 32 32 34 34 31 27 23 22 23 26 23 21 20 20 19 19 18 18 17 18 19 20 20 21 22 24 26 21 21 24 25 22
21 23 26 29 31 30 30 30 31 30 31 33 35 35 33 28 22 23 23 25 22 20 21 21 20 20 19 18 17 19 19 21 24 25 23 23 23 23 21 21 23 22 20
21 23 26 28 31 32 33 32 31 32 34 35 35 34 27 22 23 24 23 21 20 21 22 21 21 20 19 18 20 19 20 21 21 22 23 23 23 23 20 19 18 21 18
21 22 25 29 31 32 33 34 35 35 35 36 32 23 24 23 23 22 20 21 21 21 21 22 21 21 23 21 18 18 19 21 21 22 21 20 23 22 17 19 18 18 19
22 21 26 29 30 30 32 32 33 35 35 34 27 26 22 22 24 25 25 26 24 24 23 22 22 20 19 18 19 19 20 20 21 22 20 20 20 22 25 23 19 18 14
22 22 25 29 30 29 31 31 32 33 32 31 28 22 22 23 26 27 28 26 23 22 21 19 17 16 19 20 21 20 21 24 26 25 22 21 21 23 20 20 20 19 18
21 23 26 29 29 30 30 30 30 31 32 31 23 23 24 27 26 26 25 21 20 19 19 18 18 18 20 19 22 24 21 23 22 21 21 22 24 25 22 21 21 21 21
21 22 25 29 28 29 28 27 28 30 28 23 24 24 24 22 24 21 20 19 19 18 18 19 18 19 19 22 22 21 20 19 20 20 20 20 20 21 25 25 23 21 18
22 23 27 28 27 27 25 25 26 21 21 24 23 22 20 19 20 18 18 17 16 17 20 19 18 19 19 20 23 20 19 19 20 22 22 22 22 22 21 20 22 21 22
24 26 27 27 26 25 25 24 22 21 24 22 21 21 19 19 17 18 17 17 17 19 19 18 19 20 17 17 19 21 21 22 20 20 21 22 22 22 21 20 20 20 20
27 28 27 27 26 26 25 22 23 24 20 19 19 18 19 16 18 19 19 18 17 18 17 19 20 16 15 15 16 18 20 20 20 19 19 19 20 21 22 23 22 22 22
29 28 27 27 26 26 25 21 21 21 18 18 18 17 16 18 17 18 20 18 18 17 16 16 16 14 15 15 15 16 18 18 18 17 17 18 20 23 24 26 25 25 25
29 28 28 27 27 26 23 22 21 19 19 19 19 19 17 17 16 15 18 17 14 16 13 13 14 15 13 15 14 14 15 16 16 16 16 18 21 23 23 25 24 24 23
30 30 29 29 29 27 22 22 21 21 21 20 20 20 18 17 16 17 20 16 14 14 12 11 12 11 11 13 12 12 12 12 13 14 15 16 17 20 22 25 25 25 23
28 29 28 28 30 28 24 23 24 24 24 25 25 21 18 18 19 21 21 18 15 14 10 11 10 9 9 11 12 11 11 9 9 13 14 14 15 16 19 21 23 22 23
30 30 29 29 29 28 26 23 22 22 23 24 25 26 24 20 22 21 21 19 14 13 9 9 9 9 9 10 12 11 10 9 8 10 11 12 13 15 17 18 19 19 20
31 31 29 28 28 28 26 25 23 21 23 21 22 25 26 25 25 22 20 18 13 11 10 10 9 10 10 9 11 10 9 7 6 7 8 10 11 13 14 16 17 17 16
31 31 30 29 26 25 25 24 21 20 22 22 20 22 24 26 26 23 20 17 14 13 11 10 10 9 10 10 8 9 8 7 5 5 7 8 9 11 13 14 14 13 14
31 31 30 28 24 22 22 24 22 22 24 23 20 19 19 19 21 20 14 13 13 14 12 11 11 10 10 9 7 8 7 6 6 6 6 7 8 8 11 11 12 11 11
31 31 30 28 26 24 25 23 21 20 22 23 21 17 18 21 21 19 18 14 14 15 14 12 11 9 8 8 8 8 7 6 6 7 6 8 8 8 9 9 10 11 10
29 30 29 27 27 26 25 23 20 19 20 22 23 19 19 19 21 20 18 17 15 15 15 13 12 11 10 10 9 7 7 7 5 6 6 7 8 9 8 8 8 9 8
29 29 28 26 26 26 24 21 19 18 19 21 23 22 19 19 20 20 20 19 16 15 14 13 12 12 10 8 7 8 8 8 7 7 6 6 8 9 8 7 7 7 6
30 29 29 26 24 22 22 20 20 19 18 20 21 21 21 19 20 20 19 18 17 16 13 12 12 13 12 10 7 6 7 8 7 7 5 6 8 8 7 7 6 6 6
30 30 29 26 24 23 23 23 22 20 19 20 21 21 21 20 20 21 20 19 18 17 16 12 12 13 13 12 9 8 8 8 6 4 4 7 7 7 5 7 6 6 6
30 30 29 28 26 25 25 25 25 24 23 24 24 23 21 21 21 21 21 20 18 18 17 13 12 13 12 11 9 8 7 7 6 3 4 7 6 6 5 5 7 6 5

GFSGL_sfc_30mbdewp_015.txt.gz
Dewpoint
24 27 28 28 29 29 28 29 30 34 35 35 36 36 34 32 32 33 30 28 26 25 27 28 25 23 21 21 20 18 16 15 14 14 12 14 18 20 19 19 25 27 29
25 26 27 28 29 29 29 30 32 32 33 34 34 33 34 35 34 30 25 23 24 24 24 23 21 21 21 20 20 18 16 16 15 13 14 18 19 21 22 22 25 22 26
23 23 25 27 29 30 30 31 33 33 33 33 32 34 35 34 31 25 25 25 25 23 22 23 22 21 21 20 19 17 17 17 16 18 15 14 17 19 22 23 29 24 23
22 22 25 28 30 31 31 31 32 33 34 35 36 36 33 26 24 24 24 23 22 22 23 23 23 22 20 19 19 22 18 19 17 16 16 15 15 15 21 20 22 21 20
23 23 24 28 31 31 31 31 32 33 34 36 35 31 29 25 22 23 22 22 23 23 23 21 20 20 20 19 17 17 18 18 18 17 15 14 16 14 19 24 22 19 18
23 24 25 27 30 31 31 31 31 32 32 34 30 30 29 22 26 28 27 25 23 20 16 16 15 14 15 17 18 18 19 18 19 18 21 15 12 14 16 23 23 22 18
23 23 25 27 29 30 30 29 28 29 30 32 33 27 24 26 28 28 26 20 17 16 15 14 14 14 16 16 16 17 22 22 22 21 21 16 14 14 17 18 19 19 18
22 23 25 26 28 29 29 27 27 28 31 32 28 24 25 24 26 23 22 19 16 15 14 15 15 15 16 17 21 19 17 15 16 19 22 21 18 18 17 20 20 19 18
22 23 24 26 29 28 27 26 26 27 25 24 24 25 24 21 22 20 19 18 17 16 16 16 16 15 17 20 19 18 15 13 18 18 20 23 24 22 21 20 22 21 18
25 26 26 28 28 28 27 26 26 26 22 24 24 23 20 20 19 19 18 19 18 17 16 15 16 18 19 17 15 17 15 17 16 16 16 17 18 19 21 20 17 19 21
26 26 27 28 27 28 27 26 25 23 24 25 24 22 20 20 18 18 19 20 18 16 14 12 15 18 15 15 15 15 18 18 18 17 16 15 16 17 19 19 19 17 16
27 27 28 28 28 27 26 26 24 24 24 24 24 23 21 21 17 19 19 20 18 17 15 14 16 15 14 14 14 15 16 17 18 18 17 17 18 19 19 21 22 21 19
28 29 29 29 27 27 27 25 23 22 22 22 21 23 21 21 21 19 19 21 19 17 17 14 14 14 13 11 13 14 14 15 16 16 16 17 19 21 23 24 26 24 22
28 29 30 28 28 28 27 23 22 22 22 22 23 22 22 21 21 20 19 21 19 17 16 13 14 14 13 12 12 12 12 12 14 15 16 18 21 23 24 27 25 26 24
28 26 26 27 26 27 30 24 22 22 23 23 22 23 24 24 23 21 20 21 20 17 14 14 12 11 10 8 10 10 9 8 11 14 16 17 18 20 22 25 26 26 24
28 28 29 29 28 29 29 26 24 25 25 25 25 25 26 23 21 20 21 21 18 16 14 13 12 12 11 8 8 9 9 6 8 13 15 15 16 18 19 21 23 24 24
28 29 29 30 29 29 29 28 26 26 24 24 25 25 27 25 23 24 22 21 19 16 15 14 14 13 11 9 7 7 7 7 8 12 13 14 15 17 18 18 19 19 20
28 30 31 30 30 30 29 29 28 27 25 24 26 23 25 27 25 24 23 21 19 17 16 14 14 14 13 9 8 7 7 7 7 9 12 13 14 15 16 16 16 17 16
28 30 31 31 31 30 28 27 28 27 24 24 25 24 24 25 27 25 25 22 21 19 18 16 15 15 14 12 12 11 10 9 8 7 11 12 13 13 14 15 16 15 14
29 29 29 30 30 29 27 26 25 26 26 24 25 25 23 22 24 25 25 24 22 19 19 18 17 16 15 14 14 12 11 10 8 7 8 11 12 12 12 13 14 14 13
28 28 28 30 30 28 28 27 26 26 24 23 23 27 24 22 23 24 24 23 22 21 21 21 19 18 17 16 14 13 11 11 9 7 7 9 11 10 10 12 13 13 12
28 27 28 28 29 28 28 28 28 27 24 24 23 25 22 21 23 24 25 24 24 23 23 22 21 19 18 16 16 15 12 11 11 8 7 9 10 10 10 10 10 11 11
29 29 28 27 28 28 27 27 27 26 25 24 23 23 25 25 24 24 24 25 25 24 23 21 22 20 19 17 17 15 14 11 12 10 8 8 10 10 10 9 8 8 8
29 29 28 28 28 28 26 26 26 25 24 24 24 24 24 25 25 25 24 25 25 24 23 20 20 20 19 18 17 15 13 13 13 10 8 8 10 10 9 8 9 8 8
28 28 28 28 29 28 27 25 26 26 26 25 25 25 25 26 25 25 26 25 24 23 22 20 19 19 18 17 17 15 13 12 11 9 8 9 10 10 9 7 9 8 8
27 29 29 29 28 27 27 27 27 27 27 27 27 27 27 27 27 27 26 25 24 23 23 22 20 18 18 18 16 14 10 10 10 6 7 8 9 8 8 7 9 9 8

GFSGL_sfc_30mbdewp_018.txt.gz
Dewpoint
26 25 26 25 25 25 25 24 24 26 25 26 28 31 32 34 33 31 32 33 26 21 21 21 22 21 19 19 19 19 18 16 14 14 14 15 15 17 19 19 21 20 18
24 23 24 24 24 25 25 24 25 26 27 28 29 29 29 30 30 32 32 27 20 20 20 21 20 18 20 20 18 17 16 16 17 15 15 15 16 16 16 18 20 19 17
21 21 22 23 24 25 25 25 25 26 27 29 29 29 29 32 34 32 25 23 22 22 23 23 22 21 20 18 17 16 16 18 19 19 16 15 16 16 16 18 18 21 23
21 20 20 24 25 26 26 26 26 27 28 28 29 30 31 28 25 24 23 23 23 23 24 24 23 20 18 18 16 16 15 18 18 17 15 15 15 14 16 16 21 21 25
22 21 21 24 26 26 27 26 27 27 27 28 28 29 30 30 29 29 26 24 24 22 22 19 15 17 17 17 17 17 17 16 17 16 16 16 17 17 14 14 16 17 19
22 22 23 24 25 26 26 27 26 25 26 27 26 29 31 28 26 28 24 22 21 19 16 14 14 14 15 17 18 18 18 17 17 18 20 19 16 16 16 15 17 23 16
21 22 22 24 25 24 24 25 25 25 26 26 27 30 29 27 28 26 22 19 20 16 14 14 13 12 15 16 16 17 22 23 21 20 17 18 18 19 15 14 13 18 18
21 22 22 21 22 22 24 25 25 25 25 25 25 26 25 26 26 22 20 20 18 15 15 15 14 14 15 17 17 18 15 14 10 13 16 17 19 21 23 21 18 17 18
20 18 19 23 22 22 23 25 26 25 25 23 24 25 26 25 22 20 19 20 19 18 17 15 14 14 17 18 17 14 12 10 13 17 16 17 18 19 21 19 17 16 16
20 21 21 21 22 23 24 24 26 26 23 22 23 26 23 23 20 19 18 20 21 19 17 14 12 17 17 16 15 14 14 13 13 15 15 15 15 17 21 20 17 17 16
21 21 21 23 24 24 26 27 26 25 22 25 26 26 24 22 22 19 19 21 21 18 16 15 12 16 15 15 14 14 15 15 14 17 16 17 16 17 17 19 21 19 18
23 23 24 26 27 25 27 27 27 25 23 26 29 27 24 25 21 20 19 20 20 19 18 17 16 14 15 14 13 14 14 16 16 18 18 18 19 21 21 22 23 22 21
24 25 26 27 27 26 26 26 25 24 23 23 22 23 22 25 24 21 19 19 21 20 19 18 16 14 13 11 11 13 13 13 14 16 16 17 20 23 25 27 24 23 23
25 25 26 25 26 27 28 27 26 24 23 22 22 21 20 20 22 23 24 22 23 21 19 18 16 16 14 12 11 11 11 10 13 17 17 18 20 22 24 27 28 27 24
25 26 25 25 25 25 26 27 28 24 23 24 23 22 23 24 24 25 23 22 22 20 18 19 16 15 12 11 10 11 11 8 8 14 17 17 18 19 21 24 26 29 24
27 26 26 26 26 26 26 27 27 24 25 24 24 25 28 28 26 23 22 21 22 19 17 17 17 17 16 12 12 11 11 9 7 12 15 17 17 18 19 21 23 24 24
27 26 26 26 27 27 27 26 26 28 26 26 26 26 27 28 27 24 23 23 22 20 18 17 17 18 16 13 11 10 10 10 9 9 13 15 16 17 19 19 20 20 21
27 27 27 27 28 28 28 28 28 27 26 27 28 25 25 25 28 26 25 24 21 22 20 18 17 17 16 13 11 10 10 12 11 9 10 13 13 14 17 17 18 18 17
27 27 29 29 29 29 29 29 29 27 27 26 24 24 26 25 26 28 26 25 22 20 19 18 18 18 17 15 15 15 13 13 12 11 11 11 12 12 12 13 16 17 15
26 27 27 26 27 28 30 29 27 28 28 27 25 23 22 26 26 26 27 26 25 23 21 20 19 18 18 18 17 17 15 13 12 10 10 12 12 12 11 11 13 13 12
26 26 27 27 26 26 28 27 26 28 28 27 26 28 26 24 25 24 25 27 26 24 24 22 22 21 20 19 18 17 16 15 13 11 10 10 12 12 10 10 11 11 11
29 30 30 30 28 27 27 28 29 29 29 29 28 27 26 27 25 25 25 26 27 27 26 25 25 22 20 19 18 18 17 15 15 14 12 9 11 12 11 10 10 10 9
29 30 29 28 27 27 28 29 29 29 29 29 29 28 27 28 27 26 27 28 29 28 28 27 27 25 22 22 21 20 18 16 15 15 12 11 11 13 13 11 9 8 8
28 28 27 27 28 28 29 29 29 28 28 29 30 29 29 29 29 29 29 30 30 30 30 27 27 25 23 23 22 21 19 18 16 15 13 11 11 13 13 10 9 9 9
29 28 27 28 29 29 29 28 29 29 29 29 29 29 29 30 30 29 30 30 30 30 29 28 27 25 24 23 22 21 19 16 15 14 13 11 12 11 11 10 10 10 9
28 26 27 28 29 28 29 28 27 28 27 28 29 29 29 29 29 30 30 30 30 30 29 28 27 25 24 23 22 21 19 15 14 11 13 12 12 12 11 10 9 10 11

GFSGL_sfc_30mbdewp_021.txt.gz
Dewpoint
30 29 28 26 27 27 27 26 24 25 25 24 25 26 27 26 27 28 29 32 31 31 30 24 25 25 24 22 21 19 18 17 17 18 16 17 18 19 18 20 20 21 21
28 26 26 26 25 25 26 26 25 25 25 24 25 26 25 25 26 29 30 32 31 27 24 25 24 22 22 21 18 17 17 16 16 15 16 18 18 18 18 18 19 17 19
28 25 24 25 25 25 26 25 25 24 25 24 25 25 25 28 31 27 24 24 24 25 26 23 23 23 22 17 17 17 16 14 16 19 19 19 18 17 17 17 16 19 18
28 21 21 23 25 26 26 25 26 25 25 25 25 25 25 26 26 27 27 26 26 25 26 25 23 20 17 18 16 16 15 16 16 17 16 15 15 16 19 19 18 18 17
24 22 21 23 26 26 25 25 25 26 25 24 24 24 25 29 29 29 27 27 25 25 23 21 17 17 17 17 16 16 16 15 15 15 15 18 17 19 20 18 19 18 19
25 24 23 23 25 25 23 25 24 24 24 24 24 24 25 30 27 26 23 22 22 22 20 16 15 15 15 16 18 19 19 16 18 21 19 13 12 16 18 22 22 17 13
24 23 23 23 24 22 21 20 21 23 25 24 24 25 27 28 28 25 21 20 21 19 17 15 15 13 15 16 17 17 18 20 21 20 19 17 19 19 19 21 21 21 18
23 23 23 22 17 18 19 20 21 23 24 24 23 25 25 27 26 22 21 21 21 19 17 17 16 15 17 19 17 15 14 12 11 11 13 15 17 15 14 15 16 16 17
24 21 18 17 19 19 19 20 22 24 25 24 23 23 23 27 24 22 19 21 21 20 19 17 16 13 18 18 16 15 13 11 11 13 13 16 18 19 19 20 18 15 18
19 18 18 18 18 18 20 22 23 25 24 23 21 22 24 27 24 21 19 22 21 20 19 17 15 16 17 16 16 15 14 13 10 11 14 17 17 18 19 20 18 19 18
19 19 18 19 20 22 23 24 25 25 25 25 25 26 26 26 25 21 20 21 22 21 19 17 17 18 16 15 15 14 16 14 13 17 19 18 18 19 21 21 22 23 23
23 22 22 21 24 24 25 25 25 25 25 25 28 28 27 26 24 22 21 20 21 20 20 19 20 19 15 15 14 13 13 15 17 16 18 18 19 20 21 23 23 21 23
24 24 23 24 25 25 25 25 26 25 25 25 25 28 26 25 28 24 23 21 21 22 21 20 20 19 15 15 12 12 15 13 12 15 18 18 19 21 22 26 27 31 23
24 23 25 25 24 25 24 24 26 27 26 25 25 25 24 21 21 26 26 24 22 23 24 22 20 20 18 18 18 14 14 13 11 11 17 19 21 20 21 23 26 28 29
26 27 26 28 27 26 25 25 26 27 28 26 26 27 27 27 23 26 26 27 26 24 21 20 19 19 17 16 15 14 15 14 11 10 14 18 19 18 19 22 24 26 27
28 28 28 27 26 26 25 25 27 28 28 25 24 26 30 28 27 26 25 24 21 22 20 18 18 22 19 17 15 14 14 14 14 11 12 13 15 18 18 20 21 22 23
28 28 27 27 27 26 26 27 26 27 28 27 26 26 26 28 28 29 26 24 23 23 20 19 20 21 21 17 14 13 12 13 14 14 12 13 13 13 17 19 19 20 19
27 27 27 27 28 29 28 29 29 27 30 29 31 29 27 26 27 28 28 26 24 25 21 19 19 20 19 17 15 14 15 15 15 13 14 15 14 13 14 13 16 18 17
28 27 28 29 29 28 28 28 29 29 29 29 28 28 29 27 27 27 28 25 23 23 22 23 24 20 19 18 18 19 19 18 16 15 15 15 17 14 12 11 13 14 14
27 27 27 28 28 28 28 28 27 31 29 28 29 28 26 25 28 28 28 28 27 24 24 23 22 20 20 20 21 21 19 19 18 16 14 14 15 15 14 11 12 12 11
29 29 29 30 30 29 30 28 28 28 28 28 28 31 29 26 27 28 27 28 28 26 26 25 25 26 26 23 21 20 19 18 17 17 15 15 13 14 15 13 11 11 10
30 31 30 30 30 29 30 30 27 27 28 28 28 30 32 29 28 27 27 27 28 29 28 27 26 26 26 24 22 22 20 20 18 17 17 15 13 14 16 16 13 11 10
31 30 30 29 28 27 29 29 29 30 29 29 30 29 32 31 29 28 28 29 29 30 30 29 28 28 28 28 26 23 21 20 19 18 16 15 14 15 15 15 14 11 10
30 29 28 27 28 28 28 29 30 29 29 29 30 30 31 31 31 31 31 31 31 31 31 31 29 28 27 28 27 24 22 21 20 17 16 15 13 14 15 14 13 13 11
32 32 31 29 29 29 29 30 30 29 29 29 29 30 30 30 30 31 32 32 32 31 31 31 31 29 28 27 26 24 23 20 19 17 17 15 14 14 13 13 13 12 15
30 31 30 30 28 26 27 26 26 27 27 26 27 28 28 28 29 29 30 30 30 31 31 31 31 30 30 29 26 25 23 21 19 17 16 15 14 15 15 14 12 11 12

GFSGL_sfc_30mbdewp_024.txt.gz
Dewpoint
36 35 33 34 31 30 30 29 27 27 28 27 28 28 28 29 29 31 32 32 32 33 34 34 35 31 28 27 26 24 22 21 19 18 18 20 20 21 21 21 21 20 20
34 31 32 32 30 31 29 28 28 27 28 27 27 27 28 28 29 31 32 30 30 30 28 29 28 26 26 26 24 21 21 19 17 16 19 20 20 21 21 21 20 20 20
32 31 30 30 29 28 28 29 28 28 27 28 27 28 28 28 30 30 30 28 28 28 29 28 27 26 24 22 21 18 18 18 19 18 17 18 19 19 19 20 21 23 23
32 31 28 28 29 28 29 29 28 29 28 28 28 28 28 27 27 29 28 28 29 28 28 27 25 23 19 18 16 16 16 18 17 17 17 17 17 18 20 20 20 20 21
35 30 27 26 26 28 29 29 28 29 28 28 27 27 27 28 29 30 28 27 28 26 26 24 21 16 17 17 15 17 19 19 18 16 17 18 18 16 15 20 23 23 23
36 30 26 25 26 28 29 27 27 27 27 27 27 27 28 29 27 25 22 22 24 23 22 20 18 17 20 19 20 20 20 18 17 19 20 19 18 19 22 20 20 19 19
31 27 26 26 26 27 24 22 22 24 27 27 28 27 26 29 27 23 20 21 23 23 21 19 18 16 21 20 19 18 18 18 19 19 18 19 23 20 17 16 15 16 17
27 26 28 27 22 21 22 23 23 25 26 27 27 27 26 29 27 23 20 19 24 23 21 20 19 18 20 19 18 17 17 16 15 15 14 14 16 17 18 19 19 19 19
29 30 29 20 21 21 22 23 24 25 26 28 27 26 25 27 26 23 19 22 24 23 22 21 20 17 20 18 17 17 16 14 15 13 12 15 18 21 21 21 21 20 19
28 25 24 21 23 25 24 25 26 26 27 27 26 26 25 29 26 23 20 23 23 23 22 20 18 17 17 18 17 17 16 17 15 13 16 20 19 20 21 27 26 22 22
30 25 25 27 26 25 25 26 27 28 27 28 27 27 27 29 26 24 22 21 23 23 22 21 22 20 20 18 16 17 17 16 15 18 19 19 22 21 21 22 24 27 25
27 27 28 28 26 25 27 28 28 28 28 28 28 28 29 28 27 26 24 22 22 21 22 23 23 21 20 19 17 17 15 17 17 17 17 19 19 20 21 22 24 28 31
30 30 29 27 26 26 26 26 26 27 29 28 28 28 30 29 29 27 25 24 23 21 23 24 22 22 22 20 18 16 16 16 17 13 14 17 19 21 22 23 23 25 26
30 28 26 27 27 27 27 26 26 26 28 29 29 27 27 27 27 28 26 25 24 23 23 24 24 21 20 20 19 21 19 18 15 14 13 16 20 21 20 22 22 24 25
27 28 29 29 29 29 28 27 26 27 27 27 28 29 29 29 28 27 30 30 29 27 25 22 21 21 21 19 19 18 17 18 17 14 13 15 16 17 18 20 22 22 22
29 30 30 29 29 28 27 27 27 27 28 28 28 26 30 30 28 26 26 25 25 23 21 21 20 21 22 21 19 18 16 16 16 15 17 14 16 16 16 18 21 21 20
29 29 29 29 28 28 29 28 28 30 31 30 29 28 27 26 28 29 28 27 26 24 22 21 20 21 22 21 19 18 15 16 15 17 15 16 17 17 16 17 17 19 19
29 29 28 28 30 29 29 28 26 25 26 27 30 30 30 29 28 27 28 28 25 24 24 23 22 22 21 21 18 18 18 18 18 18 15 17 17 17 16 15 15 17 16
28 29 29 30 30 30 29 28 28 29 29 28 29 30 30 31 30 28 28 27 24 23 25 24 23 22 23 21 20 20 20 19 18 16 17 18 17 18 17 16 14 15 15
28 29 29 29 29 29 30 30 29 28 27 28 30 29 29 30 29 28 28 27 26 25 24 24 23 23 23 22 22 22 22 20 21 20 18 16 17 15 15 17 14 13 14
29 31 31 31 33 32 31 29 29 30 30 27 27 29 29 30 30 29 28 28 27 27 26 25 25 24 25 25 23 22 22 21 19 18 17 16 16 13 16 17 17 13 13
31 31 31 33 32 30 30 29 27 27 28 28 28 28 28 30 31 31 30 30 29 29 29 28 27 27 27 26 25 23 22 21 21 19 18 18 15 15 16 17 18 14 12
30 30 30 31 31 30 29 27 27 28 28 30 30 30 29 30 30 31 31 31 31 30 30 30 31 29 28 28 27 25 24 23 22 20 18 17 16 15 17 14 17 14 11
29 31 30 31 31 30 28 28 28 28 29 30 30 30 30 30 30 31 31 32 32 32 32 32 31 31 30 29 29 27 24 23 22 19 17 16 16 15 15 15 14 15 14
26 28 27 29 30 30 29 28 27 26 27 27 28 28 28 28 28 29 31 31 31 31 31 32 31 31 31 31 30 28 24 23 22 19 17 15 15 14 13 13 13 13 13
26 27 28 28 28 29 28 26 24 24 24 24 24 25 25 24 23 24 24 23 24 26 28 31 31 32 31 31 30 29 25 23 21 19 19 17 15 15 14 15 14 11 12

GFSGL_sfc_30mbdewp_027.txt.gz
Dewpoint
36 35 33 32 34 32 31 30 28 28 27 28 27 27 27 28 30 31 32 31 31 32 32 34 34 34 33 32 27 24 21 19 17 18 19 21 20 20 21 22 22 21 21
37 35 33 33 34 31 32 30 29 27 28 27 28 27 28 29 30 31 31 30 28 28 29 28 28 27 26 26 22 19 17 18 18 17 18 18 19 20 20 20 19 21 22
34 32 31 33 32 31 31 30 29 28 28 28 27 27 28 29 29 31 30 28 28 29 29 28 27 25 24 20 18 16 17 17 18 18 17 18 19 19 19 20 21 22 23
32 31 31 32 31 30 30 30 28 29 29 28 28 28 28 29 31 30 29 29 29 29 28 27 25 21 17 16 15 15 17 18 18 18 17 17 18 19 20 19 21 24 23
33 32 31 31 33 31 30 30 30 29 28 28 28 28 28 31 30 29 26 26 24 24 25 24 20 18 19 17 15 16 18 18 18 18 17 18 19 19 19 24 21 19 18
35 34 33 30 30 30 29 27 27 28 27 29 29 28 29 29 29 26 23 22 23 23 22 20 19 19 21 22 22 21 21 20 19 19 19 18 18 20 24 20 18 16 14
38 35 31 29 28 25 24 23 23 23 27 28 29 29 27 29 28 25 20 21 21 24 22 20 19 22 20 19 19 18 17 17 18 18 16 14 14 15 17 17 17 18 18
32 31 28 27 26 27 25 24 27 29 27 27 28 28 29 29 28 24 20 19 23 24 22 21 20 20 20 18 17 16 16 17 16 16 16 14 15 17 19 20 20 20 20
31 26 25 25 25 27 27 29 30 28 26 27 28 28 28 29 28 24 20 22 24 24 23 22 22 19 20 19 17 16 16 17 16 16 15 18 20 22 21 23 23 23 20
29 29 30 30 30 29 31 30 27 27 28 29 26 26 27 27 28 25 21 21 22 23 23 21 19 18 18 19 19 16 15 15 17 16 17 18 20 21 23 22 22 22 22
32 33 33 31 32 31 28 27 28 28 28 28 29 27 27 27 27 26 24 22 21 23 22 21 20 20 21 21 20 17 16 18 18 17 17 18 19 21 21 22 23 23 23
34 33 31 31 31 29 28 27 27 26 26 27 28 28 28 28 27 28 27 24 23 21 21 22 23 24 22 22 22 21 20 20 17 15 16 14 17 18 20 22 23 24 24
31 31 31 31 30 28 26 26 26 26 26 27 27 29 29 29 29 28 28 26 24 21 21 22 24 23 23 24 24 23 21 18 15 16 13 13 15 18 21 21 22 22 25
30 30 30 28 28 28 28 28 27 26 26 25 25 28 29 32 29 29 27 27 25 23 22 23 24 24 23 21 21 21 20 19 18 16 12 13 16 17 18 20 19 22 22
28 28 29 29 29 29 30 29 27 27 26 25 25 25 26 29 31 30 27 26 25 24 22 22 23 21 19 21 20 19 19 18 17 14 13 15 15 16 16 18 19 21 20
29 29 29 29 28 28 28 28 29 29 30 29 29 29 27 28 30 31 32 31 29 29 25 23 21 18 19 20 21 19 18 17 16 14 15 15 16 16 17 17 18 19 19
29 28 28 28 28 28 27 28 27 28 27 26 27 28 30 29 28 30 28 28 28 26 21 20 19 19 18 20 21 20 17 15 15 17 15 13 16 17 16 16 16 16 17
28 28 28 28 28 27 28 27 27 25 24 25 27 28 29 30 30 29 29 30 27 26 22 21 20 20 20 21 21 20 18 17 17 16 16 13 16 16 16 16 16 15 15
29 28 28 28 28 29 29 29 28 28 27 27 28 28 29 30 31 31 30 29 25 24 23 23 23 22 22 22 22 20 17 17 17 16 15 15 18 16 14 15 17 14 13
31 30 29 29 30 30 30 30 30 29 28 28 27 27 28 28 28 29 30 29 27 25 24 23 24 24 24 24 24 23 19 18 18 17 17 18 14 14 12 12 16 16 13
31 30 30 30 30 32 32 31 30 29 28 28 28 28 29 27 28 29 29 28 27 27 26 25 25 24 24 23 23 22 21 20 19 19 18 15 14 14 12 14 17 18 12
29 29 28 29 30 31 31 31 29 28 27 25 26 27 27 29 29 29 30 29 28 28 29 28 27 26 25 25 24 23 21 20 19 18 17 16 15 14 13 16 15 15 11
22 23 24 25 26 26 26 27 30 28 26 26 27 27 28 28 29 30 30 31 31 31 30 30 29 28 27 27 27 26 24 21 20 19 18 17 16 14 14 15 14 14 11
23 23 23 24 26 27 27 26 28 28 27 27 27 27 27 27 28 28 29 30 31 31 31 31 31 31 30 29 29 28 26 24 22 21 18 17 16 14 13 14 14 13 14
17 19 19 18 19 20 20 21 23 23 23 23 23 23 23 23 22 23 23 23 24 24 24 27 31 31 31 31 30 29 28 26 24 21 18 16 15 14 14 13 12 12 11
14 15 12 13 13 14 16 16 17 18 18 18 18 18 18 18 18 19 20 21 18 17 19 19 20 21 22 28 31 31 28 26 24 21 18 16 14 13 13 12 11 13 11

GFSGL_sfc_30mbdewp_030.txt.gz
Dewpoint
34 33 33 31 33 33 32 30 29 28 28 28 28 27 27 28 29 31 31 31 30 32 31 32 35 34 34 33 30 25 20 19 17 18 19 20 19 19 20 21 21 21 21
34 34 33 33 34 33 32 30 30 28 29 28 28 27 27 28 28 30 31 31 28 27 29 29 29 32 28 26 22 19 17 17 17 15 17 17 18 19 19 20 20 20 22
36 34 33 32 34 31 32 32 30 29 28 29 27 27 27 28 28 30 32 31 29 29 29 28 27 26 24 22 19 17 17 17 18 18 17 18 18 18 19 20 21 21 23
35 34 32 33 34 31 32 32 31 29 29 29 28 28 29 29 29 30 29 29 29 29 29 27 25 23 18 17 16 15 16 17 18 18 18 18 17 18 20 20 20 22 20
35 33 32 33 33 33 33 31 30 30 29 29 29 30 30 30 31 30 28 27 25 24 24 21 20 20 21 18 16 17 18 18 18 17 18 18 18 18 19 20 22 18 16
34 33 34 33 34 33 31 30 26 25 25 27 27 30 29 30 29 30 27 24 23 23 22 20 19 21 21 23 23 22 20 17 16 18 18 16 16 14 15 16 17 16 16
36 35 34 32 29 28 27 26 27 29 29 28 28 29 29 30 29 29 25 22 22 22 23 20 19 22 21 19 19 18 17 16 15 18 16 16 14 14 15 17 19 19 19
33 31 30 30 29 30 30 32 33 32 29 28 27 28 29 30 30 29 23 21 21 24 23 21 20 20 20 19 18 17 17 16 16 16 17 16 16 19 21 22 23 24 23
28 30 30 31 33 35 35 34 32 31 28 27 29 29 28 29 30 28 22 20 21 23 24 23 22 20 21 21 18 18 17 15 15 17 17 18 19 20 22 23 21 21 18
32 33 35 36 36 35 35 32 30 28 28 29 28 28 28 27 30 28 24 21 21 23 23 22 20 19 21 20 20 19 16 14 15 17 17 17 18 19 21 21 22 20 20
38 38 38 37 36 33 32 30 29 28 27 26 27 28 29 28 27 29 27 22 22 22 23 22 21 22 21 22 22 20 17 17 19 20 18 17 17 18 19 20 22 22 21
37 37 35 32 31 30 30 28 27 26 26 26 26 26 26 29 28 28 29 26 23 22 22 23 23 23 23 24 23 23 23 23 21 19 16 16 14 15 17 19 21 22 23
32 31 30 30 30 30 27 26 26 26 26 26 26 25 25 28 30 29 29 29 26 23 23 22 22 24 25 24 24 23 23 22 19 17 15 15 13 15 18 18 19 21 22
29 29 29 29 28 29 28 28 28 27 26 26 26 25 25 26 28 30 31 31 29 25 23 24 23 23 24 23 22 21 21 20 19 16 16 13 15 16 16 17 18 20 21
28 28 28 28 29 29 29 29 29 28 27 26 26 26 26 26 26 29 29 29 28 28 25 23 22 21 21 23 21 21 20 19 18 17 14 14 15 17 16 18 18 18 18
28 28 28 27 27 28 28 28 29 29 29 29 29 27 27 28 28 29 31 31 30 29 24 23 23 21 21 21 19 19 20 19 18 16 13 15 14 16 16 17 17 16 16
29 29 28 28 27 27 27 27 27 28 29 28 27 27 27 28 29 30 31 32 32 30 26 24 24 21 21 20 19 19 19 20 17 15 16 14 13 16 16 16 16 16 15
30 30 29 28 28 28 28 28 27 27 27 26 26 27 27 28 29 30 31 31 29 29 25 23 21 20 19 19 19 19 19 19 15 16 15 14 12 15 16 14 15 15 14
30 29 29 29 30 30 30 31 30 29 30 29 29 27 28 29 29 30 31 30 28 26 26 24 22 21 21 21 21 20 19 18 16 15 14 14 14 17 15 12 13 16 14
27 28 28 28 28 28 27 29 29 29 28 29 28 27 27 27 27 28 27 29 29 27 26 25 25 23 22 22 22 22 20 19 17 15 15 14 15 15 14 11 12 16 16
19 20 21 22 22 23 24 26 26 25 27 28 28 29 28 26 27 27 27 28 29 29 28 26 26 25 24 24 24 23 22 22 20 18 17 16 15 14 13 11 14 17 14
21 21 21 22 22 22 24 25 24 25 24 25 27 27 26 25 26 27 28 28 29 29 29 29 27 26 26 25 24 23 22 22 21 19 18 17 14 14 13 13 15 14 11
17 17 18 17 18 18 18 19 21 21 23 26 26 26 26 27 27 27 27 27 27 28 30 30 29 28 27 27 28 26 23 22 22 20 19 16 15 14 13 13 13 14 12
13 15 11 12 12 12 14 15 15 16 17 18 19 19 19 20 20 19 20 20 22 20 21 22 24 28 29 28 28 28 27 26 25 23 22 18 16 15 13 13 13 13 13
11 11 8 9 8 9 10 9 11 12 12 12 12 13 14 15 15 15 16 17 15 15 16 17 19 19 20 19 26 29 28 28 27 25 22 20 17 15 13 13 13 12 11
9 9 6 7 6 7 7 6 7 8 7 8 9 10 10 10 11 11 12 12 11 12 14 15 16 17 17 18 18 19 26 28 27 25 23 20 18 15 13 13 12 11 11

GFSGL_sfc_30mbdewp_036.txt.gz
Dewpoint
48 47 45 44 45 43 41 36 33 32 35 35 30 30 29 28 29 29 30 31 31 31 31 32 31 32 34 34 33 32 30 30 27 25 22 19 18 18 18 18 20 21 22
43 42 42 41 41 39 36 31 32 32 35 31 32 30 29 28 29 29 29 30 30 30 30 29 30 33 33 33 31 29 25 23 20 17 16 17 18 18 18 18 19 19 21
42 41 42 38 37 33 32 32 33 33 32 32 31 29 29 29 29 30 29 29 29 30 29 29 28 28 28 28 26 24 21 18 18 17 17 18 18 18 17 19 20 20 20
41 41 38 37 35 34 34 33 33 31 31 30 30 30 30 30 31 30 29 29 30 30 30 29 29 28 27 26 24 21 19 17 17 17 18 17 16 17 19 18 15 15 16
40 38 36 37 36 35 35 33 33 32 31 31 31 34 35 35 31 30 30 30 30 29 29 29 29 27 27 22 18 17 16 16 17 18 16 15 14 15 14 16 15 17 18
40 38 38 37 36 35 34 33 31 32 34 37 37 36 36 32 30 31 31 30 29 28 26 26 24 24 25 26 26 21 17 18 18 16 15 14 13 14 16 16 17 17 15
39 39 37 35 32 32 33 35 36 37 37 37 36 35 34 31 29 30 31 30 28 27 25 24 22 20 21 22 24 25 24 23 20 18 16 14 14 16 16 17 18 19 19
33 33 34 34 36 36 37 37 37 37 37 36 35 34 31 30 29 29 31 31 28 26 25 23 22 21 21 22 22 21 19 18 18 18 16 15 17 18 19 19 19 20 20
35 36 37 38 37 37 37 37 37 37 35 34 33 30 28 27 28 29 31 30 27 25 23 23 23 22 22 25 21 19 18 18 19 19 18 20 20 20 20 19 17 17 16
37 38 38 38 38 37 37 36 35 36 34 31 29 28 27 27 27 28 30 30 27 25 23 24 25 23 23 25 24 21 19 18 19 15 15 17 19 19 20 18 17 17 17
39 39 38 38 38 38 37 36 34 32 30 28 27 26 26 27 27 27 28 30 28 26 25 24 24 25 27 25 26 22 20 20 20 17 17 20 20 19 18 17 17 18 17
38 37 36 35 33 31 31 30 30 29 27 26 26 26 27 27 27 27 28 30 30 27 26 25 25 25 29 26 26 25 23 24 22 20 21 21 20 18 17 16 18 19 20
29 28 28 29 29 29 28 28 27 27 26 26 26 27 27 27 27 27 28 29 30 30 28 27 27 29 30 29 27 25 25 25 23 21 20 20 18 17 16 18 18 18 18
28 28 28 28 28 28 28 28 27 27 26 27 27 27 27 26 26 26 26 25 26 28 29 29 29 29 28 29 27 28 27 25 23 20 19 18 16 16 16 17 17 17 17
29 29 28 28 27 27 27 28 28 28 28 27 27 27 27 27 27 27 26 24 25 26 27 29 28 26 25 25 25 25 25 23 21 20 18 18 16 15 15 16 17 17 16
27 28 27 27 27 27 27 27 28 28 29 30 30 30 30 30 30 30 30 31 31 31 28 27 25 24 24 24 23 23 23 23 22 20 18 18 17 16 15 15 17 15 15
24 25 24 23 24 24 23 23 22 21 22 23 24 25 27 29 30 31 32 32 31 31 28 28 25 25 24 24 24 23 22 21 21 20 19 17 16 14 14 13 15 15 14
19 20 21 21 22 22 22 21 21 21 20 21 22 23 24 24 25 28 30 31 28 28 27 26 26 25 25 24 24 23 23 22 19 19 17 17 16 14 13 13 14 14 13
19 20 19 20 20 20 19 18 18 19 19 18 18 19 18 17 21 25 26 28 27 26 25 26 27 27 26 26 24 24 23 21 19 17 17 16 14 14 14 13 14 13 12
17 17 17 18 17 16 15 15 15 16 15 16 16 16 15 15 15 15 23 24 25 26 28 27 26 26 26 25 24 23 23 21 19 17 16 16 15 14 15 14 13 13 14
15 15 11 13 13 12 11 12 12 12 11 12 11 12 12 14 14 14 15 16 15 16 20 23 26 26 27 26 25 24 22 21 20 19 18 16 14 15 15 15 14 12 14
12 9 9 10 9 8 8 8 7 8 8 7 7 8 9 10 10 11 12 13 14 14 14 15 16 19 20 20 25 24 23 22 21 20 18 17 16 16 16 15 13 12 14
10 4 5 6 5 5 5 3 3 5 5 3 3 4 5 6 7 8 9 9 12 11 12 12 12 13 16 18 20 21 24 23 23 22 19 18 17 17 16 15 13 12 12
6 2 3 3 2 1 1 -1 -1 2 2 -0 0 2 2 3 4 5 6 7 9 9 10 10 10 11 11 13 16 19 20 22 26 25 23 20 19 18 16 15 13 12 12
3 -0 -0 1 -0 -2 -3 -4 -4 -2 -2 -3 -2 -0 0 1 2 3 4 5 5 5 6 8 9 9 8 9 11 15 18 19 20 25 24 23 21 18 17 16 14 12 11
4 -1 -2 -0 -1 -4 -6 -7 -7 -5 -5 -5 -4 -3 -2 -1 0 1 2 3 2 2 4 5 7 8 8 8 12 15 16 17 18 20 24 23 21 18 17 16 14 13 12

GFSGL_sfc_30mbdewp_039.txt.gz
Dewpoint
56 56 55 53 53 51 48 45 42 39 36 35 39 35 33 31 31 32 32 32 33 33 34 34 33 34 32 33 35 34 32 33 26 21 24 24 21 18 18 17 14 14 13
54 52 52 51 50 48 47 45 42 39 36 35 36 33 33 31 31 31 31 34 32 31 32 32 32 31 33 33 33 32 30 28 26 20 19 19 18 19 18 16 12 12 15
48 48 48 47 47 48 47 45 41 37 35 36 34 31 33 31 31 32 37 35 31 31 31 31 31 31 30 31 31 29 27 26 24 22 18 16 18 17 15 12 11 15 12
46 46 46 45 45 44 40 37 36 35 34 34 34 33 32 32 35 39 36 33 31 31 32 32 31 31 30 29 28 27 25 24 20 18 15 15 16 15 15 9 11 11 11
43 42 42 41 39 38 36 35 35 34 33 33 33 36 38 38 38 37 35 33 32 32 32 32 32 31 31 30 27 25 22 19 17 16 15 15 14 13 9 11 12 12 13
42 40 39 38 37 37 36 35 35 34 37 38 37 38 37 38 36 35 32 31 31 31 30 31 31 31 31 30 27 22 20 20 18 17 16 15 14 13 10 13 14 13 12
40 39 38 36 35 35 36 37 38 38 38 38 38 39 38 37 36 33 31 31 31 30 30 29 28 25 25 24 25 28 25 22 21 20 18 17 17 11 13 14 13 13 13
36 35 35 35 36 37 38 38 38 38 38 38 38 37 35 35 32 29 29 29 30 30 30 30 29 27 25 23 22 22 23 23 23 21 19 18 14 13 15 17 17 16 13
36 36 37 37 37 38 38 38 38 38 38 37 36 35 35 32 29 28 29 29 29 30 29 29 28 27 25 25 23 22 21 20 20 21 21 21 18 21 21 19 16 14 13
37 38 38 38 38 38 38 37 37 36 36 35 32 31 31 29 29 28 28 29 28 28 29 28 27 26 25 25 25 25 22 19 19 18 18 16 19 18 20 20 16 15 13
39 39 39 38 38 37 36 34 33 32 32 31 30 30 30 29 28 28 28 29 29 28 28 27 28 27 27 27 27 27 27 23 20 19 17 14 16 18 18 17 17 15 15
35 33 31 30 30 30 30 30 30 29 29 29 29 29 29 29 29 29 29 29 29 30 29 28 29 28 27 28 28 30 30 25 24 22 20 19 19 19 18 17 17 17 16
28 28 28 29 28 28 28 28 28 28 28 28 27 28 28 29 30 30 29 29 29 30 31 31 30 29 28 28 30 31 30 27 26 24 21 20 20 20 18 18 19 18 15
29 29 28 27 27 27 26 26 25 26 26 26 26 27 28 28 28 29 30 30 30 30 30 29 30 29 29 30 30 30 30 28 27 26 23 21 21 21 20 20 19 17 15
27 26 25 24 23 21 21 23 22 22 24 23 22 23 25 25 25 28 30 30 31 32 30 30 30 29 28 28 28 29 29 28 27 26 25 22 21 21 20 20 19 16 15
20 19 19 19 19 18 17 16 20 21 22 22 23 24 25 24 21 21 22 25 27 30 30 28 28 28 27 25 25 25 26 27 26 26 25 24 22 21 20 19 18 16 14
16 17 17 18 18 17 17 16 16 17 19 19 19 20 19 18 18 18 19 22 26 26 27 29 29 29 27 25 24 25 25 26 27 26 25 24 23 21 20 19 18 16 15
17 18 16 17 17 16 16 15 15 15 15 15 16 17 16 14 16 17 18 18 23 24 28 27 27 27 27 27 26 26 25 26 25 25 24 25 24 21 21 19 18 17 15
13 14 16 16 15 15 13 14 13 13 12 12 12 11 11 11 13 14 15 17 16 16 17 20 28 28 26 28 28 27 27 26 26 25 24 24 23 21 21 19 19 16 16
14 13 12 12 12 10 10 11 10 9 10 10 9 9 8 9 10 11 12 13 14 13 15 15 17 19 28 28 28 28 27 26 25 24 24 24 23 21 21 20 20 19 16
11 10 11 10 8 7 8 8 7 7 8 7 6 6 6 7 7 8 9 10 10 11 11 12 14 15 17 20 21 25 26 25 25 24 23 23 23 20 21 21 21 18 16
8 6 7 7 6 6 5 4 4 4 5 4 3 3 4 5 5 5 6 7 8 9 10 11 11 13 14 15 16 19 20 24 25 24 23 23 21 20 21 21 21 19 16
6 5 5 4 4 3 3 1 1 2 3 2 2 2 3 3 3 4 5 6 6 7 8 8 9 10 12 13 14 15 17 19 21 26 23 23 21 21 21 21 20 19 17
5 4 2 3 3 1 1 0 -0 -1 -1 -0 0 0 1 1 2 3 3 4 4 5 5 6 7 9 9 10 11 13 15 18 19 21 26 24 23 21 21 22 21 19 17
5 3 2 2 2 1 -0 -1 -2 -2 -2 -2 -1 -1 -1 -1 -0 1 1 2 2 2 2 4 6 7 8 8 10 11 13 14 16 19 22 25 24 23 22 21 20 19 17
5 2 1 1 1 -0 -1 -3 -3 -3 -4 -3 -3 -3 -2 -2 -1 -1 -0 0 0 0 1 3 3 4 6 8 10 11 11 11 14 17 19 24 24 23 22 21 20 19 16

GFSGL_sfc_30mbdewp_042.txt.gz
Dewpoint
58 58 57 57 57 57 55 53 50 48 45 41 38 38 40 37 35 34 33 31 34 37 33 30 29 29 29 28 28 27 26 25 25 23 20 19 22 23 20 18 19 16 12
57 57 57 57 56 56 54 52 50 46 41 41 39 40 35 34 34 34 33 32 40 36 30 29 29 28 29 29 27 26 25 24 22 20 20 19 19 19 18 18 16 12 11
56 55 55 54 53 52 51 49 46 45 43 40 38 37 34 35 34 33 38 40 40 36 32 30 29 29 28 28 26 26 24 22 22 21 20 19 18 16 16 16 14 11 11
52 52 51 51 51 51 50 49 46 44 41 38 39 38 36 34 34 38 39 40 38 38 34 32 31 30 29 28 25 25 24 23 22 21 18 17 14 14 14 13 9 8 10
50 49 49 48 47 45 44 43 42 42 38 37 35 38 38 38 39 38 38 38 38 35 33 32 32 32 31 29 25 24 24 22 21 19 17 14 13 13 12 12 8 10 11
46 44 43 42 40 39 38 37 36 36 37 38 39 39 39 36 39 38 37 38 38 32 29 29 30 32 32 32 31 30 27 23 21 21 17 14 14 13 13 11 9 10 10
43 41 40 38 37 37 36 36 38 37 40 39 38 35 37 38 38 38 38 35 30 29 28 27 26 25 29 30 32 30 28 23 21 22 18 17 16 15 15 10 10 11 12
39 38 38 38 37 37 37 37 38 38 38 37 38 39 39 38 37 37 34 30 28 26 25 26 27 27 27 28 28 27 26 25 26 23 20 19 18 17 14 12 14 15 14
38 38 37 37 37 38 37 38 38 38 38 39 38 37 36 36 37 32 29 28 26 25 25 25 26 26 27 30 28 27 26 25 26 24 24 23 22 20 17 15 17 15 15
37 37 37 37 37 37 38 39 37 37 37 36 34 33 32 31 31 30 29 28 27 27 27 26 26 27 28 29 28 27 26 26 26 24 21 22 23 22 22 20 17 15 15
38 38 38 37 36 35 33 30 29 28 29 30 30 30 30 29 29 30 30 29 29 30 28 27 26 27 28 29 28 27 29 30 28 31 28 21 19 15 16 18 17 16 15
34 32 29 27 24 25 25 25 25 25 26 27 28 28 29 29 29 31 31 31 30 30 30 31 30 30 29 30 29 28 28 29 31 31 28 26 20 17 17 16 15 16 16
26 25 26 27 27 27 26 26 25 26 25 25 23 24 23 24 24 25 26 28 28 29 30 31 33 32 33 30 29 29 29 29 30 29 28 27 27 23 21 18 17 17 17
26 26 25 25 24 22 19 17 16 18 20 18 18 18 19 20 21 25 22 22 23 26 27 29 29 32 32 32 32 32 31 30 30 29 28 28 31 29 22 20 18 17 17
24 22 19 17 14 12 12 15 17 18 21 19 19 19 21 21 21 20 20 20 21 22 24 27 25 28 28 30 31 31 29 29 30 30 29 29 28 27 24 21 20 18 17
15 14 17 17 16 12 11 11 21 20 20 20 20 20 21 19 17 17 18 19 19 20 25 23 24 26 27 27 31 29 26 27 27 29 30 29 28 25 24 23 20 18 17
12 13 15 15 13 13 13 12 12 15 16 17 16 16 17 14 14 15 16 16 18 18 21 22 26 28 28 28 31 30 26 26 28 27 28 28 28 28 27 24 21 19 17
13 15 14 15 13 13 13 13 13 13 13 13 13 13 12 11 12 13 14 14 14 15 16 17 19 21 21 25 28 28 26 27 28 28 28 28 28 26 26 23 20 19 17
11 11 15 15 15 13 13 13 12 12 11 11 11 9 10 8 10 11 12 13 12 12 13 14 16 17 19 21 24 30 31 29 29 29 27 28 28 27 26 22 20 19 18
13 12 13 12 11 10 10 11 9 10 10 10 9 9 8 7 10 10 11 11 11 11 11 11 13 15 16 18 20 22 26 29 28 27 28 28 28 27 26 22 22 22 18
10 10 11 10 9 8 9 9 8 8 8 8 8 9 6 6 9 9 8 9 9 9 10 11 11 12 14 15 16 17 19 22 28 27 27 26 28 26 26 24 22 20 18
8 8 8 8 8 9 7 7 7 7 7 7 7 7 5 7 7 7 7 8 9 9 9 9 10 11 11 13 14 14 16 18 21 23 26 26 26 27 26 23 23 23 19
8 9 7 6 7 6 7 6 7 7 6 6 6 5 5 6 6 6 6 7 7 7 8 8 8 8 10 11 12 14 13 15 18 20 20 23 25 26 26 23 22 22 20
8 8 5 6 7 6 7 6 6 4 3 4 5 5 5 5 5 5 5 6 5 5 6 6 6 7 8 9 11 12 13 15 16 16 18 20 24 26 26 25 22 21 20
8 7 6 6 6 6 5 5 4 4 4 4 4 4 3 4 3 4 4 4 3 4 4 4 6 6 7 7 8 10 12 14 13 14 16 20 21 26 26 25 24 22 21
6 5 5 5 5 5 4 3 3 2 2 2 2 3 3 3 2 3 2 2 2 1 3 4 5 5 6 7 8 10 11 11 12 13 15 18 20 25 26 26 25 24 22

GFSGL_sfc_30mbdewp_048.txt.gz
Dewpoint
56 60 60 59 58 59 59 58 58 57 52 49 48 46 44 43 45 43 41 37 36 39 42 42 41 42 40 36 35 33 32 30 28 28 28 28 28 29 26 27 28 26 25
59 60 60 59 59 58 58 58 57 52 49 47 47 45 43 44 44 41 37 35 41 40 39 41 41 39 38 37 36 34 32 32 29 28 28 27 26 26 26 25 25 21 21
58 59 59 59 58 58 56 55 54 53 51 48 46 43 43 43 40 38 38 41 41 40 41 40 40 40 39 38 36 35 34 32 31 29 28 28 27 26 24 25 23 22 22
59 59 58 56 55 54 52 51 49 48 45 44 44 44 41 40 40 41 41 40 39 40 40 40 40 40 39 38 36 35 34 34 33 29 28 27 26 25 25 21 19 20 19
57 56 55 54 54 53 51 50 48 47 46 43 41 40 41 41 40 40 39 39 38 37 39 40 39 39 39 37 35 34 32 32 32 31 27 26 26 25 22 21 19 19 19
53 52 52 52 52 52 51 49 47 43 41 40 40 39 39 38 39 39 39 38 39 39 38 38 39 38 37 35 32 31 31 31 31 31 30 28 26 25 24 22 20 18 17
49 48 46 45 43 42 41 41 41 40 40 39 39 40 39 38 38 38 37 38 38 38 38 38 37 30 28 29 29 29 30 32 32 31 30 30 28 28 28 25 22 20 19
44 43 42 41 39 39 38 39 39 40 40 40 39 39 39 38 37 38 38 38 38 37 36 32 30 29 29 29 29 28 28 29 31 33 32 32 31 30 29 27 25 24 18
42 41 41 40 40 40 39 40 40 40 39 40 40 39 39 39 37 37 37 36 32 31 31 30 31 31 31 31 31 30 30 28 28 28 30 32 31 29 26 24 22 20 20
40 40 40 40 40 40 40 40 40 40 39 38 38 38 32 32 34 31 31 32 31 30 30 29 29 29 30 31 31 30 29 31 34 34 31 31 31 28 26 27 24 26 26
39 39 39 40 40 39 39 39 38 35 33 32 31 31 30 31 29 28 26 27 24 24 25 25 25 26 25 24 23 22 24 28 30 31 32 32 33 34 30 28 27 26 24
39 39 39 38 34 32 29 26 25 28 30 30 30 29 30 29 27 25 23 22 22 21 21 22 23 23 23 23 25 25 25 28 29 28 28 30 31 32 33 29 26 25 24
37 32 26 24 25 26 27 26 26 26 25 23 22 23 24 25 28 23 20 19 20 21 21 21 20 21 23 25 26 26 26 25 25 26 26 27 30 32 34 33 31 27 25
27 26 26 25 23 21 18 17 24 24 21 19 20 21 22 23 22 20 19 19 19 20 20 19 21 23 24 24 25 25 29 29 29 28 28 30 32 31 30 32 30 30 29
27 25 23 20 17 16 18 20 22 18 21 21 21 21 22 21 19 17 16 17 18 18 18 20 20 20 20 19 19 21 22 23 23 30 29 30 30 29 29 30 30 29 27
23 22 23 20 16 15 17 17 21 19 20 19 18 18 20 18 16 15 15 16 15 17 18 17 17 17 18 17 17 18 19 20 22 22 30 30 29 28 28 30 30 28 26
22 22 21 20 18 16 15 19 21 20 21 20 18 17 16 14 14 14 15 14 16 16 15 15 14 15 15 15 16 16 17 18 19 21 26 28 27 28 28 29 28 28 27
18 19 20 19 19 17 17 16 16 17 19 21 18 16 14 13 13 13 14 14 15 14 14 13 13 13 14 14 14 15 16 17 17 18 20 28 28 28 27 28 28 27 26
19 21 23 23 20 18 17 16 15 15 15 15 15 16 14 13 12 14 14 15 14 13 12 12 12 12 13 13 13 14 15 15 15 17 18 21 26 29 27 27 28 28 27
22 22 22 20 15 15 14 15 13 14 14 14 14 15 15 12 10 12 14 13 13 13 13 11 11 12 12 12 12 12 13 13 12 15 16 18 19 22 28 27 27 27 26
21 20 16 15 14 13 13 14 12 13 13 13 13 14 10 9 10 13 12 11 13 12 11 12 12 11 11 11 11 10 11 11 11 13 14 15 16 16 19 26 26 28 27
19 16 15 14 12 14 13 12 12 13 13 12 13 12 10 10 13 12 11 12 12 11 12 11 11 10 10 11 9 9 10 9 11 11 12 12 14 15 16 18 21 27 27
17 15 11 11 12 11 13 13 12 13 12 11 11 12 12 12 12 11 11 11 11 11 10 10 9 9 8 7 9 11 10 10 10 10 11 12 11 12 13 15 19 21 26
14 14 11 10 12 11 12 13 11 11 11 11 12 12 12 11 10 10 10 10 10 9 7 9 7 4 6 10 9 8 8 8 11 13 11 9 9 10 13 14 15 18 25
14 13 12 11 12 12 12 12 12 11 12 11 10 11 9 9 8 8 7 8 7 6 8 3 4 8 7 7 7 8 11 13 9 9 10 10 10 10 11 14 15 19 23
12 12 11 11 11 12 11 11 10 10 10 9 9 7 8 8 7 5 6 4 7 4 2 3 3 4 4 7 8 9 8 9 10 12 12 12 11 11 12 14 15 18 22

GFSGL_sfc_30mbdewp_051.txt.gz
Dewpoint
54 55 57 57 57 58 59 59 58 57 56 55 53 50 48 46 45 44 43 42 41 42 42 40 40 42 41 42 40 36 34 33 30 30 30 29 28 28 28 34 32 32 31
55 56 58 57 57 58 59 59 58 57 54 52 50 48 46 45 44 43 41 39 40 41 41 40 40 41 40 40 39 37 36 35 32 30 31 30 28 28 27 27 28 27 27
56 58 59 59 58 58 58 57 56 54 51 49 48 47 45 45 43 41 39 40 42 42 41 41 40 40 39 39 40 39 38 36 34 33 34 32 30 30 28 27 26 26 24
58 59 58 57 56 56 55 54 52 51 49 48 47 46 45 43 41 40 41 41 42 41 40 40 40 40 39 39 39 38 37 35 34 34 34 33 30 30 28 26 24 24 22
58 57 56 54 53 53 51 50 49 47 46 46 44 43 42 41 41 41 41 41 40 38 38 39 40 40 39 39 38 38 36 34 33 31 31 30 29 28 26 26 25 23 21
56 55 54 53 52 51 50 48 47 45 44 43 42 42 41 40 41 41 40 38 38 37 38 39 39 39 38 37 36 33 34 32 30 30 30 30 30 29 27 27 26 22 23
52 53 52 50 50 50 48 46 42 40 40 39 39 39 38 38 39 38 38 38 38 38 38 38 37 37 34 32 31 30 30 30 31 31 29 30 31 31 30 29 29 27 30
46 45 44 43 42 41 41 41 40 39 38 39 38 38 38 38 38 38 37 38 37 36 36 36 32 30 30 31 31 30 30 31 31 31 31 31 32 32 32 31 31 29 29
44 43 41 39 39 39 39 39 40 39 39 38 39 39 38 37 37 37 37 36 33 31 31 29 29 28 30 27 25 22 19 19 24 29 30 32 32 31 31 32 30 29 27
42 41 40 40 40 40 39 39 40 40 39 39 38 38 36 34 34 34 32 30 27 24 25 26 26 25 25 25 22 21 21 21 20 21 25 27 28 30 33 32 31 27 27
41 41 41 41 40 40 40 39 39 38 38 35 32 32 30 29 27 26 25 22 21 21 21 21 22 24 21 20 23 25 25 25 26 25 26 25 26 27 30 31 30 31 29
40 40 40 40 39 39 39 38 35 33 30 30 30 29 27 26 25 23 22 21 21 19 20 21 22 20 20 24 25 26 26 28 27 26 26 26 25 25 28 31 31 29 30
39 39 39 37 36 33 27 29 30 30 28 26 26 26 25 24 22 20 18 18 19 19 20 19 19 20 22 24 22 20 22 22 24 22 23 23 28 28 31 32 32 31 30
34 29 27 27 28 25 26 26 24 23 21 21 22 23 24 21 19 18 18 18 19 19 19 19 19 21 22 20 19 19 19 19 20 19 20 21 25 29 30 32 30 29 27
27 27 25 23 20 22 24 21 19 22 23 21 22 23 21 20 18 17 16 17 17 18 18 18 18 18 16 17 16 17 17 17 17 17 17 19 20 29 29 30 29 28 26
24 23 22 21 19 18 20 18 20 18 19 19 21 21 20 18 16 16 15 16 16 18 18 17 14 14 14 15 16 14 14 15 15 16 16 17 19 23 28 29 30 28 26
23 22 21 20 21 21 19 19 19 22 21 20 19 18 18 15 15 15 15 15 16 16 14 14 12 12 13 14 14 13 12 14 15 14 14 16 18 19 25 28 28 28 26
23 23 23 23 22 21 21 23 22 21 21 21 19 18 16 15 14 14 15 15 15 14 14 13 12 12 13 12 12 12 12 12 13 12 12 15 16 17 16 26 27 27 26
24 23 22 22 23 22 22 21 18 17 17 18 20 17 15 14 11 12 16 13 13 13 14 12 11 12 12 12 11 11 11 10 12 10 10 13 14 14 14 16 26 27 27
24 24 23 23 23 22 22 20 19 18 16 16 16 17 14 10 7 8 13 11 12 12 11 12 13 11 10 10 10 10 7 8 9 9 10 10 11 13 13 14 16 23 26
21 22 22 22 21 20 20 18 15 15 14 14 15 12 10 9 9 11 13 12 11 11 11 11 10 9 8 9 10 6 7 8 8 9 8 8 9 10 13 13 14 16 18
21 21 21 20 20 18 15 15 14 14 14 13 12 13 12 11 13 12 11 10 10 11 10 9 8 8 10 6 5 6 8 8 7 7 7 8 9 9 8 10 11 14 17
20 19 19 18 17 15 15 15 13 13 11 10 11 12 12 12 12 11 9 9 10 9 6 7 7 5 4 4 6 9 6 6 7 8 8 8 7 7 8 9 10 12 13
18 16 15 15 13 11 12 12 10 13 13 12 11 11 11 9 9 8 8 7 7 4 5 2 2 3 5 6 5 6 7 8 10 10 9 8 7 7 8 8 9 11 13
16 15 15 15 14 14 13 13 12 11 11 10 10 8 7 8 7 5 4 3 3 3 1 1 2 3 2 2 3 5 8 10 9 9 9 9 8 8 8 9 9 11 13
15 14 13 12 12 11 10 10 9 8 8 8 6 5 6 5 4 2 0 3 2 -0 -1 -0 1 1 2 4 5 7 9 8 8 9 10 9 9 8 9 9 10 11 12

GFSGL_sfc_30mbdewp_054.txt.gz
Dewpoint
53 53 54 54 55 57 57 57 57 57 57 55 55 54 52 49 47 46 45 44 43 43 44 42 42 43 42 41 41 39 37 36 34 33 32 31 30 29 30 32 35 35 35
53 54 55 56 57 58 58 59 59 58 56 55 54 52 50 47 46 45 44 44 43 42 42 42 42 43 41 40 39 38 38 37 35 35 34 32 31 32 31 29 29 32 32
56 56 56 57 57 58 59 59 58 57 55 54 52 50 48 46 44 44 42 42 42 42 42 41 41 40 39 38 38 39 39 39 38 36 35 35 34 34 32 32 30 29 30
56 56 57 57 57 58 57 57 57 56 53 52 51 49 47 45 44 41 41 42 42 42 42 41 41 40 39 38 38 37 37 37 36 35 34 34 34 33 32 30 30 29 28
55 55 57 58 58 58 56 55 54 53 51 49 47 46 45 43 42 41 41 41 41 41 41 40 40 40 40 39 38 37 36 35 34 33 32 31 30 29 29 29 28 28 29
55 56 56 55 54 53 52 51 49 48 47 45 44 43 42 42 42 41 41 40 40 39 38 38 39 39 38 34 31 31 30 29 29 29 29 28 29 29 30 29 29 27 27
57 55 54 53 52 51 49 48 46 45 44 43 42 42 41 41 41 41 40 39 38 38 37 38 37 34 31 31 30 29 28 29 31 30 28 28 29 30 31 31 30 29 29
54 52 52 51 50 49 46 44 42 42 42 41 40 40 39 39 39 38 38 37 37 36 35 33 31 28 30 27 25 20 19 19 18 20 23 27 29 30 30 29 28 30 32
48 48 47 46 45 44 42 41 40 39 38 38 38 37 37 37 38 37 37 36 33 31 28 28 27 25 25 24 22 20 22 23 24 24 25 25 25 26 29 28 26 26 25
44 43 42 42 42 41 40 39 39 38 37 38 38 38 37 37 37 36 34 31 27 24 24 22 22 23 23 21 22 24 24 25 26 27 26 27 27 27 27 27 27 26 26
41 40 40 40 40 39 39 39 39 39 39 37 34 31 30 30 29 27 25 23 22 20 19 19 21 21 20 22 25 25 24 23 25 26 25 24 25 26 26 26 27 29 27
41 41 40 40 40 39 39 39 39 37 34 31 28 26 25 25 25 24 23 22 20 17 18 21 20 20 23 24 23 19 19 21 20 21 19 19 21 21 22 26 28 30 31
40 40 40 39 39 39 38 36 34 32 30 28 26 25 23 22 21 20 19 19 19 18 20 19 20 21 23 22 18 17 19 19 18 17 17 16 17 20 21 25 30 31 32
39 38 37 36 32 30 30 31 30 28 28 28 26 24 22 21 19 19 18 19 19 19 19 19 19 21 21 19 18 18 17 17 16 16 16 16 17 17 19 22 29 30 29
33 30 27 26 26 23 21 23 24 25 25 25 25 25 22 20 18 17 18 18 18 19 19 18 18 15 15 16 16 15 14 14 14 14 14 14 15 15 17 18 25 29 27
26 24 23 23 22 17 16 19 23 23 24 24 23 22 22 20 18 16 16 16 17 17 17 15 12 11 13 14 14 13 12 13 12 13 12 11 13 14 14 16 17 27 26
23 23 22 22 21 20 20 20 20 22 22 22 23 22 20 18 17 15 16 15 16 15 14 13 11 11 12 12 12 11 11 11 12 11 11 9 12 13 13 14 16 19 26
24 24 23 23 23 24 23 23 23 22 21 22 23 19 18 19 17 16 16 16 14 15 15 14 11 12 12 11 11 10 11 9 8 10 9 9 11 9 11 11 13 14 20
23 24 24 24 24 24 24 24 24 23 23 23 22 20 21 18 13 16 16 14 13 14 13 11 13 12 10 10 9 9 7 4 6 8 7 9 7 7 9 11 12 13 14
24 24 24 23 23 23 23 22 22 21 21 20 20 18 14 11 8 10 13 12 12 11 11 12 11 9 8 8 8 7 4 4 6 7 7 7 6 7 8 9 10 10 12
22 22 22 22 21 21 20 20 19 19 18 17 16 14 11 11 10 13 12 12 11 11 11 10 9 8 7 8 5 3 4 4 7 5 6 6 6 6 7 7 8 10 12
21 21 20 20 19 17 17 18 17 17 16 15 15 15 15 14 14 13 12 11 10 11 10 8 7 6 5 3 3 4 5 4 3 4 5 6 6 6 6 6 7 9 10
19 19 18 18 17 16 16 16 15 15 14 14 14 13 13 11 11 10 9 9 9 6 5 3 1 1 3 4 4 5 4 4 6 7 6 6 6 6 6 5 6 7 8
17 16 16 15 15 14 14 13 13 13 12 11 11 10 9 8 7 7 6 5 3 3 0 -1 -1 1 2 1 1 1 4 6 8 8 8 6 6 6 6 6 6 7 8
15 14 14 13 13 12 11 11 10 10 9 9 7 5 7 6 5 2 -1 0 1 -1 -3 -2 -1 -0 -0 0 1 2 5 7 7 6 6 7 7 7 6 6 7 7 8
13 12 12 11 9 9 8 7 6 6 6 6 5 5 4 3 0 -2 -0 -1 -2 -2 -3 -2 -1 -1 -0 1 2 4 5 3 3 5 6 6 6 6 6 7 7 7 8

GFSGL_sfc_30mbdewp_057.txt.gz
Dewpoint
46 46 46 47 49 51 52 54 57 56 56 56 56 56 55 54 51 50 48 47 46 45 45 44 43 43 43 43 42 41 40 38 35 36 34 33 32 31 31 31 34 35 37
49 48 48 49 51 52 53 56 57 57 57 57 57 55 54 53 51 49 47 45 44 44 44 43 42 43 42 41 40 39 38 38 37 36 36 34 33 32 33 33 33 32 33
52 51 52 54 54 54 55 57 58 57 57 57 56 54 52 51 49 48 46 45 44 44 43 42 42 42 40 39 38 38 37 37 37 36 35 35 34 34 34 33 33 33 32
53 53 54 54 55 55 56 57 58 58 57 55 54 53 51 49 48 46 44 44 43 43 43 42 42 41 40 39 38 37 37 36 35 33 33 32 32 32 32 30 29 30 30
53 53 53 55 57 57 57 57 58 56 55 54 52 51 49 47 45 43 43 43 42 42 42 41 41 41 40 39 38 36 33 30 29 29 28 28 28 28 28 29 29 30 30
54 54 55 56 57 57 57 56 55 53 52 51 49 48 47 45 43 42 42 42 42 41 40 40 40 40 34 32 31 31 30 28 27 27 26 24 25 26 28 28 28 25 24
55 55 55 57 57 56 54 52 51 50 48 47 46 45 44 43 42 41 41 41 40 40 39 38 35 31 31 30 28 25 22 22 26 24 19 21 22 24 27 26 24 24 23
55 55 55 55 53 51 50 49 46 46 46 45 44 44 43 42 41 40 40 39 38 37 36 35 30 29 27 25 21 17 18 21 22 22 21 21 23 24 26 25 25 26 25
54 54 53 52 50 49 47 45 45 44 43 43 42 41 41 40 40 38 37 35 33 30 28 27 25 23 24 22 20 19 23 24 25 25 27 27 27 28 28 28 26 25 23
51 50 49 49 47 46 45 43 42 42 40 39 38 38 38 38 37 36 34 31 28 25 23 22 22 22 21 21 24 24 23 22 22 23 25 25 25 25 26 27 27 24 24
47 46 46 46 45 44 41 40 39 39 37 34 32 32 33 34 34 34 31 28 25 22 19 18 20 20 21 24 25 22 20 21 19 20 21 19 20 20 21 22 22 24 24
42 42 42 41 41 40 39 39 38 36 33 30 29 27 26 26 27 26 24 22 21 19 17 19 19 21 23 24 20 18 18 18 18 18 17 16 16 17 18 19 21 21 24
41 40 40 39 39 39 38 37 35 33 31 29 27 25 22 21 22 22 20 19 18 18 19 19 20 22 22 20 17 17 17 17 16 15 15 14 15 15 17 17 19 20 23
40 39 38 35 34 33 33 33 32 31 30 28 25 23 20 19 18 18 19 19 19 19 19 20 20 21 19 18 18 17 15 15 15 14 14 14 13 14 15 16 16 17 19
36 32 31 28 27 26 26 26 27 27 29 27 25 23 21 20 19 19 20 20 20 21 21 19 15 15 14 16 15 14 13 13 12 12 13 11 10 11 13 14 14 16 16
30 29 27 24 23 22 21 22 26 27 27 27 26 24 22 20 19 19 22 21 19 20 18 14 12 11 12 13 13 12 11 11 10 10 10 10 8 10 10 10 12 14 15
27 25 23 22 21 20 20 20 21 23 24 23 22 21 21 21 21 18 17 16 16 15 14 13 10 11 12 11 11 10 9 10 8 7 10 8 8 9 6 8 10 12 12
25 25 24 23 23 22 22 23 23 22 21 22 23 23 22 20 19 20 20 19 16 16 16 13 12 13 11 9 9 8 8 6 5 6 8 7 7 7 5 6 8 10 10
25 25 25 26 26 26 25 25 24 24 23 22 21 22 23 21 20 20 20 17 16 15 14 14 13 11 10 8 8 8 6 3 3 4 5 5 5 5 4 5 7 7 9
24 24 24 24 23 23 23 23 22 22 21 21 20 18 17 16 14 14 14 14 14 13 13 12 12 10 8 8 7 5 3 3 4 5 4 3 3 4 4 5 5 5 7
22 22 22 21 20 20 20 19 19 19 18 17 16 16 16 15 14 14 14 12 12 12 11 10 9 7 7 6 4 3 3 2 2 3 2 4 3 3 5 5 5 5 7
20 19 18 17 17 17 18 18 17 17 16 15 15 15 15 14 14 13 12 10 10 10 9 8 6 4 3 3 3 2 1 1 1 1 3 4 5 5 5 4 4 4 5
18 17 16 16 16 16 15 15 14 14 13 13 13 12 11 10 9 8 8 7 7 5 5 2 -0 -1 0 1 0 1 0 1 3 5 4 4 4 4 4 4 4 4 4
15 15 14 14 13 13 12 11 12 11 11 10 9 8 8 7 6 5 3 2 2 1 -1 -3 -3 -2 -1 -2 -2 -1 1 4 5 6 5 3 3 4 4 4 4 4 4
13 13 12 11 10 10 9 8 7 7 7 7 5 5 5 5 3 -1 -2 -1 -1 -3 -3 -4 -3 -2 -2 -2 -2 -1 1 4 3 2 3 3 3 3 4 4 4 5 5
9 8 7 7 6 5 4 3 3 4 4 4 3 2 2 1 -1 -2 -1 -2 -3 -3 -4 -4 -3 -3 -3 -2 -1 2 2 -0 -0 1 2 2 2 3 4 4 5 5 5

GFSGL_sfc_30mbdewp_060.txt.gz
Dewpoint
48 48 49 48 48 49 49 50 51 52 55 55 55 56 56 55 55 54 52 51 51 49 47 47 46 44 43 43 43 42 41 40 38 37 35 34 34 34 34 34 33 34 35
48 47 47 48 48 48 48 49 51 52 55 55 56 56 57 55 53 52 51 50 49 48 46 45 44 44 43 43 41 40 39 38 37 35 36 35 35 35 34 34 34 33 33
49 47 47 47 47 48 48 49 51 53 55 56 56 56 56 54 53 52 51 50 48 47 45 45 44 43 42 41 40 38 38 38 37 36 35 35 34 34 33 32 32 32 32
49 49 48 48 48 48 50 52 53 55 54 55 56 56 56 53 52 51 50 48 46 46 45 44 44 43 42 40 38 37 36 35 34 32 31 31 31 31 30 28 26 29 29
51 50 50 50 50 52 53 54 55 55 55 55 56 55 53 51 50 49 48 46 45 44 44 43 43 42 41 40 38 36 34 31 29 28 27 27 26 26 23 25 25 25 25
52 52 51 52 52 53 55 55 56 56 56 57 55 53 51 50 48 47 46 45 44 43 42 42 42 41 38 36 33 31 30 28 27 25 24 20 17 21 23 24 24 24 20
52 52 52 53 53 54 55 56 56 56 55 53 51 50 49 47 45 44 43 43 42 42 41 40 36 33 33 31 29 25 20 20 24 22 17 18 21 22 23 24 25 24 24
53 53 53 54 54 55 56 55 54 52 51 49 48 47 46 44 42 42 41 41 40 40 39 35 32 30 28 25 20 17 19 21 23 23 23 24 24 25 27 26 26 25 25
53 54 54 55 55 53 52 50 48 47 47 45 45 44 43 40 40 39 39 36 34 32 30 30 28 25 25 23 17 17 22 24 24 22 22 24 25 25 23 25 23 22 20
53 54 54 54 51 50 48 47 46 45 42 41 40 41 40 38 38 37 35 31 29 26 24 24 24 22 22 24 23 22 20 21 18 17 19 21 21 21 20 22 23 21 20
50 50 50 50 49 47 44 43 42 39 36 34 33 33 34 36 35 34 32 30 27 24 20 19 20 21 23 26 24 21 20 18 16 16 16 17 18 17 17 18 19 20 19
47 46 45 44 43 41 40 39 37 34 32 31 29 28 28 29 30 30 29 27 25 22 19 18 21 23 25 23 20 19 18 17 17 15 15 14 14 14 14 15 17 18 20
43 42 41 41 40 40 38 36 34 33 31 30 28 25 24 24 24 23 22 21 20 18 20 20 22 24 22 19 18 18 16 16 15 14 13 13 13 12 12 15 16 17 17
41 39 37 36 35 35 35 34 33 32 30 29 27 24 21 20 20 21 20 19 20 20 21 22 23 21 19 19 17 16 15 14 13 13 11 12 12 10 10 13 13 13 15
36 34 32 31 30 29 28 29 30 31 31 29 27 24 21 19 18 19 19 19 22 22 22 19 17 16 15 16 15 13 13 12 11 11 10 9 9 8 8 10 8 11 12
32 30 29 28 27 27 27 26 29 29 27 26 25 24 23 23 23 23 23 23 22 22 19 15 13 12 13 13 13 12 11 11 10 8 7 8 7 6 7 6 7 8 10
29 26 25 25 24 23 24 23 21 25 27 27 26 25 24 24 23 21 20 18 17 16 15 14 11 11 13 12 12 11 10 10 9 6 6 7 6 5 6 5 5 6 7
25 25 25 25 25 24 24 24 24 22 21 22 25 24 23 21 21 22 20 20 18 19 17 14 13 13 13 12 11 9 8 8 5 4 6 6 5 4 4 4 4 5 5
26 26 26 26 26 26 26 25 24 23 21 21 22 22 22 22 22 21 21 18 16 16 16 15 14 13 12 11 10 8 8 5 4 4 3 4 3 3 3 3 4 4 4
24 24 24 23 23 23 23 22 22 21 21 20 19 16 17 17 15 15 15 15 15 14 14 13 13 11 10 9 8 6 4 4 3 4 4 2 1 1 1 2 4 4 3
20 20 20 20 19 19 19 19 18 18 17 15 15 16 16 15 14 14 13 12 12 12 11 11 9 8 7 6 4 4 3 2 1 1 1 1 1 1 3 4 4 4 3
18 18 18 17 17 16 16 16 15 15 15 14 14 13 13 12 12 10 9 8 9 9 8 7 5 3 3 2 2 1 0 -1 -1 -1 -0 1 3 3 3 3 3 3 3
16 16 15 15 14 14 13 13 12 12 11 11 10 9 9 8 8 7 6 4 4 3 1 -0 -2 -2 -1 -2 -2 -2 -3 -1 -0 2 2 2 2 2 2 2 2 3 3
14 13 12 12 11 10 10 9 10 9 8 7 7 6 6 4 3 1 -1 -1 -1 -2 -4 -4 -4 -3 -3 -3 -3 -3 -2 -0 2 3 3 1 1 1 2 2 3 3 4
10 9 8 7 6 5 4 4 4 4 4 3 3 2 2 2 -0 -2 -3 -3 -3 -4 -4 -4 -5 -4 -4 -4 -4 -4 -3 0 2 0 0 1 0 0 1 2 2 3 4
6 5 5 4 3 1 0 -0 -0 -0 -0 -1 -2 -2 -1 -1 -2 -3 -4 -4 -3 -4 -4 -5 -5 -6 -6 -5 -4 -2 -1 -3 -2 -1 -0 -0 -1 -1 1 2 2 3 3

GFSGL_sfc_30mbdewp_063.txt.gz
Dewpoint
51 51 50 50 50 51 51 52 52 51 51 51 51 51 51 52 55 56 56 56 54 55 53 52 52 50 48 47 46 45 43 42 41 39 38 37 37 37 38 38 37 36 35
51 51 51 51 50 50 50 50 52 52 52 51 52 52 53 54 55 55 55 54 52 52 51 50 50 48 47 46 44 42 42 41 39 38 37 37 37 37 37 35 33 30 31
50 50 50 51 51 50 50 50 50 51 51 52 52 53 53 53 54 55 55 53 52 52 51 50 49 47 46 44 42 41 40 39 39 37 36 37 36 34 32 32 31 29 25
49 48 48 49 50 50 50 50 50 51 51 51 53 53 53 54 55 55 53 52 51 51 50 49 47 46 44 43 42 40 40 37 37 36 34 33 32 31 30 26 18 17 18
49 48 48 49 49 49 49 50 50 50 51 51 52 53 55 55 55 55 53 52 50 48 47 47 45 45 44 42 41 38 37 35 32 31 29 29 28 26 20 14 18 18 20
50 49 49 50 49 49 49 49 50 51 51 52 53 54 55 55 54 52 53 51 49 46 45 44 43 43 41 40 38 37 36 31 29 29 27 25 21 16 16 20 20 19 15
51 51 51 50 51 51 51 51 52 53 54 54 55 55 56 54 51 49 48 48 46 45 43 41 39 37 36 34 32 30 27 25 26 25 20 16 16 19 23 22 20 20 19
51 51 52 52 52 52 53 53 54 55 55 55 55 53 53 50 47 45 45 44 43 42 41 38 35 34 32 29 25 20 19 21 22 21 22 22 24 24 25 23 21 21 20
52 52 52 53 53 53 54 54 54 53 52 50 49 48 47 44 42 42 41 39 36 35 34 33 32 30 29 26 22 22 21 23 24 21 21 22 23 23 22 20 18 16 17
51 52 53 54 54 54 52 51 48 48 45 43 42 43 42 39 38 38 37 34 31 30 29 29 27 28 28 24 22 20 19 20 18 15 16 17 19 20 20 18 17 17 16
53 53 53 53 53 51 48 46 44 41 38 36 35 35 36 37 36 35 35 33 29 27 25 24 24 25 25 25 23 21 20 17 17 16 15 15 16 16 16 15 15 16 16
51 50 48 47 46 45 43 40 38 36 33 32 31 30 30 32 33 33 32 30 28 25 21 21 24 25 25 22 21 20 19 19 17 15 13 12 12 12 12 11 12 14 16
45 43 42 42 41 40 38 36 34 33 32 30 29 27 26 27 28 29 27 25 23 21 21 23 24 24 21 21 20 18 17 16 14 13 12 11 11 11 10 11 12 14 13
41 40 39 37 36 36 35 34 33 32 31 29 28 26 24 23 22 21 21 21 22 22 23 24 24 23 21 19 18 16 15 13 12 12 11 10 11 11 9 8 10 9 9
37 35 34 32 31 30 29 31 31 32 32 30 28 26 24 21 20 20 20 21 23 23 23 21 20 19 18 17 16 14 13 12 11 11 10 9 8 8 7 7 8 7 8
34 33 32 31 29 28 28 27 29 28 27 27 26 25 25 25 25 25 25 24 23 22 20 18 17 17 16 14 13 12 12 12 12 12 11 8 6 6 5 5 6 6 6
29 29 28 28 28 26 25 24 23 26 27 27 27 26 25 25 25 25 25 24 22 22 19 18 17 16 16 16 15 14 13 13 12 9 7 6 6 6 5 5 5 5 5
27 27 26 26 25 25 24 24 23 22 21 22 25 25 25 25 24 24 22 20 19 19 17 16 15 15 14 13 12 10 9 10 9 7 5 5 6 5 4 4 4 4 5
25 25 25 25 25 26 25 24 23 23 22 21 21 22 23 23 22 21 20 18 16 15 15 14 14 13 11 10 10 9 9 8 7 5 4 4 5 4 3 3 4 4 4
22 22 23 23 23 23 23 23 23 22 21 19 18 18 18 17 16 16 16 16 15 14 13 12 11 11 10 9 9 8 6 5 4 3 3 3 4 4 3 3 3 4 3
20 20 20 20 20 20 20 19 19 18 16 15 15 16 15 14 14 13 12 12 12 11 10 10 9 8 7 6 5 5 4 3 2 2 1 2 3 3 2 3 4 3 3
19 18 17 17 16 16 16 16 16 15 15 13 12 12 12 12 11 10 9 9 9 8 7 6 5 4 4 3 2 2 1 0 1 1 1 1 2 2 2 3 3 3 3
16 15 14 14 13 13 13 12 12 11 11 10 10 9 8 8 7 6 5 5 5 4 4 3 2 1 1 1 1 -0 -1 -1 -0 1 1 1 1 1 2 2 2 2 3
12 12 10 10 10 9 9 9 8 7 6 7 7 6 6 5 4 3 3 3 2 2 1 -0 -1 -2 -3 -3 -2 -2 -2 -1 -0 0 1 0 -0 0 1 1 2 2 3
8 7 7 6 6 6 5 4 4 4 4 4 4 4 3 3 2 2 1 0 -1 -1 -2 -2 -2 -3 -4 -4 -4 -4 -3 -2 -1 -1 -1 -0 -0 -0 0 1 1 2 3
4 4 3 3 2 2 1 1 1 1 1 1 1 1 1 -0 -1 -1 -2 -2 -3 -3 -3 -3 -3 -4 -5 -5 -6 -5 -5 -5 -4 -4 -2 -1 -1 -0 1 1 1 2 2

GFSGL_sfc_30mbdewp_069.txt.gz
Dewpoint
51 53 54 54 54 54 53 53 53 54 54 53 54 53 53 52 52 52 51 52 52 53 54 54 55 57 57 57 57 56 55 54 51 51 49 50 46 44 40 41 42 42 40
50 51 53 54 54 54 54 53 53 53 54 53 53 53 52 52 52 51 51 51 51 52 52 53 55 56 56 56 55 54 53 53 52 50 49 47 44 43 40 40 40 40 40
49 50 52 53 54 54 54 54 54 53 53 53 51 51 51 51 52 52 52 52 52 52 52 53 55 56 55 54 54 53 52 52 52 50 48 42 43 41 41 42 40 40 37
48 49 51 53 53 54 54 54 54 54 53 53 52 51 52 51 51 51 51 52 52 52 53 53 55 54 53 53 53 52 51 50 48 46 44 42 40 39 39 36 36 36 33
49 48 49 52 53 53 54 54 54 54 54 53 53 53 53 53 52 52 52 52 51 51 53 54 54 54 53 53 53 51 49 47 45 43 41 37 37 36 34 34 31 31 27
50 50 49 51 51 52 53 54 54 54 54 53 53 53 53 53 51 50 51 53 52 53 53 54 53 52 52 51 51 50 47 45 43 42 40 38 35 34 34 33 26 22 21
51 51 50 51 51 52 53 53 53 54 54 54 53 53 53 54 52 50 49 52 53 53 53 54 54 53 51 49 44 42 37 40 40 40 36 35 34 34 32 27 23 22 21
49 50 50 51 51 51 52 52 53 53 54 54 54 54 54 53 52 50 49 52 53 53 53 54 52 46 45 42 37 32 30 30 29 29 31 29 30 28 26 24 23 22 23
48 50 49 50 50 51 51 52 53 53 53 53 54 54 53 53 51 49 49 52 50 43 42 43 41 38 37 34 31 30 30 29 31 31 30 30 29 27 24 23 21 17 20
42 47 49 50 50 50 52 52 53 53 53 54 51 48 47 51 45 47 47 43 38 35 33 34 34 34 33 34 33 30 27 26 26 25 23 18 17 22 17 17 16 17 18
47 46 48 49 50 51 51 53 54 53 47 43 41 38 38 38 37 39 39 37 33 31 30 30 31 32 32 32 31 29 27 27 26 23 18 18 18 18 17 17 15 14 16
51 50 49 49 50 52 52 49 47 44 40 37 34 32 32 33 34 34 34 33 32 29 28 29 30 29 29 28 28 27 26 26 26 25 16 13 13 13 14 14 13 13 13
43 43 42 41 40 40 41 40 39 38 37 34 31 29 28 29 30 31 30 30 29 28 28 28 27 26 25 25 25 26 27 26 24 21 18 18 20 16 14 14 17 18 16
35 35 35 34 33 34 34 35 35 34 32 31 29 27 26 26 27 28 28 29 28 27 26 26 26 25 24 24 24 26 24 23 24 24 21 18 17 18 18 17 17 15 15
32 32 32 31 29 28 28 30 30 31 32 29 28 26 25 24 26 27 27 27 26 25 26 26 25 25 24 25 24 23 20 17 17 18 19 19 18 16 16 16 15 13 13
31 30 30 29 28 27 26 26 28 28 28 27 27 26 27 28 28 28 28 28 28 29 28 26 26 27 25 23 22 19 18 17 17 15 15 15 14 14 14 13 12 11 12
29 29 28 27 26 25 24 23 22 26 28 28 28 28 27 27 27 26 26 26 28 28 26 25 25 24 23 22 21 18 18 16 14 15 14 13 13 12 12 12 11 11 10
28 27 26 26 26 25 24 24 23 22 21 23 26 26 26 25 25 25 26 26 23 23 22 21 20 20 17 16 16 16 16 15 15 12 11 11 11 11 10 9 9 9 8
26 27 26 26 26 25 24 24 23 22 21 21 22 23 24 24 24 24 24 23 21 20 20 18 17 16 14 15 14 14 12 13 10 11 10 11 12 9 7 7 7 7 7
26 26 26 26 26 26 25 24 22 21 20 20 21 22 23 20 19 18 19 19 17 17 16 13 13 13 13 12 10 11 9 7 7 6 6 6 7 8 7 6 7 7 5
24 24 23 23 23 23 23 22 21 20 18 17 18 19 19 17 15 15 14 14 13 12 11 10 10 9 8 7 5 6 5 5 5 4 4 5 6 4 4 4 7 8 6
21 21 20 19 19 19 19 19 18 18 17 16 16 16 15 14 12 11 10 10 10 8 7 7 7 5 5 5 4 4 3 3 3 4 4 3 2 2 4 4 5 6 5
18 17 17 17 16 15 15 16 16 14 14 13 12 10 10 9 9 8 8 8 7 7 6 5 4 3 4 3 3 3 2 2 3 3 2 1 1 2 3 3 3 5 6
14 13 11 11 11 12 12 11 9 8 9 9 9 8 7 7 7 6 6 5 5 5 5 4 3 2 0 1 2 1 0 1 1 0 0 2 2 1 2 3 2 3 4
10 9 9 9 9 9 8 7 7 7 7 7 7 6 5 5 4 5 4 3 2 2 2 2 2 1 0 -1 -1 -1 0 -0 -2 -3 -2 -1 0 1 1 2 3 3 4
6 6 7 7 7 7 7 6 6 5 5 5 5 5 4 3 3 3 2 1 -0 -1 0 1 0 -0 -1 -1 -1 0 -3 -4 -4 -4 -3 -2 -1 0 2 3 3 3 3

GFSGL_sfc_30mbdewp_072.txt.gz
Dewpoint
55 55 55 55 55 55 54 53 53 55 55 53 53 53 53 52 52 52 52 52 52 51 52 53 54 56 56 56 56 57 55 54 53 53 53 53 52 51 46 45 44 44 42
54 55 55 55 55 55 55 54 55 54 55 54 53 53 52 52 52 52 52 51 51 50 50 52 53 54 55 56 57 57 56 56 54 52 52 51 51 50 46 44 45 44 42
52 53 55 55 55 55 55 55 54 54 54 54 53 52 52 52 52 52 51 51 51 50 51 51 51 52 53 55 56 55 55 55 54 53 52 50 49 47 44 42 42 42 42
50 51 53 55 55 55 55 55 54 55 53 53 54 53 53 53 52 52 51 51 51 51 51 52 52 52 52 55 55 55 54 53 53 52 51 45 45 43 44 42 42 41 41
50 49 51 53 55 55 55 55 55 54 54 53 53 53 53 53 52 52 52 52 52 52 52 52 52 52 52 55 55 54 53 52 51 50 49 43 42 40 42 42 41 39 40
50 49 50 51 53 54 55 55 55 55 55 54 54 53 53 52 50 49 50 51 51 51 51 52 52 51 53 53 53 52 53 52 50 49 47 44 43 40 38 37 36 34 32
51 51 51 50 51 53 54 54 54 55 55 55 54 54 54 53 52 50 49 51 52 52 52 52 52 53 53 52 49 46 40 39 45 47 44 39 36 36 36 33 32 32 32
51 51 52 52 51 51 53 53 54 54 54 54 54 54 54 54 53 52 50 50 51 52 52 53 53 53 52 51 42 35 32 32 34 35 34 33 34 35 34 33 32 32 32
49 50 51 52 52 51 51 52 53 53 54 54 54 54 54 54 53 51 50 50 51 47 44 43 46 46 44 39 35 32 30 29 32 32 32 32 32 32 32 32 30 29 27
51 52 52 52 52 51 52 52 53 53 53 54 53 47 45 49 44 48 47 47 43 38 34 34 36 36 35 35 33 30 27 26 26 26 26 27 28 27 25 27 26 22 21
47 46 45 46 49 52 53 53 53 53 48 43 40 36 37 37 38 41 42 42 37 33 31 31 32 33 33 32 30 28 26 27 27 26 26 27 28 29 27 17 17 18 18
39 38 37 37 38 41 46 45 46 45 42 39 36 33 32 33 34 36 36 34 32 30 29 29 30 31 30 28 28 28 27 27 27 26 26 25 22 17 19 19 18 18 18
35 33 32 31 30 32 34 36 37 38 37 35 33 29 28 30 31 32 31 31 30 28 28 28 28 27 27 27 28 28 28 27 27 26 25 25 25 19 18 18 20 20 19
33 32 30 29 28 27 28 30 31 32 32 30 29 27 26 27 28 28 28 27 27 26 26 25 24 25 25 26 25 25 25 25 25 23 23 24 24 23 21 20 20 18 17
32 30 29 28 26 26 26 27 28 29 30 27 26 26 25 25 27 28 26 25 25 26 26 26 25 25 24 24 24 24 24 24 22 22 20 18 18 17 17 17 17 17 14
29 28 28 27 26 25 24 25 28 29 29 29 28 27 28 29 29 29 29 29 29 29 28 27 26 25 24 24 23 22 22 19 18 18 17 17 16 16 15 14 14 15 15
28 27 26 26 25 24 24 23 22 25 27 27 28 28 28 28 28 28 28 28 28 27 23 22 22 21 21 21 20 20 18 17 18 16 15 14 14 13 13 12 12 13 13
26 26 25 25 25 24 24 23 23 21 20 21 25 25 26 26 27 27 26 24 21 22 21 20 19 19 19 18 18 16 15 16 12 11 12 13 13 12 10 10 9 9 9
26 26 26 25 25 25 24 23 23 22 21 21 22 21 22 22 22 22 21 20 19 18 18 17 17 17 17 16 16 14 14 12 13 10 11 10 9 9 9 9 8 7 8
24 25 26 25 24 23 22 20 20 19 18 18 19 19 20 18 16 16 17 17 16 16 16 14 14 13 13 11 12 11 9 9 8 8 6 7 8 7 7 6 6 7 7
24 23 22 22 22 22 21 19 18 17 17 16 17 18 18 15 15 14 14 13 13 12 12 12 11 10 9 8 8 8 7 7 6 6 7 6 4 4 5 6 7 7 6
22 21 20 19 20 20 20 19 19 17 17 16 15 14 14 13 12 12 12 11 10 9 9 10 9 9 8 7 6 6 5 5 6 6 5 4 4 4 5 6 5 4 4
17 16 17 18 16 15 15 15 16 15 14 13 12 12 11 10 10 10 9 10 10 10 8 7 6 6 3 5 7 5 4 6 5 2 2 2 3 4 4 4 5 4 4
14 14 13 12 12 12 12 12 11 10 12 12 11 10 10 10 10 9 8 6 6 7 5 4 6 2 2 2 1 1 4 3 0 1 -1 -1 0 1 2 3 3 3 4
12 11 12 12 12 11 11 10 11 11 10 10 9 9 8 9 7 8 6 6 3 2 3 5 3 2 1 -0 1 2 -2 -3 -4 -3 -2 -0 -0 -1 0 3 4 6 5
9 9 10 10 10 10 10 9 9 8 8 8 8 8 8 6 4 6 5 -0 -1 1 2 2 3 -0 -0 2 1 -2 -3 -3 -2 -1 -1 -1 -1 -0 1 3 3 2 3

GFSGL_sfc_30mbdewp_075.txt.gz
Dewpoint
55 56 56 55 55 55 54 54 53 51 51 53 54 55 55 54 53 52 52 52 52 52 53 53 53 53 53 54 54 54 54 54 51 51 53 53 52 52 52 52 51 49 48
55 55 55 55 56 55 54 53 54 54 53 53 54 53 55 54 53 52 51 50 51 51 51 52 52 53 53 54 54 54 54 54 53 51 52 53 52 53 53 49 48 46 45
55 54 54 54 54 54 55 54 53 53 55 55 54 53 53 53 52 52 51 51 51 52 52 51 52 53 53 54 54 54 55 55 55 54 52 53 53 51 51 48 47 47 45
55 54 54 54 54 54 54 55 55 54 53 54 55 53 53 53 52 51 51 51 51 51 52 51 51 50 51 52 53 54 55 55 55 54 53 53 51 49 50 50 45 46 45
52 54 54 55 55 55 54 55 55 55 54 54 54 54 53 52 52 52 51 51 51 51 51 51 51 51 51 51 52 53 54 55 54 53 52 52 47 42 45 47 47 46 41
51 51 52 54 55 55 55 55 55 55 54 54 54 54 54 53 52 50 51 51 51 51 51 51 51 50 50 50 50 51 53 54 53 52 51 50 50 47 46 43 39 37 36
51 51 50 51 54 55 55 55 55 55 55 54 54 54 53 54 52 51 50 52 52 52 52 52 52 52 51 51 48 45 43 41 43 50 51 50 46 39 38 35 34 33 32
52 53 53 52 51 52 54 55 55 55 55 55 55 54 54 54 53 51 49 49 51 51 51 51 52 52 51 51 46 40 35 34 35 37 39 35 35 36 35 34 33 32 32
47 47 47 48 49 53 52 53 54 54 54 55 55 55 55 55 53 52 50 51 51 51 47 45 48 50 50 47 42 35 30 29 33 33 33 32 33 33 34 32 31 30 27
42 42 41 41 43 45 49 50 54 54 54 54 54 51 48 52 47 49 49 50 49 44 38 37 39 42 41 38 37 32 28 27 27 28 28 28 28 29 31 31 30 27 27
38 38 37 36 37 38 42 42 43 48 52 48 44 38 36 36 38 41 44 46 45 37 34 32 33 35 34 33 32 30 28 27 27 27 27 28 28 28 28 28 28 27 26
35 33 32 32 33 33 34 36 37 37 37 35 33 31 31 31 32 33 34 34 33 31 29 30 30 31 30 29 29 29 28 28 27 26 25 25 25 25 25 26 25 23 21
32 31 30 28 29 30 30 30 31 33 33 31 30 29 29 29 29 30 30 29 29 28 28 29 29 28 28 27 28 28 28 27 26 25 24 23 24 25 26 26 26 25 23
31 29 28 27 27 27 28 28 28 29 28 28 27 26 26 27 27 27 26 26 25 25 25 26 26 25 25 24 25 25 25 24 23 23 22 23 24 23 22 23 21 19 17
29 28 27 26 25 26 27 27 27 28 27 26 26 26 25 25 27 27 26 26 26 26 26 26 25 24 22 22 23 22 22 22 20 21 20 20 20 19 18 16 16 16 15
27 26 26 26 25 24 23 24 28 28 28 29 28 27 29 30 30 30 30 29 29 29 25 23 22 22 21 21 19 18 19 20 20 18 18 17 15 14 12 13 13 14 14
26 26 25 25 24 23 22 21 20 22 24 26 28 28 28 28 28 27 26 26 25 23 21 20 19 19 19 18 18 17 16 16 15 14 14 14 14 13 11 11 11 10 9
25 26 25 24 23 23 22 21 20 19 19 19 23 24 25 25 25 24 23 21 18 19 18 17 17 17 17 16 15 15 14 14 14 13 12 10 10 10 10 9 8 7 8
25 25 24 23 22 21 21 20 19 19 19 19 18 18 19 20 19 19 19 17 16 15 15 15 15 15 14 13 12 12 11 9 9 8 8 8 6 7 6 6 6 6 7
22 23 23 22 21 19 18 17 17 17 16 16 15 16 16 15 13 13 14 13 13 14 13 12 11 10 10 10 9 9 8 8 7 8 6 4 3 4 4 5 6 7 7
21 20 21 21 20 20 18 17 16 15 14 14 14 15 14 12 12 11 10 9 10 10 10 10 9 9 8 8 7 6 5 6 5 4 3 3 2 3 4 5 5 4 5
20 19 18 17 17 17 17 16 15 14 14 12 11 10 11 10 10 9 9 9 8 8 8 8 6 5 6 6 5 4 4 3 1 0 0 1 2 3 3 3 3 3 4
15 14 15 16 15 13 12 13 14 12 11 10 10 9 8 7 6 6 6 7 7 4 5 4 2 2 2 -0 -0 3 2 1 -0 -2 -3 -3 -1 -0 1 1 1 1 1
14 14 13 13 12 12 12 12 11 11 10 10 9 9 8 8 7 4 2 1 1 2 3 4 2 1 -1 -2 -1 2 -1 -4 -4 -5 -5 -4 -3 -0 -2 -1 0 1 3
11 11 11 11 10 10 9 8 8 8 7 7 7 7 7 5 6 2 -1 -2 -1 2 4 4 1 0 -1 0 -1 -3 -4 -4 -5 -4 -4 -4 -4 -4 -3 -1 1 3 1
8 7 8 8 7 7 5 3 4 6 5 1 2 5 2 1 2 1 -2 -1 -1 -1 -2 -2 -1 1 1 1 -1 -2 -2 -2 -3 -5 -5 -4 -4 -4 -3 -3 -3 -1 1

GFSGL_sfc_30mbdewp_078.txt.gz
Dewpoint
55 56 55 55 55 54 53 51 49 49 52 53 54 55 55 56 55 55 55 54 54 54 54 53 53 53 53 53 53 52 52 52 49 49 50 51 51 51 52 52 52 52 52
55 55 55 55 55 55 54 54 52 49 50 52 53 54 54 54 54 54 54 53 53 53 53 53 53 53 52 52 52 52 52 52 51 49 50 51 52 53 52 52 52 52 52
55 55 55 55 55 55 54 55 54 52 51 50 52 52 53 54 54 53 53 52 51 52 52 52 52 52 52 52 52 52 52 52 52 52 51 52 52 53 52 52 52 52 50
55 55 54 55 55 55 55 55 54 54 54 53 52 52 52 52 54 53 53 52 51 50 50 51 51 51 51 51 51 52 52 52 53 53 52 52 53 53 52 52 50 50 50
54 54 54 54 54 54 54 54 55 54 53 53 54 54 53 53 53 53 53 52 51 51 50 51 52 52 51 51 51 51 52 51 51 51 51 52 52 48 49 51 49 51 44
53 54 55 54 54 54 54 53 53 54 55 54 53 54 54 54 53 52 52 52 51 51 50 50 51 50 50 49 48 49 50 51 51 51 51 51 51 52 51 49 50 42 41
53 53 53 54 55 55 54 54 53 54 55 54 54 54 53 54 53 51 50 52 52 51 51 51 51 51 50 50 49 47 46 46 47 50 51 51 52 52 51 42 40 38 36
45 46 46 46 48 51 55 55 55 54 55 54 54 54 54 54 53 52 50 51 51 52 52 52 51 51 51 51 50 48 44 38 38 39 41 41 38 38 40 38 35 32 32
41 41 42 43 44 46 48 48 53 55 55 55 55 54 54 54 50 50 50 51 52 52 52 52 52 52 52 51 50 44 35 31 33 33 32 32 32 33 35 34 32 32 28
36 36 36 37 39 41 42 43 43 46 51 54 46 38 35 38 34 37 41 49 51 51 46 40 38 41 45 47 49 40 34 28 28 28 28 29 29 29 30 30 31 29 27
32 31 30 31 33 34 36 38 39 41 38 36 33 32 31 31 32 33 34 38 42 41 35 32 32 33 32 32 32 31 28 28 28 27 27 27 27 26 27 27 27 27 26
30 28 28 28 28 29 30 32 35 35 34 32 31 29 28 28 29 30 31 31 31 30 29 29 30 30 30 29 29 29 29 28 27 26 24 23 23 24 25 26 27 26 27
28 27 27 27 27 28 28 28 29 31 30 29 28 28 27 27 27 27 28 28 28 27 27 28 28 28 27 27 27 27 27 26 25 23 22 22 24 25 26 25 25 26 25
28 26 26 26 26 27 27 27 27 27 27 27 27 26 26 26 26 26 26 26 26 26 25 25 25 25 24 24 23 23 23 23 22 21 21 22 23 21 20 22 20 19 18
26 26 26 25 24 24 25 26 27 28 28 26 26 26 25 25 27 28 27 26 26 26 25 24 22 22 20 20 20 21 21 21 20 20 19 18 18 17 15 16 16 16 15
25 25 25 24 23 23 22 23 26 27 28 28 28 27 28 28 28 28 28 27 26 24 21 20 20 19 18 18 18 17 17 17 17 17 16 16 14 14 13 12 12 11 10
24 24 23 23 23 22 21 21 20 20 21 24 25 25 26 26 25 24 23 23 23 20 18 17 16 16 16 17 16 15 15 16 17 14 12 12 11 11 11 9 8 8 7
22 22 22 22 21 21 20 20 19 17 16 16 19 21 22 22 22 22 20 17 16 16 16 15 15 15 15 15 14 13 13 12 11 10 9 9 9 9 8 7 7 7 7
22 22 21 20 19 18 18 17 17 16 15 15 15 15 17 17 16 16 16 15 14 13 13 12 12 12 11 11 11 10 9 9 8 7 6 5 4 5 5 6 6 6 6
20 20 20 18 18 17 16 16 15 15 14 13 13 13 13 11 10 10 10 10 10 11 11 10 9 9 8 8 8 8 7 6 5 4 2 1 2 4 4 4 4 4 5
18 18 18 18 18 18 17 15 14 13 12 11 11 12 11 9 8 8 8 7 8 8 8 6 5 6 6 5 5 3 2 1 1 0 0 1 1 2 3 3 3 3 4
17 17 16 15 15 15 15 14 13 12 10 9 9 9 8 8 7 7 6 5 5 6 5 3 4 4 2 3 2 1 -1 -2 -3 -3 -3 -2 -1 -1 -0 -0 -1 -1 1
14 13 13 13 13 12 12 12 11 10 9 9 8 7 6 5 5 4 4 3 3 2 1 0 -0 -2 -2 0 1 -1 -2 -3 -5 -6 -6 -6 -3 -2 -3 -3 -1 -0 1
12 11 11 10 10 9 9 9 8 8 7 7 7 7 6 3 0 -2 -2 -0 1 2 2 0 -1 -2 -1 -2 -2 -2 -3 -6 -6 -5 -5 -5 -5 -4 -4 -3 -1 -0 1
9 8 7 7 6 5 5 5 4 3 4 4 4 3 3 3 -1 -3 -3 -2 -1 -1 -0 -1 -0 -0 -1 -2 -2 -4 -4 -3 -3 -4 -5 -5 -5 -5 -5 -3 -3 -3 -2
7 7 6 5 4 2 2 3 2 1 0 1 1 -1 -1 -1 -2 -4 -3 -4 -4 -4 -3 -1 1 -0 0 0 -1 -2 -2 -4 -6 -7 -7 -6 -7 -7 -6 -6 -4 -3 -1

GFSGL_sfc_30mbdewp_081.txt.gz
Dewpoint
56 56 55 55 55 54 53 52 51 51 52 54 55 55 55 55 55 55 55 54 54 53 54 54 53 53 53 53 53 52 51 51 50 50 49 50 50 50 51 52 52 51 51
55 56 56 56 55 54 53 52 50 50 51 53 54 55 55 55 55 54 54 54 54 54 54 53 53 53 53 52 52 51 51 51 51 49 50 50 50 51 51 51 51 52 52
54 55 55 55 55 55 54 54 52 50 49 51 53 53 54 54 54 55 55 54 54 54 53 53 53 53 52 52 52 52 52 52 52 51 50 50 50 51 51 51 52 53 53
54 55 55 55 55 55 55 55 55 53 51 50 50 51 52 53 54 54 54 53 53 53 53 53 53 53 52 52 52 52 52 51 51 51 51 50 50 51 52 52 51 51 52
54 54 54 55 55 55 55 55 55 55 54 53 52 50 51 51 51 52 53 53 53 52 52 52 52 52 51 51 51 50 51 50 50 50 50 50 50 50 50 51 51 51 51
55 54 54 54 54 54 54 54 55 54 54 54 54 54 53 52 51 50 51 52 52 52 51 51 51 50 49 48 48 49 49 50 50 50 49 49 49 49 50 51 50 50 48
48 48 48 53 55 54 54 54 54 54 54 54 53 53 53 54 53 52 50 51 52 52 52 52 51 51 50 50 49 47 47 47 47 49 49 49 49 50 51 51 51 51 50
41 41 42 44 46 48 50 55 54 54 53 54 54 55 54 53 50 51 51 51 52 52 53 52 52 52 51 51 50 50 48 48 45 44 46 47 44 41 45 45 44 34 32
35 35 36 39 39 42 43 44 46 47 52 54 55 55 52 42 35 37 42 49 52 52 53 53 47 49 51 49 50 49 47 35 33 33 32 33 33 33 35 36 35 34 31
31 31 32 33 33 34 36 37 40 43 41 39 34 32 33 32 33 34 37 41 48 50 40 34 33 34 34 37 42 48 40 28 28 28 28 28 28 29 29 29 31 29 27
29 29 29 29 30 31 32 33 35 36 34 32 30 29 29 31 31 33 35 38 37 33 31 29 30 32 32 32 33 31 29 28 27 26 25 25 26 26 26 26 26 26 23
28 27 28 28 28 29 29 30 30 31 31 30 29 28 28 28 30 31 31 32 32 30 28 29 30 30 30 29 29 29 29 28 26 24 23 23 23 23 24 25 25 25 25
27 26 26 27 27 27 28 28 28 28 28 27 27 26 26 26 27 28 28 27 28 27 27 28 27 27 26 26 26 26 26 25 23 21 20 20 21 23 24 23 24 24 23
26 25 25 25 25 26 27 27 27 27 26 26 26 25 25 26 26 27 27 27 26 25 25 24 24 23 23 22 22 22 22 22 21 20 19 20 20 19 19 20 19 20 18
26 25 24 24 24 23 25 26 25 27 28 26 26 27 25 25 27 27 26 25 24 24 22 20 19 18 18 18 18 18 18 18 17 18 17 17 17 16 15 15 14 14 12
24 24 24 24 23 22 21 21 24 24 24 25 25 24 26 26 25 25 24 23 21 19 18 17 17 16 16 15 15 15 16 16 16 15 14 13 13 13 11 10 10 10 9
23 22 22 22 22 21 20 19 17 18 20 21 21 22 23 23 23 22 22 20 19 17 15 15 15 15 15 15 14 14 13 13 12 11 11 12 11 10 10 7 7 7 6
20 20 19 18 18 17 17 16 16 15 14 14 17 19 19 19 19 19 17 14 13 13 13 12 12 12 12 12 12 11 10 10 9 8 7 8 9 8 7 7 6 6 7
19 18 17 16 16 16 15 15 14 13 13 12 12 13 14 15 14 14 13 12 11 10 10 9 10 10 10 9 9 8 7 6 4 3 3 4 4 5 5 5 4 4 4
17 18 17 16 15 14 14 13 12 11 10 10 10 10 10 8 7 8 8 8 8 8 7 7 6 6 6 7 5 5 4 3 2 2 1 1 2 3 2 3 3 3 4
16 15 16 16 15 15 14 12 11 10 9 8 7 9 8 6 5 5 6 6 6 5 5 5 4 4 5 4 2 1 -1 -1 -2 -2 -1 -0 -2 0 1 0 -0 1 3
15 15 14 13 13 12 11 10 9 8 8 7 6 5 5 5 5 3 3 3 3 3 4 2 1 2 2 1 0 -2 -3 -5 -5 -6 -5 -4 -3 -3 -3 -2 -2 -1 1
12 11 11 11 11 9 9 9 8 7 6 5 5 4 2 1 0 1 0 0 1 -0 -0 -2 -2 -1 -1 -2 -3 -4 -5 -6 -6 -8 -7 -6 -4 -4 -4 -3 -2 -1 -1
8 8 8 7 6 6 5 5 5 5 5 4 3 2 -0 -3 -3 -2 -3 -1 -0 -0 -1 -1 -1 -1 -1 -3 -4 -3 -4 -6 -6 -6 -7 -6 -6 -5 -5 -3 -3 -3 -3
6 5 5 4 3 3 2 1 1 1 2 1 2 1 -0 -2 -3 -4 -5 -4 -4 -4 -2 -2 -1 -1 -2 -3 -4 -4 -3 -4 -7 -8 -8 -7 -7 -7 -6 -5 -5 -4 -3
4 4 2 1 2 1 0 -0 -1 -1 -0 -1 -2 -3 -3 -4 -5 -7 -6 -5 -4 -4 -3 -2 -2 -3 -2 -1 1 -1 -3 -5 -6 -7 -8 -6 -7 -7 -8 -7 -5 -4 -3

GFSGL_sfc_30mbdewp_084.txt.gz
Dewpoint
55 55 55 55 55 54 54 53 53 53 54 55 55 56 55 55 55 55 54 54 53 53 54 54 54 54 54 54 54 53 52 52 49 49 49 50 51 51 50 52 52 51 51
56 56 56 55 55 54 54 53 52 52 53 54 55 55 55 55 55 55 55 55 54 54 54 53 53 53 54 54 53 53 52 52 51 48 48 48 50 51 51 51 51 51 51
55 56 55 55 55 54 54 52 51 51 51 53 54 54 55 55 55 54 54 54 54 54 54 54 53 53 53 53 53 52 52 52 51 50 49 49 50 52 51 51 51 51 52
54 55 54 54 55 55 55 54 52 51 50 51 52 53 53 54 55 55 55 54 54 54 54 54 53 53 53 52 52 52 52 51 51 51 51 51 51 51 51 50 50 51 51
54 54 54 54 55 54 54 54 55 53 52 50 50 51 52 53 53 54 54 54 54 54 53 53 54 54 53 53 52 52 52 51 51 51 50 50 50 50 49 50 50 50 51
54 54 54 54 54 54 54 54 54 54 54 53 52 51 50 51 51 50 53 53 53 53 52 52 53 51 51 50 50 51 51 50 50 50 49 48 48 49 49 49 49 49 48
45 45 46 50 53 54 54 54 54 54 54 54 54 54 53 53 50 49 49 51 51 52 52 52 52 52 51 51 49 47 47 47 48 50 49 49 49 50 50 49 49 49 49
38 38 40 41 43 44 46 47 50 52 54 54 54 54 54 39 36 38 42 48 51 52 52 52 52 52 52 51 51 50 49 47 39 42 43 41 36 34 38 42 42 37 33
33 33 35 36 37 38 38 39 42 45 43 38 37 38 38 34 34 35 37 43 48 51 50 36 36 39 37 38 43 47 45 30 31 31 31 30 30 30 32 36 35 37 33
30 30 31 32 33 34 35 36 37 37 34 33 31 31 31 31 32 33 35 40 42 38 32 32 32 33 33 35 39 41 34 29 28 28 27 27 28 28 28 27 29 29 27
29 29 29 30 30 31 31 32 33 32 31 29 28 28 28 30 30 31 33 33 33 31 30 29 30 31 31 31 32 33 30 29 28 26 25 25 25 24 25 25 25 25 22
27 27 27 28 28 29 29 29 30 30 29 28 27 27 27 28 29 29 29 29 29 27 26 27 27 27 26 26 27 27 26 26 24 22 21 21 21 21 23 23 23 23 23
26 26 26 26 27 27 28 28 27 27 27 27 26 26 26 27 27 27 27 26 25 25 25 24 23 23 22 23 22 22 22 22 20 18 18 18 19 21 22 23 23 22 20
25 24 24 24 25 25 25 26 27 27 26 25 25 25 25 25 25 25 25 24 23 22 21 20 20 19 18 19 19 19 20 19 19 18 18 18 19 18 17 19 18 18 14
24 24 23 22 22 22 24 24 24 26 25 24 24 24 23 23 25 25 23 21 20 20 18 18 17 16 16 16 16 16 16 16 15 16 16 16 15 13 11 12 13 12 11
22 23 23 22 22 20 19 20 23 24 24 25 24 24 25 24 23 23 22 21 19 17 16 15 14 14 14 14 14 13 13 13 13 13 13 12 11 10 8 8 9 8 7
21 21 20 19 19 18 17 16 14 16 19 20 21 21 23 21 21 20 20 18 17 14 13 13 13 13 13 13 12 12 11 10 9 9 9 10 9 8 7 6 7 7 6
17 16 16 16 15 14 14 14 13 12 11 12 14 17 18 18 18 17 15 12 11 11 11 10 10 11 10 10 9 8 7 6 5 5 5 6 7 7 6 5 4 5 4
17 15 15 14 14 13 13 12 11 10 9 9 9 9 10 12 12 12 10 8 7 7 7 7 7 8 7 7 6 5 4 3 2 2 2 3 4 4 4 4 4 4 3
15 16 15 14 13 12 11 10 9 8 7 6 6 6 6 5 4 5 5 4 4 5 5 5 4 4 4 4 2 2 1 1 0 1 1 -0 1 3 2 1 2 2 3
14 13 14 13 12 12 10 9 8 7 6 5 4 5 4 3 3 3 3 2 2 2 2 2 2 1 2 0 0 -2 -4 -4 -4 -3 -3 -2 -2 -1 -1 -1 -0 1 2
12 13 12 11 10 8 8 7 6 5 5 3 3 2 1 1 1 1 -0 -1 -1 0 -0 -1 -0 0 -0 -1 -3 -5 -6 -7 -7 -7 -6 -5 -4 -4 -3 -2 -1 -1 -0
9 9 9 8 8 6 5 5 4 3 2 1 1 -0 -1 -2 -2 -2 -2 -2 -1 -2 -2 -2 -1 -1 -3 -5 -5 -5 -5 -5 -5 -7 -6 -6 -5 -5 -5 -3 -2 -2 -2
6 6 6 5 4 3 2 2 3 3 2 0 -1 -3 -3 -4 -5 -4 -4 -3 -3 -3 -3 -3 -2 -1 -2 -4 -5 -3 -3 -5 -6 -6 -8 -7 -6 -6 -5 -4 -4 -4 -3
3 3 2 2 1 0 -0 -0 -1 -1 -1 -1 -2 -2 -3 -3 -5 -7 -7 -6 -4 -4 -4 -3 -3 -2 -2 -2 -3 -3 -4 -5 -7 -8 -8 -8 -8 -9 -7 -6 -6 -4 -4
2 1 1 1 -0 -2 -2 -2 -2 -2 -2 -3 -5 -5 -6 -6 -7 -8 -7 -5 -5 -5 -4 -4 -5 -5 -4 -2 -1 -2 -4 -5 -7 -8 -9 -7 -8 -8 -9 -8 -6 -5 -4

GFSGL_sfc_30mbdewp_087.txt.gz
Dewpoint
54 54 55 54 54 54 54 55 56 56 57 57 57 57 56 55 53 52 51 54 55 54 54 54 54 55 54 54 55 54 54 53 51 51 51 51 52 52 52 52 52 52 51
54 55 55 56 55 54 54 54 55 55 56 56 57 56 56 56 56 55 52 51 54 54 54 54 53 54 54 54 54 54 53 53 52 51 51 52 52 52 53 52 51 50 51
54 55 55 55 55 55 55 54 54 54 54 55 55 56 56 56 56 56 55 54 54 54 54 54 54 54 54 54 54 53 53 53 53 53 52 51 51 51 51 52 52 53 52
55 55 55 55 55 55 55 54 53 53 53 54 54 55 55 55 55 55 55 55 55 55 55 55 55 54 54 54 54 53 53 53 53 52 51 51 51 51 52 52 52 53 53
54 54 53 54 55 55 55 55 54 53 52 53 53 54 54 55 55 55 55 55 54 54 54 55 55 55 54 54 54 54 54 53 52 52 51 51 51 51 51 52 51 51 52
54 54 55 55 55 55 55 55 55 55 53 52 52 52 53 53 52 53 54 54 54 54 54 54 55 54 53 51 51 52 53 53 52 51 50 50 50 50 50 50 50 50 49
43 43 46 50 50 51 54 54 55 55 55 54 53 52 52 48 39 44 48 53 53 53 53 53 53 53 53 53 51 49 49 48 47 50 51 51 51 50 49 50 50 50 49
37 37 39 41 42 42 43 45 47 47 44 46 43 47 39 34 34 35 38 47 49 51 47 43 44 45 39 40 45 48 46 33 35 36 35 33 32 33 36 38 38 37 34
32 33 34 36 37 37 38 39 41 39 36 34 34 35 34 32 33 35 39 44 45 37 34 33 33 34 33 35 39 41 33 30 32 32 31 30 29 29 29 35 35 36 35
30 30 32 32 33 34 35 35 34 33 32 30 30 30 31 30 32 34 37 41 36 31 30 30 31 31 32 33 37 39 32 30 30 27 27 26 26 26 26 26 28 30 28
29 30 30 30 31 31 31 32 32 31 29 28 28 28 29 29 30 30 32 32 30 28 27 27 28 28 29 29 29 29 28 27 25 24 24 23 24 24 24 24 25 25 23
28 28 28 28 29 30 29 29 29 29 28 28 27 27 27 28 28 28 27 28 27 26 26 26 26 26 25 25 25 24 24 24 23 21 21 21 22 22 23 23 22 22 21
26 25 25 26 26 27 28 28 28 28 27 27 26 26 26 27 26 26 25 25 25 24 24 23 23 23 23 23 22 22 23 23 22 22 21 21 21 21 22 22 21 17 15
24 23 24 24 24 24 25 26 26 26 26 25 25 25 25 26 26 26 25 24 23 23 21 21 20 20 20 21 21 21 21 21 21 20 19 19 18 17 16 16 15 17 12
23 23 22 22 22 23 23 24 24 25 24 23 23 23 23 23 24 24 24 23 22 20 21 21 20 20 19 18 18 17 18 18 18 18 17 15 12 10 8 10 10 10 9
22 22 22 21 20 19 19 20 22 23 23 24 24 23 24 24 23 22 21 19 18 19 19 18 18 17 16 16 15 13 12 11 11 11 11 10 8 7 6 7 8 7 6
20 20 19 19 19 18 17 17 15 17 18 19 20 20 21 21 20 19 18 17 16 17 16 15 15 15 14 12 10 9 9 8 8 7 8 8 8 7 7 5 6 6 4
17 17 18 17 17 17 16 16 16 15 15 14 14 16 17 17 17 15 14 14 13 12 12 12 12 11 9 8 7 6 6 6 6 6 6 7 7 6 6 4 4 5 3
17 16 16 16 15 15 15 14 13 12 11 11 11 10 9 11 11 11 11 11 9 8 8 8 8 8 7 6 7 6 6 5 5 5 5 5 6 5 4 3 3 3 2
16 15 15 15 14 14 13 11 10 9 8 7 6 7 8 8 8 7 7 7 6 6 5 5 5 5 6 5 6 5 4 3 2 2 3 4 5 4 3 3 2 2 1
16 14 13 13 12 12 11 10 8 7 6 5 5 5 4 4 4 4 3 4 3 3 4 3 4 4 4 3 2 2 1 1 -1 -1 -0 1 2 2 2 2 2 1 0
14 13 12 11 10 10 8 7 6 5 4 4 4 2 3 4 3 2 2 3 3 2 2 2 2 1 1 1 1 1 -1 -1 -1 -2 -2 -2 -1 -1 -0 0 1 1 1
11 11 10 9 8 7 7 6 6 5 4 4 3 2 2 2 2 2 2 3 2 2 2 2 2 1 1 1 0 -0 -1 -2 -2 -3 -3 -3 -2 -2 -1 -1 -0 0 0
9 9 7 7 7 6 7 6 5 4 4 4 3 2 1 1 1 1 1 1 1 2 2 2 1 0 -0 0 0 -0 -1 -2 -3 -3 -4 -4 -4 -3 -2 -2 -1 -1 -0
7 7 6 6 6 5 5 4 4 4 4 3 3 2 1 1 -1 -1 -1 -1 -1 -1 -0 -0 0 -0 -1 -1 -0 -1 -2 -3 -4 -5 -4 -4 -4 -4 -4 -3 -2 -2 -1
4 4 4 4 4 3 3 3 2 2 2 1 1 1 0 -1 -2 -2 -3 -2 -3 -3 -2 -2 -2 -2 -2 -1 -2 -1 -2 -4 -5 -6 -5 -4 -4 -4 -4 -3 -3 -2 -2

GFSGL_sfc_30mbdewp_090.txt.gz
Dewpoint
54 54 54 54 55 56 56 57 57 57 56 55 54 53 51 51 51 50 50 52 54 53 53 53 51 52 54 54 55 54 52 52 49 50 51 51 53 54 52 53 53 53 52
54 54 54 54 54 54 54 56 57 57 57 57 56 55 55 54 53 51 49 49 53 53 50 53 52 54 54 55 55 54 54 54 53 51 51 51 52 52 53 53 52 51 52
54 53 54 54 54 55 55 55 56 57 57 57 57 56 56 55 54 53 52 49 49 50 53 54 53 54 54 54 54 53 52 53 54 53 52 51 51 52 52 53 53 54 54
54 53 54 54 55 55 55 55 55 55 55 56 56 56 56 57 56 55 53 52 52 50 52 54 54 54 54 53 54 54 54 54 54 53 52 52 52 52 52 52 51 52 52
54 53 53 55 55 55 55 55 55 54 54 55 55 55 56 56 56 56 56 56 55 54 54 52 53 55 54 55 55 55 55 54 54 53 52 52 52 52 51 52 51 52 52
52 52 53 53 53 54 54 54 55 54 54 54 54 55 55 54 43 48 55 55 55 55 55 55 55 54 54 53 52 52 53 53 53 53 53 52 52 52 52 51 51 50 50
44 44 46 48 49 50 54 54 54 54 54 53 53 53 45 39 36 39 44 53 55 55 54 54 54 54 53 54 53 51 50 42 42 47 49 49 45 40 39 42 43 41 40
37 38 40 41 42 43 44 45 43 43 42 41 40 38 36 34 35 37 40 47 51 39 37 37 40 40 36 39 43 41 35 33 34 34 33 30 30 31 33 36 38 38 34
33 34 35 37 38 38 38 38 38 35 34 34 34 34 33 32 34 36 42 43 36 33 32 32 33 33 33 35 40 36 31 29 30 30 29 29 29 29 31 36 33 34 34
31 32 33 34 34 34 34 34 33 32 31 30 30 30 30 30 32 34 38 35 31 29 29 29 30 30 31 33 38 34 30 29 28 28 27 27 28 26 26 28 31 30 29
31 31 31 31 32 32 32 31 31 30 29 29 28 28 28 29 29 30 31 30 29 27 27 27 28 29 28 29 29 29 27 28 26 26 25 26 26 26 26 27 28 29 28
30 29 29 30 31 31 30 30 30 30 29 28 28 28 28 27 27 28 28 29 29 28 27 27 27 26 26 26 26 25 26 27 27 26 26 26 26 26 25 24 23 23 22
28 27 27 28 28 28 29 30 30 29 29 28 28 28 28 29 27 25 25 26 26 27 26 25 25 25 25 25 24 26 28 29 28 25 24 24 23 24 24 24 23 20 16
26 25 25 25 25 25 25 26 27 27 27 27 26 26 26 27 28 28 28 27 26 26 25 25 24 24 24 24 25 25 24 23 23 23 22 22 20 18 16 15 14 15 14
25 24 24 24 22 22 23 24 24 25 26 25 25 25 25 24 24 24 25 26 26 25 26 26 24 24 23 22 21 20 20 20 19 19 18 16 13 11 8 10 10 11 10
23 23 24 23 22 21 20 19 21 22 22 23 24 24 23 23 22 21 21 21 21 24 23 22 21 21 20 19 18 16 14 12 12 12 13 11 10 9 8 9 9 8 6
22 21 21 21 21 21 21 21 19 19 17 19 19 20 20 19 19 19 18 18 20 22 20 19 19 18 16 13 11 10 10 10 10 10 10 11 11 10 9 7 8 8 7
20 21 21 21 21 21 21 20 20 19 18 17 15 16 16 16 17 16 17 18 17 16 16 16 14 13 10 8 8 8 9 9 9 8 9 9 10 9 9 7 6 7 5
20 20 20 19 19 20 19 19 18 17 17 16 16 14 13 13 13 14 15 15 13 11 9 9 10 9 8 8 10 9 8 8 8 8 8 7 9 8 6 5 6 5 4
19 18 19 19 19 18 17 16 16 15 14 12 10 10 11 12 12 11 11 11 10 8 7 6 7 8 8 8 8 8 7 6 5 5 6 7 7 7 6 5 5 4 3
18 17 16 17 16 15 15 13 12 10 9 7 6 7 6 7 7 7 7 7 7 6 7 6 7 7 6 6 5 5 4 5 3 3 4 4 5 5 4 4 4 3 2
15 14 14 13 13 12 10 10 9 8 7 7 6 5 5 7 6 5 6 6 6 5 5 6 5 4 4 4 4 5 3 3 3 3 3 2 2 3 3 3 3 3 3
12 13 11 10 10 10 10 9 9 8 8 7 6 6 5 6 5 5 5 5 5 5 4 4 4 3 3 3 3 3 2 1 1 1 0 1 1 2 2 3 2 1 2
10 11 8 9 9 9 9 9 7 6 6 7 7 6 5 5 5 3 3 3 3 4 3 3 2 1 1 2 3 2 1 1 0 0 -1 -0 -0 -0 0 0 0 1 1
9 9 8 8 8 8 7 7 6 6 6 6 5 5 3 3 2 3 2 2 0 1 1 1 1 0 0 -1 -0 -0 -0 -2 -2 -3 -1 -1 -0 -1 -1 -1 -0 -0 0
6 6 6 6 6 6 5 5 4 4 3 3 3 3 3 2 1 1 0 -1 -1 -1 -1 -0 -1 -2 -1 -1 -1 -1 -2 -3 -3 -4 -4 -2 -1 -1 -1 -1 -1 -1 -1

GFSGL_sfc_30mbdewp_093.txt.gz
Dewpoint
54 54 55 54 55 57 57 57 56 56 56 55 56 56 56 56 57 57 56 55 55 55 55 55 55 54 53 53 54 53 52 52 49 49 50 52 53 55 53 54 54 54 54
53 54 54 54 55 55 56 57 57 55 55 55 55 54 54 53 53 52 52 52 52 52 53 53 53 53 51 52 55 54 53 54 53 51 51 52 51 52 53 55 55 53 52
53 54 54 54 54 54 55 57 57 56 55 55 54 54 52 52 52 52 51 51 51 51 50 51 49 51 52 53 54 53 54 54 53 52 50 52 52 53 53 53 53 54 54
53 53 53 54 55 55 55 56 57 57 57 57 56 56 55 54 53 53 52 51 51 51 51 50 49 52 51 52 54 54 53 52 52 51 51 52 53 54 53 52 52 53 54
54 53 53 54 54 55 55 55 55 56 57 57 57 56 56 56 55 54 53 53 52 50 49 50 51 54 54 54 53 53 53 53 53 53 53 53 53 53 53 53 53 53 53
53 53 53 53 54 54 55 55 55 55 55 55 55 56 56 43 39 46 54 54 54 54 53 53 52 50 50 50 52 52 52 53 54 54 54 53 53 53 52 50 49 50 50
45 45 47 49 50 50 53 52 52 54 54 51 50 44 40 38 37 40 46 53 55 51 50 49 53 45 46 48 51 43 36 36 38 44 47 44 41 34 35 40 43 42 41
38 39 41 43 43 43 44 42 41 40 40 40 39 38 37 34 36 40 44 47 40 37 36 37 38 38 35 38 43 36 32 31 32 32 32 31 31 32 33 35 36 36 34
34 35 36 37 37 37 36 36 35 34 33 32 33 33 33 33 35 41 43 39 34 32 31 32 32 32 33 36 39 33 31 29 31 30 30 30 29 29 31 37 33 34 34
32 33 33 34 33 33 33 32 32 31 30 30 29 30 30 31 33 35 34 32 30 29 29 30 31 31 32 37 35 31 28 28 28 29 29 29 29 29 28 30 32 32 32
32 33 33 33 32 32 32 31 31 30 30 29 28 28 28 30 31 32 31 30 30 28 27 27 29 30 30 31 30 29 27 28 28 28 29 30 30 28 28 28 29 28 29
31 31 31 32 32 32 32 32 31 31 30 30 29 29 28 27 28 29 30 30 29 28 27 27 28 27 28 28 29 28 29 31 31 29 28 26 26 26 27 26 26 24 21
28 28 29 30 29 29 29 30 31 30 30 29 29 28 29 30 28 26 26 27 27 27 27 27 26 26 27 26 26 27 29 29 28 27 25 24 25 24 25 25 24 22 17
29 27 26 25 25 27 26 25 25 28 27 28 27 27 26 26 28 29 30 29 28 28 27 27 26 26 25 25 26 26 26 25 25 24 23 22 21 18 16 16 16 14 16
27 28 27 25 22 21 22 23 23 24 26 25 24 25 24 23 24 25 27 27 28 28 28 27 26 25 24 24 22 21 20 19 19 20 18 17 14 13 10 11 12 13 12
26 26 26 25 25 23 20 19 21 22 22 22 23 23 23 23 22 22 22 24 25 25 24 23 23 23 21 19 19 17 15 14 14 14 14 13 13 12 11 11 11 11 9
24 23 23 24 24 24 25 23 18 19 19 20 20 20 20 19 19 20 20 20 22 22 21 21 20 19 16 14 13 12 12 12 12 12 12 13 13 12 12 10 10 10 10
22 22 23 23 23 23 23 22 22 21 19 18 16 16 17 17 18 19 21 20 18 17 17 16 15 13 11 10 10 11 11 12 11 11 11 11 12 11 10 9 8 8 6
21 22 22 21 22 22 21 20 20 19 18 18 18 17 16 15 15 16 17 16 14 12 10 10 11 11 10 10 12 12 10 10 10 10 10 9 11 10 8 7 8 8 7
19 20 21 20 20 19 19 18 17 16 14 12 11 12 13 13 12 12 13 12 11 10 9 8 9 10 10 10 10 9 9 8 7 7 8 8 8 8 7 7 7 6 4
18 17 17 16 16 16 15 13 13 12 10 8 8 9 9 10 9 9 9 9 9 9 10 8 9 8 8 8 8 8 7 7 6 6 6 5 6 6 5 5 5 4 4
14 13 13 13 12 13 11 12 11 10 9 9 9 8 9 10 8 8 8 9 9 8 7 8 7 6 5 6 6 7 5 5 5 4 4 4 4 5 4 4 4 4 3
12 13 11 11 11 11 12 10 11 11 10 10 9 8 8 8 8 8 7 8 7 7 6 6 6 5 5 6 5 4 3 3 3 3 2 3 2 3 3 4 3 2 3
11 11 9 10 10 10 11 11 10 7 8 9 9 8 7 7 7 6 6 5 5 6 5 5 4 2 1 3 4 4 4 1 1 1 0 2 2 2 1 1 1 2 1
10 10 9 9 10 10 9 8 8 8 8 8 8 7 6 5 5 5 5 4 2 3 3 3 2 1 2 0 1 1 -0 -1 -1 -2 -0 -1 1 0 1 1 1 0 0
7 7 7 8 8 8 8 7 7 6 6 6 6 6 5 4 4 4 3 1 1 1 0 2 1 -0 -1 1 2 -0 -2 -2 -2 -3 -3 -1 1 1 0 -1 -1 -1 -1

GFSGL_sfc_30mbdewp_096.txt.gz
Dewpoint
56 56 56 55 56 57 57 57 56 56 56 56 56 56 58 58 58 58 58 57 57 57 57 55 55 54 54 53 52 53 53 51 49 50 50 53 54 54 54 54 54 55 55
55 55 56 56 57 57 57 57 56 55 56 56 56 56 56 57 58 57 57 57 57 56 55 55 55 55 54 53 54 53 53 53 51 49 51 51 51 52 54 55 55 54 54
55 55 55 56 56 56 57 56 56 55 55 55 55 54 54 54 54 56 55 55 55 55 54 54 54 54 54 53 52 54 54 53 53 51 51 52 51 52 52 53 53 53 54
54 55 55 55 55 55 56 57 56 55 55 54 54 54 53 53 53 53 53 53 53 52 52 52 52 53 52 53 54 54 53 53 53 52 51 51 50 50 51 51 52 54 54
54 54 54 55 55 55 57 57 57 56 55 55 55 54 54 53 53 52 52 52 52 52 53 53 53 52 51 52 52 53 53 53 52 51 51 50 50 51 52 54 54 54 46
53 53 54 55 56 56 56 56 57 57 57 56 56 56 54 42 40 49 53 53 53 53 51 51 51 50 50 53 51 44 48 53 53 53 52 52 52 47 44 44 44 46 47
45 46 48 49 50 49 49 49 49 48 46 44 42 41 38 37 37 42 52 54 53 51 50 51 50 43 46 47 38 36 35 35 38 46 49 41 40 34 35 39 42 41 41
37 39 41 42 42 41 41 40 39 39 38 38 37 37 36 36 39 42 45 42 38 36 36 37 38 38 36 42 36 33 31 31 32 32 32 31 31 32 33 36 36 35 33
33 34 35 37 36 35 35 34 34 33 32 32 32 32 33 33 35 40 39 35 32 31 32 33 33 34 35 39 34 31 29 29 32 32 31 31 30 31 33 36 33 35 32
31 33 33 33 33 32 32 32 31 30 30 29 29 30 31 31 33 34 33 32 30 29 30 31 32 32 36 35 32 30 28 28 29 29 30 30 30 28 28 29 31 31 31
30 30 30 33 32 32 32 31 30 30 29 28 27 28 28 30 32 32 31 30 29 28 28 29 30 31 31 31 31 30 28 30 30 30 29 29 28 27 26 26 26 27 27
28 28 29 29 29 31 32 32 32 31 30 29 28 28 27 28 29 30 30 30 30 27 27 28 29 29 30 30 30 31 31 32 29 27 26 26 25 27 27 25 23 18 15
26 25 25 26 27 27 26 28 29 31 29 28 27 26 26 29 28 29 29 29 28 27 28 29 28 27 27 26 26 27 28 28 27 26 25 24 23 23 23 25 26 20 14
26 25 24 23 23 24 25 24 24 26 25 26 25 24 24 25 28 29 30 29 29 28 28 27 26 25 25 25 25 25 25 25 25 24 22 20 21 17 15 16 15 16 16
27 27 25 23 22 21 22 23 22 24 25 23 23 23 22 23 26 27 27 28 28 27 27 26 25 24 24 22 20 19 19 19 19 19 18 17 15 14 13 15 15 15 13
26 25 26 27 24 22 20 20 23 23 24 23 23 22 23 23 24 25 25 25 25 25 24 23 22 21 19 18 18 16 15 16 16 16 16 16 16 14 14 14 14 15 13
24 24 24 25 25 24 23 19 17 20 21 22 23 23 23 24 23 22 21 22 23 23 21 20 18 17 15 15 15 14 14 14 15 15 15 15 15 15 13 13 12 11 10
23 23 22 23 23 23 23 22 22 20 18 18 19 19 19 19 20 23 23 20 17 17 17 16 15 15 14 14 13 13 13 13 13 14 12 13 13 14 11 10 11 9 9
22 23 24 23 23 23 22 21 20 18 16 15 16 18 18 15 16 16 16 16 14 12 12 12 13 13 13 13 14 14 11 10 10 11 12 11 10 12 10 9 9 8 7
20 19 20 20 20 20 19 18 17 15 12 11 12 13 15 14 14 14 14 14 13 13 12 12 13 13 12 13 12 10 12 9 9 10 8 8 7 10 7 7 8 7 7
19 18 17 17 17 16 16 15 15 14 11 10 10 11 13 12 12 12 12 12 12 12 13 11 11 10 11 10 11 10 9 9 7 7 7 7 6 8 8 7 7 7 6
16 15 14 14 14 14 15 15 14 13 12 12 11 10 12 13 11 11 11 11 11 10 12 12 10 8 8 9 8 8 8 6 6 5 4 5 5 8 5 6 6 5 6
15 14 13 14 16 15 14 12 13 14 13 12 12 11 12 10 9 11 10 11 11 10 7 9 8 7 6 10 8 9 6 4 5 3 1 4 4 4 3 3 3 4 4
14 13 12 14 12 12 13 16 13 9 11 13 13 11 10 10 11 10 8 6 7 8 5 9 4 2 2 2 5 5 2 0 1 1 0 3 2 4 1 3 2 2 2
12 11 12 12 12 12 12 11 11 10 11 10 9 10 8 8 9 9 6 6 3 5 4 6 3 2 1 1 3 -1 -2 -1 -2 -2 -1 -1 1 2 4 3 1 1 3
9 9 10 10 10 10 10 10 11 10 10 8 9 8 7 7 9 6 4 4 1 1 3 3 4 0 -0 5 1 -2 -2 -1 -2 -3 -3 -1 2 2 -1 -1 -0 -0 1

GFSGL_sfc_30mbdewp_099.txt.gz
Dewpoint
58 57 57 57 58 58 57 56 56 56 56 56 56 57 58 58 59 58 58 58 58 57 57 57 56 56 54 54 53 54 52 50 46 49 50 54 55 55 55 56 57 56 56
57 57 56 57 58 57 57 56 56 56 56 56 56 56 57 58 58 58 58 58 57 57 57 57 56 56 55 53 51 51 53 52 50 47 50 51 51 54 54 54 54 54 54
56 56 56 56 57 57 57 56 56 56 56 56 56 55 55 57 58 58 58 57 57 57 57 56 56 55 54 53 53 53 53 53 52 50 48 51 51 52 52 52 53 54 54
56 56 56 56 56 57 56 56 56 56 55 55 55 54 54 54 56 57 56 57 56 56 56 56 56 55 54 54 54 53 53 52 52 52 50 50 50 51 51 50 50 53 53
55 55 56 55 56 56 56 56 56 55 55 55 54 54 54 53 52 54 54 55 54 54 54 55 54 54 54 54 54 54 53 53 53 52 51 50 50 50 50 52 52 53 42
43 51 55 55 56 56 57 57 56 55 55 55 54 54 48 43 43 50 54 53 53 53 53 53 54 53 53 50 47 47 51 53 52 51 50 50 50 49 45 47 48 48 47
35 39 44 47 47 47 47 46 45 43 42 42 41 41 39 39 39 44 51 53 52 52 52 52 52 45 48 41 38 38 37 37 41 49 51 45 44 38 38 41 43 43 41
33 33 36 39 39 39 39 38 37 36 36 35 35 36 36 36 40 42 43 40 37 35 36 38 41 40 40 39 37 34 32 32 32 33 33 31 31 32 35 37 37 33 31
29 31 32 33 33 33 32 33 33 32 31 31 32 32 33 33 36 36 36 34 32 32 32 34 35 37 37 36 33 31 29 30 32 32 31 31 31 32 35 35 34 34 31
29 29 31 32 32 31 31 30 30 30 29 29 29 30 32 32 34 34 33 32 30 30 30 31 33 34 34 33 31 30 28 28 29 29 29 29 28 28 28 30 32 32 30
27 29 29 30 31 32 32 31 30 29 28 28 28 28 29 31 32 32 31 30 29 28 29 29 31 32 32 32 30 29 29 30 30 29 28 28 28 25 22 22 25 26 22
25 24 25 27 27 29 29 30 30 29 27 27 27 27 28 29 30 31 30 30 29 28 28 29 30 31 31 31 31 31 31 30 28 27 26 25 24 25 23 19 14 15 15
24 23 23 24 25 25 25 27 26 27 26 25 24 25 26 28 29 30 29 29 29 28 29 29 29 29 28 28 28 29 29 28 26 24 22 20 18 18 18 22 22 16 14
25 23 22 22 22 23 23 24 24 24 24 24 23 23 25 27 28 29 30 29 29 28 28 27 26 23 21 20 20 21 22 22 22 20 15 15 18 16 15 17 15 18 14
26 26 23 22 21 21 22 23 23 25 24 23 23 24 24 25 28 30 29 28 27 27 26 25 23 21 18 17 17 17 18 18 18 18 18 16 15 16 15 17 16 16 11
24 25 25 25 22 21 20 20 24 25 26 26 26 25 26 28 29 28 27 26 26 24 21 19 18 18 17 16 15 15 16 16 17 16 16 16 16 15 16 14 13 11 11
22 23 23 23 23 24 22 20 17 21 24 24 25 25 26 27 27 26 26 25 23 20 18 17 16 16 15 15 15 14 14 16 15 14 14 13 15 13 13 13 11 9 9
24 24 23 23 23 22 21 20 19 18 17 17 21 20 22 23 22 22 20 19 17 18 17 17 17 17 16 15 14 12 12 13 13 12 11 10 11 11 10 10 9 7 8
20 21 22 22 21 21 20 17 15 13 13 13 14 16 16 16 16 16 16 15 14 14 14 14 14 15 13 13 14 12 10 10 10 9 8 7 8 8 7 8 7 7 8
18 18 17 18 18 17 17 16 13 11 11 11 12 14 15 13 13 13 13 14 13 14 13 12 12 12 13 13 11 11 9 8 8 8 7 7 7 8 7 7 7 6 7
16 16 15 14 15 17 16 16 14 11 9 10 12 14 13 12 12 11 11 10 11 12 12 10 9 10 10 10 10 8 6 6 5 4 4 5 6 5 6 7 6 6 7
15 15 15 17 16 13 14 16 13 13 13 11 12 11 11 12 11 11 10 9 8 9 11 10 9 9 9 9 7 6 3 3 2 -1 1 3 4 3 2 2 2 4 3
14 14 13 13 14 15 9 9 11 14 12 11 10 10 8 7 8 7 6 9 8 7 5 3 3 2 4 6 4 2 0 0 1 -2 -1 -0 1 3 0 2 3 2 1
11 13 13 12 12 12 11 13 12 11 12 12 11 10 9 9 7 4 1 2 6 1 4 3 2 -0 -0 2 0 0 -1 -3 -2 -3 -3 -3 -2 0 2 4 0 -1 0
8 9 10 12 9 10 11 12 8 8 8 7 7 6 7 10 7 5 2 1 1 1 5 1 2 0 -0 1 -2 -3 -3 -3 -2 -4 -5 -4 -2 1 -0 -2 -1 -1 -1
9 8 8 8 8 6 8 6 9 4 4 7 9 8 8 8 6 5 2 -1 -3 -1 6 3 -0 -1 3 1 -2 -3 -2 -2 -5 -5 -5 -3 -2 -1 -3 -3 -1 -3 -3

GFSGL_sfc_30mbdewp_102.txt.gz
Dewpoint
59 59 59 59 59 59 58 58 58 57 57 57 58 58 59 59 59 59 59 59 58 58 58 57 56 57 56 56 55 53 51 50 48 49 52 54 54 54 54 55 55 54 54
53 57 58 58 58 57 57 56 56 56 56 56 56 56 56 57 58 58 58 58 58 57 57 57 57 57 55 55 55 53 52 51 49 48 51 52 53 55 55 55 56 56 56
46 57 57 58 57 57 56 56 55 55 55 56 56 55 55 56 57 58 58 58 58 58 57 57 56 56 56 55 54 54 54 52 50 50 50 51 52 54 54 54 54 54 50
44 56 56 57 57 57 56 55 55 55 55 55 55 55 55 54 55 57 57 57 57 57 57 57 57 56 55 55 54 54 53 53 52 50 49 50 51 52 52 50 51 53 49
39 43 49 57 57 57 56 55 55 56 55 55 55 54 54 51 48 51 57 57 57 57 57 57 57 56 56 56 55 54 54 53 51 50 49 50 50 50 49 50 50 50 42
35 36 39 45 55 56 56 56 55 52 53 53 53 51 48 45 42 48 53 55 56 55 55 55 54 54 53 53 50 49 53 53 52 51 51 50 49 50 49 49 50 49 45
32 33 34 37 41 43 44 43 42 41 41 40 40 40 40 39 41 45 50 51 48 49 52 53 50 49 49 43 39 39 38 39 43 52 50 49 48 45 44 44 45 44 39
30 31 32 33 34 35 36 35 35 35 34 34 34 35 35 36 37 41 44 40 38 38 39 44 47 45 44 42 38 35 33 32 33 34 36 33 34 34 38 39 39 33 31
28 29 30 32 31 31 31 31 31 31 31 31 32 32 32 33 34 35 37 35 34 33 34 37 38 39 38 37 35 32 30 30 32 32 32 32 32 34 36 36 34 34 30
25 27 29 30 31 31 30 30 30 29 29 29 29 30 31 31 33 33 33 32 31 31 31 32 34 34 34 34 33 32 30 29 29 29 28 27 28 29 30 32 34 34 29
25 25 25 26 28 30 30 30 29 29 28 28 28 29 29 30 31 32 31 30 30 29 29 30 31 32 32 32 31 30 29 29 29 28 28 27 25 23 22 24 27 29 25
24 23 24 24 25 26 27 28 28 27 26 27 27 27 28 29 30 30 30 30 30 28 28 29 30 31 31 31 30 30 30 29 28 26 25 25 26 24 21 20 20 18 17
23 22 22 23 24 25 24 24 24 25 26 26 26 26 27 28 29 29 28 28 28 26 26 26 26 26 25 26 27 27 28 27 26 23 22 21 21 22 23 21 18 17 16
24 23 22 21 22 23 24 24 23 23 23 24 24 25 26 27 28 29 29 28 28 26 25 24 24 23 23 22 23 23 23 23 21 19 18 19 19 18 18 19 18 17 13
24 25 22 21 21 21 23 24 23 25 26 24 24 26 25 25 28 29 28 27 26 26 25 23 21 20 19 19 19 19 19 19 18 19 18 18 18 16 15 16 15 14 11
23 23 23 24 22 21 20 20 24 25 25 26 27 27 27 28 28 27 27 26 24 22 20 18 18 17 17 16 16 16 16 16 16 16 16 16 16 15 13 13 12 13 11
22 22 22 22 22 21 20 19 18 19 21 23 24 25 26 26 26 25 24 24 23 21 18 17 16 16 16 16 15 15 15 15 15 14 14 14 15 15 14 12 11 12 11
20 21 21 22 20 18 17 16 15 15 15 15 18 20 21 21 22 22 21 19 17 17 17 16 15 16 16 15 14 13 13 13 12 11 10 10 11 12 11 10 9 9 10
18 17 18 18 18 18 14 13 13 13 13 14 15 15 15 16 16 16 15 15 14 14 14 14 14 13 14 12 11 11 10 10 9 8 8 8 8 9 9 8 8 8 8
15 15 15 16 16 16 13 10 10 11 12 13 13 13 12 11 11 11 11 12 12 12 11 11 11 11 12 11 11 9 7 7 6 6 6 6 6 7 6 6 7 7 7
14 16 16 15 16 15 15 11 10 10 11 12 12 13 11 11 10 9 9 9 9 10 9 9 9 9 9 8 7 4 3 3 2 3 4 4 3 3 4 4 5 6 5
14 13 15 16 11 11 14 14 13 12 10 9 9 9 9 9 9 9 7 6 7 9 8 6 6 7 7 6 4 2 1 -1 -2 -1 0 2 3 1 2 3 2 1 3
13 12 13 12 13 12 10 11 12 11 10 9 7 6 6 4 4 5 6 5 4 2 3 1 2 3 3 1 0 -0 -0 -1 -2 -2 -3 -2 -0 0 1 1 -1 -0 -0
9 10 11 10 10 11 9 8 8 9 10 10 9 8 6 3 1 1 3 2 2 2 1 -0 -1 2 0 -1 -1 -2 -2 -3 -4 -6 -6 -4 -2 0 -0 -1 -1 -2 -1
7 7 8 7 7 7 8 8 7 6 7 7 6 6 7 6 3 -0 -0 -0 0 2 2 1 -1 -0 -1 -4 -4 -4 -2 -3 -5 -6 -5 -4 -3 -2 -3 -2 -2 -3 -2
8 8 8 7 4 4 5 6 4 0 6 6 5 6 6 6 5 1 -1 -3 1 3 3 1 -1 1 -1 -3 -3 -2 -3 -5 -6 -6 -7 -5 -4 -3 -4 -4 -2 -3 -1

GFSGL_sfc_30mbdewp_105.txt.gz
Dewpoint
46 55 60 60 59 59 59 59 59 59 59 58 58 58 58 59 60 59 59 59 58 58 58 58 57 57 55 54 54 53 51 49 47 49 51 53 53 53 54 53 54 53 53
44 49 58 59 59 59 58 58 58 57 58 58 58 58 58 58 59 58 58 58 58 58 58 57 57 57 56 55 54 53 52 51 48 47 51 52 53 53 54 54 54 54 55
42 48 57 57 57 57 57 57 56 56 55 55 55 55 56 56 55 56 56 58 58 58 57 57 57 57 56 55 55 54 54 52 51 50 50 52 53 55 54 54 55 52 45
39 40 45 53 57 56 56 56 55 55 55 55 55 55 55 55 54 54 55 56 56 57 58 58 57 57 56 55 54 54 54 53 52 51 51 51 52 53 53 53 53 52 45
36 36 39 43 56 57 56 55 55 55 55 55 55 55 54 51 45 44 48 55 57 57 57 57 58 57 56 56 55 55 54 53 52 51 51 51 51 51 50 51 51 49 43
33 34 35 37 39 42 50 54 52 50 49 49 47 48 45 43 40 43 48 52 55 56 56 57 57 56 55 54 54 54 55 53 52 51 50 50 50 50 51 50 50 47 45
30 31 33 33 33 34 36 38 39 40 40 39 39 39 38 36 37 42 48 46 46 44 47 53 52 49 47 44 43 44 41 44 50 53 51 51 50 49 49 48 48 48 43
26 28 31 31 31 31 31 31 32 33 34 34 34 34 34 34 35 37 40 40 38 37 38 40 46 44 43 42 40 38 36 35 36 40 46 43 41 41 45 45 43 33 31
25 25 27 30 30 30 29 30 30 30 30 30 31 32 32 32 34 35 36 35 34 33 33 35 37 38 38 41 40 36 32 31 32 33 33 33 34 36 37 38 38 38 31
23 25 25 26 28 29 29 28 29 29 29 29 29 30 31 31 33 33 33 32 31 31 32 32 33 34 35 35 35 33 31 29 30 30 29 27 28 30 31 33 36 35 29
23 24 24 25 26 26 27 28 28 28 29 28 28 28 29 30 31 32 32 30 30 29 29 30 31 32 32 32 32 31 29 30 29 28 27 26 25 24 25 27 28 30 27
21 22 23 24 25 26 25 26 26 27 27 27 27 27 28 29 29 29 29 29 28 27 26 28 29 29 30 30 29 29 29 28 27 25 25 24 23 21 22 23 23 23 23
21 21 21 22 23 24 24 25 25 25 25 25 26 26 26 27 28 29 28 26 26 25 26 26 26 26 26 26 26 26 26 25 23 22 21 21 23 25 24 22 20 15 15
23 22 21 21 21 23 24 24 24 24 24 24 25 25 25 26 26 27 26 26 25 24 24 23 24 23 22 22 22 23 23 22 22 21 21 22 23 21 20 20 17 14 12
22 22 23 21 20 20 21 23 23 25 26 25 24 25 24 24 26 27 26 24 23 23 22 20 19 19 18 19 19 19 20 20 19 20 19 18 16 15 15 16 15 13 12
21 21 21 21 21 20 19 19 21 23 24 25 26 25 25 26 26 26 25 24 23 22 19 17 16 16 16 16 16 16 16 16 16 17 17 16 15 15 14 15 15 14 12
19 20 20 18 17 17 16 16 15 16 17 19 21 23 23 23 24 23 22 21 21 19 16 16 15 15 15 15 15 14 14 15 14 14 15 16 16 16 15 14 15 15 14
17 17 18 17 14 13 13 13 13 13 13 14 15 17 18 18 19 19 19 17 15 15 15 14 14 14 13 13 12 12 11 11 11 11 11 12 13 13 12 12 12 12 10
16 15 15 14 12 11 11 11 12 12 12 12 12 12 13 13 14 14 13 13 12 12 12 12 12 12 12 11 10 9 9 8 8 8 8 9 9 10 9 9 10 9 9
14 15 14 14 14 10 9 10 10 10 11 10 10 10 10 9 8 9 9 10 9 9 10 9 10 10 10 9 8 7 6 6 6 6 5 5 6 7 6 7 8 7 6
13 14 12 12 13 14 12 11 10 9 9 9 9 9 8 8 6 6 7 7 8 8 7 7 7 7 7 5 4 1 -0 1 2 3 3 2 2 3 4 4 4 5 6
12 12 13 12 10 11 12 12 10 9 8 7 7 6 5 5 6 5 4 4 5 5 5 5 5 5 4 3 1 -1 -2 -3 -2 -1 0 1 1 2 2 1 1 1 2
11 10 11 11 11 10 9 10 9 8 7 6 5 4 3 3 3 3 3 -0 0 -0 -0 2 2 1 -1 -2 -1 -1 -2 -3 -3 -5 -3 -2 -0 0 -1 -2 -2 -1 -0
8 8 8 9 9 9 7 7 7 8 8 8 6 4 2 0 0 2 1 0 0 -1 -3 -2 0 -1 -2 -4 -4 -3 -3 -5 -6 -7 -5 -3 -1 -2 -2 -2 -2 -2 -2
6 7 5 4 5 6 7 7 6 6 6 6 6 6 6 4 1 -0 -0 -2 1 2 1 -2 -1 -1 -3 -4 -4 -2 -1 -5 -7 -6 -6 -5 -4 -4 -4 -3 -4 -4 -3
6 7 7 5 3 4 5 4 3 -0 5 5 5 5 5 5 4 0 -2 -4 1 2 2 -2 -1 0 -3 -4 -4 -3 -5 -7 -7 -7 -7 -5 -4 -5 -5 -4 -3 -3 -2

GFSGL_sfc_30mbdewp_108.txt.gz
Dewpoint
44 48 58 60 60 60 60 60 60 59 59 60 60 59 59 60 60 60 60 60 59 59 58 58 57 58 57 56 55 54 53 52 49 51 52 53 54 54 54 54 55 54 54
43 47 58 59 59 59 58 58 58 58 58 58 58 58 58 58 59 59 59 59 58 58 57 57 57 58 57 57 55 54 53 53 50 48 51 52 52 54 54 53 54 54 53
39 42 46 50 58 58 57 57 57 57 57 58 58 57 57 57 57 57 56 56 57 58 57 57 57 57 57 56 55 54 53 53 52 50 50 52 53 54 53 53 54 48 45
36 38 39 41 49 56 56 56 56 56 56 56 55 55 55 55 55 53 52 52 54 56 56 57 58 57 57 57 55 54 53 53 52 51 51 51 52 54 54 53 50 47 43
34 34 35 37 39 44 51 55 55 55 55 55 55 55 53 49 43 44 47 49 51 53 55 56 56 57 57 57 56 55 54 53 53 52 51 51 51 52 52 53 51 47 43
31 32 33 34 34 35 36 38 39 40 41 43 44 45 43 41 37 40 43 50 49 47 50 56 57 56 56 55 55 55 55 53 52 52 51 51 51 52 52 52 49 46 45
27 29 31 32 32 32 32 32 33 33 34 34 35 37 36 35 35 39 42 44 43 41 41 44 50 52 55 51 47 48 47 50 53 52 52 52 51 51 51 51 50 49 47
25 27 28 30 31 31 30 30 30 30 30 31 31 32 33 33 34 36 38 38 37 35 36 38 41 40 40 44 41 37 34 35 39 44 49 46 46 49 51 50 49 38 33
23 25 26 27 27 29 29 29 29 28 28 29 29 30 30 31 33 34 35 34 33 32 32 33 35 37 38 38 36 34 32 31 32 32 33 33 34 35 39 44 41 40 33
22 24 25 26 26 26 27 28 30 29 29 28 28 28 29 28 31 32 32 32 31 31 31 31 32 33 35 37 35 34 33 31 31 31 30 29 29 30 31 34 38 40 31
22 23 24 25 26 27 27 27 28 28 28 28 28 28 28 29 28 29 29 29 29 28 28 28 30 31 31 32 32 32 31 30 29 28 26 25 25 25 26 27 28 31 29
21 21 21 23 24 24 25 26 27 27 26 27 27 27 27 27 28 27 27 27 26 25 25 27 28 28 28 28 28 28 28 29 27 25 24 23 22 22 23 23 24 24 25
22 21 20 20 21 23 23 23 24 24 24 25 24 24 25 26 27 26 26 25 24 23 25 24 24 24 24 24 25 25 25 24 23 22 21 22 23 23 22 19 15 13 14
21 21 21 20 20 21 21 22 22 23 22 22 22 22 23 24 25 25 24 24 23 22 22 22 22 22 21 21 21 22 22 22 22 21 20 22 23 22 22 21 17 13 11
19 19 18 18 17 18 20 21 21 23 23 21 22 22 21 21 24 25 24 23 22 22 21 20 19 18 18 18 18 18 19 20 19 20 20 19 19 19 19 20 19 17 15
17 17 15 14 15 15 15 15 18 19 20 20 21 21 22 24 24 23 23 22 22 21 18 16 15 15 15 15 15 15 16 16 17 18 18 18 17 17 17 17 17 15 14
16 15 13 11 13 13 13 12 11 12 13 15 16 18 19 19 20 21 21 19 19 17 15 14 13 13 13 13 13 13 12 14 15 15 15 16 16 16 16 16 16 15 14
15 14 12 10 11 10 11 11 11 10 9 9 11 13 15 16 16 16 15 13 12 13 13 12 12 12 11 11 11 10 10 11 11 12 12 13 14 13 12 12 13 12 10
14 14 13 9 8 8 9 9 9 9 8 8 7 8 9 11 11 12 11 10 10 10 10 10 11 10 9 8 8 8 8 8 8 8 8 9 10 10 10 10 9 9 8
12 11 11 12 11 9 9 8 7 7 7 7 6 6 7 5 5 6 6 7 7 7 8 8 8 7 7 6 5 6 5 5 5 5 5 6 7 8 8 8 8 7 5
11 11 11 11 11 12 11 9 8 6 6 5 5 4 5 4 3 4 4 4 4 4 5 6 5 5 4 2 1 0 0 1 2 2 3 3 2 3 4 5 6 5 4
10 11 11 11 10 9 10 9 7 6 6 5 4 4 3 3 3 2 1 -0 0 2 3 3 2 2 1 0 -1 -3 -3 -2 -2 -1 -0 1 2 2 2 1 1 1 3
8 8 9 9 9 8 7 7 8 7 6 5 3 2 2 1 1 1 0 -2 -2 -2 -1 -0 -1 -2 -3 -3 -3 -3 -4 -4 -4 -4 -2 -0 0 -1 -2 -1 -0 -0 -1
7 6 6 5 5 6 6 6 6 7 7 6 4 4 2 -0 -0 0 -0 -2 -1 -2 -4 -2 -2 -3 -4 -5 -4 -3 -5 -6 -6 -6 -5 -2 -2 -1 -2 -2 -2 -2 -2
6 6 6 4 3 3 3 4 4 3 3 4 5 5 5 3 1 -1 -2 -2 -1 -0 -1 -3 -1 -3 -4 -4 -3 -3 -4 -7 -7 -7 -5 -4 -4 -4 -3 -4 -4 -3 -3
7 6 6 5 3 -0 1 4 4 3 2 3 3 2 1 3 4 1 -1 -5 -0 1 0 -2 -1 -1 -4 -4 -3 -4 -7 -7 -7 -8 -7 -5 -4 -5 -4 -3 -3 -3 -3

GFSGL_sfc_30mbdewp_111.txt.gz
Dewpoint
41 44 51 61 61 61 61 62 62 61 61 61 61 62 61 61 61 61 61 60 60 60 60 60 59 59 59 58 58 57 55 55 53 53 53 55 55 55 55 56 56 55 54
40 42 45 50 60 60 60 60 60 60 61 60 61 60 60 60 60 60 59 59 59 59 59 58 58 59 58 58 57 56 55 55 54 52 53 54 54 56 56 56 55 55 54
37 39 41 43 48 58 58 58 58 58 58 59 59 59 58 58 58 58 58 58 58 58 58 58 58 57 57 57 57 56 55 55 54 53 51 53 53 54 54 55 55 55 52
34 36 37 38 40 45 54 55 56 57 57 57 57 56 56 54 52 52 53 53 54 54 55 56 56 56 57 57 57 57 56 55 54 53 52 52 52 53 54 53 50 49 46
31 32 34 36 35 38 39 42 43 43 43 44 48 46 45 40 38 40 46 49 51 52 53 54 54 55 55 56 56 56 56 54 54 53 52 51 52 52 52 53 51 46 44
29 30 32 34 34 33 34 35 36 36 36 36 36 36 35 35 35 36 39 46 50 49 48 48 49 51 53 53 54 55 56 54 53 52 52 51 51 52 53 53 49 44 43
26 28 30 30 32 32 32 32 31 32 32 32 32 33 32 32 34 35 37 42 41 39 39 40 42 44 42 46 48 46 48 51 53 54 52 52 52 52 53 52 49 49 47
24 26 27 28 29 31 31 30 31 30 30 29 29 30 29 30 32 34 36 36 34 34 34 35 37 38 38 41 39 37 35 34 38 46 53 49 50 53 53 52 51 40 35
22 24 26 27 27 28 28 29 30 29 28 28 28 28 27 28 30 31 33 32 32 31 31 32 33 34 35 37 35 33 32 31 33 33 33 33 34 36 43 48 43 43 35
22 23 24 26 26 27 28 29 30 29 28 28 27 27 27 27 28 29 28 29 28 28 29 29 30 31 33 34 35 34 33 32 33 32 31 31 32 31 32 34 43 46 35
22 22 22 24 25 26 27 28 29 29 28 28 27 27 27 28 28 27 26 26 25 24 24 25 27 28 29 30 30 30 30 31 31 31 30 29 26 26 26 27 29 33 33
21 21 22 23 24 24 25 25 25 26 26 26 25 26 27 28 27 27 26 25 24 22 22 23 24 25 25 26 27 27 27 27 27 25 24 22 22 22 22 23 24 25 25
19 19 20 21 22 23 23 23 23 23 23 23 23 23 24 26 27 26 26 25 24 23 24 24 23 22 21 22 23 23 24 24 23 21 21 21 22 23 23 23 23 23 23
16 16 18 19 19 20 21 21 21 21 21 21 21 21 22 23 24 25 25 24 24 23 23 22 23 22 21 21 21 21 22 22 21 21 20 22 23 22 21 22 20 21 19
15 14 15 16 17 16 18 20 20 21 21 20 21 20 21 21 22 23 23 23 23 21 21 20 19 19 18 19 18 18 19 20 20 20 20 20 20 20 20 20 20 19 17
13 11 12 13 13 13 13 12 14 14 16 17 18 19 20 20 20 20 20 20 19 18 18 17 17 16 16 16 15 16 17 18 19 20 20 19 19 19 18 19 18 17 15
12 11 10 10 10 10 10 10 9 10 10 11 13 15 15 16 17 17 17 16 16 16 15 15 14 14 14 13 14 14 14 15 17 17 18 18 18 19 18 17 17 15 14
15 13 12 11 11 11 10 10 9 8 8 8 9 10 13 13 14 14 13 12 12 12 12 12 12 12 11 11 12 12 12 13 13 14 15 16 17 17 16 16 15 14 11
12 14 14 13 12 11 11 10 9 8 7 7 6 6 7 9 10 10 11 10 10 10 9 9 9 9 8 8 10 10 10 10 11 11 11 12 13 12 11 11 11 11 8
13 12 13 13 13 12 11 9 8 7 7 6 5 5 5 5 6 7 8 8 8 8 8 7 6 6 6 6 8 8 8 8 8 8 9 10 11 10 9 9 8 6 4
12 12 12 11 11 11 11 10 8 7 7 6 6 5 5 4 4 4 4 5 6 6 7 6 7 6 5 4 3 5 5 6 6 6 7 7 8 7 7 7 6 5 3
8 9 9 9 9 10 9 9 9 8 7 6 6 6 4 4 3 3 3 4 4 3 4 5 4 3 2 2 2 3 2 4 4 5 5 5 5 6 5 5 5 4 3
7 7 6 5 6 6 6 7 7 7 7 7 7 6 6 5 4 4 4 4 3 3 3 3 3 1 1 1 1 -0 -1 -1 1 2 4 4 3 4 4 3 3 2 2
7 7 5 6 6 5 5 6 7 6 6 6 7 6 6 6 6 5 5 4 5 4 3 3 1 0 -0 1 1 -1 -2 -2 -1 1 2 3 2 2 2 1 1 2 1
9 8 8 8 8 6 6 5 6 6 6 6 6 6 6 6 5 6 5 4 3 4 4 2 2 1 -1 -1 -2 -3 -4 -4 -3 -2 1 1 1 1 0 -0 0 -0 0
9 9 8 8 8 7 7 7 6 6 6 6 7 7 7 6 6 6 6 5 3 4 3 4 3 2 0 -0 -1 -3 -4 -4 -5 -6 -1 -0 -0 -0 -0 -1 -1 -1 -1

GFSGL_sfc_30mbdewp_117.txt.gz
Dewpoint
32 35 37 42 45 48 55 58 59 58 58 60 62 62 62 62 63 62 62 62 61 61 62 62 62 62 61 61 60 60 59 58 56 57 56 56 56 58 58 59 59 58 57
32 34 39 40 43 46 52 57 58 58 58 59 60 61 62 62 62 62 61 61 61 59 61 61 61 61 61 61 61 60 59 59 58 56 56 56 56 57 58 58 58 58 58
32 33 36 37 39 39 42 45 48 57 57 55 58 56 58 60 61 61 61 60 60 61 61 60 60 60 60 59 59 58 58 58 57 56 55 56 57 57 57 57 57 57 58
31 31 33 34 35 36 37 38 40 42 42 42 41 40 40 40 44 50 59 59 59 59 59 59 59 58 56 53 55 56 56 57 57 57 56 55 55 56 56 55 55 56 56
29 30 31 32 33 33 33 33 35 35 36 37 38 38 38 38 38 42 51 53 54 54 50 49 47 46 44 44 46 48 49 51 53 55 54 54 55 54 54 55 54 55 52
29 29 30 31 30 31 31 30 31 31 32 32 33 33 35 35 37 39 45 44 43 41 41 41 42 43 41 43 42 42 41 43 46 50 53 53 53 54 54 54 54 48 46
28 29 29 29 29 30 30 29 29 29 29 30 30 30 30 31 33 34 35 35 34 32 33 35 36 36 36 37 41 43 39 35 35 37 41 46 49 53 54 53 53 51 50
26 27 29 29 29 30 29 29 29 29 28 28 28 28 28 29 31 32 32 32 31 29 29 30 31 32 32 34 39 39 36 34 34 34 33 32 32 33 38 51 53 52 43
25 26 27 28 28 28 29 29 30 30 29 28 28 28 27 28 29 29 29 29 28 27 28 29 28 29 30 32 36 36 33 31 33 32 31 30 31 31 33 42 51 44 38
25 25 26 26 27 27 28 29 30 30 30 30 28 29 28 28 29 28 27 26 25 25 26 26 28 28 28 29 29 30 29 29 29 29 27 28 27 27 28 31 35 45 38
23 24 24 25 25 25 26 26 27 27 27 28 28 27 27 28 29 29 28 28 26 25 24 24 26 27 27 27 27 27 26 28 26 25 25 25 25 25 26 27 28 31 39
22 22 23 22 24 23 22 23 24 23 24 24 25 25 25 26 25 26 27 27 28 26 26 27 27 27 26 26 26 26 25 25 24 23 22 22 22 23 24 26 26 26 29
21 21 21 23 20 21 21 19 19 21 20 21 21 22 23 23 23 23 24 25 26 27 28 27 26 26 26 26 26 25 26 24 23 21 21 21 22 24 24 24 25 26 25
19 20 21 20 22 20 18 18 16 16 17 18 19 17 19 20 21 22 22 24 25 26 28 28 26 26 26 26 25 26 27 26 26 24 23 23 24 23 22 24 23 24 21
18 19 19 17 19 19 18 16 15 15 14 15 16 18 16 16 17 18 19 19 23 25 25 24 23 23 23 23 23 23 23 24 24 25 25 24 24 23 23 23 23 23 21
13 14 15 15 15 15 15 16 16 15 14 12 11 13 15 13 14 15 15 16 16 19 20 20 20 20 20 20 21 21 21 21 22 23 22 22 22 22 22 23 23 21 20
13 14 14 14 14 14 14 14 14 15 15 13 11 11 11 11 12 13 14 14 13 15 16 16 16 16 15 15 17 18 19 20 21 21 21 21 22 21 21 21 21 20 18
14 14 15 15 15 15 15 14 14 13 13 13 12 10 10 11 11 11 12 12 11 11 10 10 11 11 10 10 13 13 14 16 18 20 20 21 21 20 19 19 19 18 17
13 13 15 15 14 14 14 13 12 12 11 11 11 10 8 10 10 10 10 11 10 9 8 8 9 9 9 9 13 13 14 13 13 15 17 18 18 18 18 18 17 15 16
14 12 12 13 12 11 11 11 10 10 9 9 9 11 7 9 10 9 9 9 8 7 7 7 8 9 10 9 9 11 10 11 11 12 13 14 16 13 12 11 10 9 6
12 11 9 9 9 9 8 8 8 8 7 7 7 10 8 7 7 7 7 7 7 6 7 7 8 7 6 6 6 10 8 9 10 11 9 11 11 11 11 10 9 7 5
10 9 8 7 8 8 8 7 8 8 7 7 7 7 8 8 7 6 6 9 9 8 6 6 9 5 6 6 6 6 6 5 6 7 11 8 8 9 8 8 9 8 5
10 10 9 7 9 7 9 8 8 8 7 7 8 8 8 11 9 8 8 8 6 7 7 6 5 3 4 7 8 5 3 4 5 4 7 11 5 10 9 8 6 8 7
11 11 9 9 10 9 10 9 10 8 9 9 10 10 9 8 8 9 11 10 7 6 9 5 5 6 1 2 3 2 -0 0 2 5 6 6 8 8 7 4 4 5 4
12 11 9 10 10 12 13 12 10 11 11 11 10 9 7 8 6 8 10 9 7 5 7 5 7 2 5 1 1 0 0 -0 -1 0 7 5 3 3 3 3 4 3 3
11 10 9 11 10 10 10 10 9 9 9 9 10 11 9 8 8 9 10 9 7 6 3 7 5 5 3 1 6 1 0 0 0 1 4 5 3 4 6 2 2 3 2

GFSGL_sfc_30mbdewp_120.txt.gz
Dewpoint
30 33 34 37 39 42 44 46 46 49 51 56 56 57 51 60 61 61 63 62 62 61 61 61 61 61 62 62 61 60 59 58 56 56 57 58 58 59 59 59 59 59 58
31 32 34 36 37 38 40 43 49 51 53 58 57 58 55 60 61 62 61 62 61 61 61 61 60 61 61 61 61 60 59 59 57 56 57 57 57 58 59 58 59 59 58
31 32 32 33 34 35 35 38 39 40 43 44 44 47 49 51 61 62 62 61 61 61 61 61 60 61 61 61 60 60 60 59 59 58 56 57 57 57 57 59 58 57 58
30 30 30 31 32 33 34 33 34 35 35 38 40 40 41 42 44 49 61 61 61 61 60 58 55 56 56 56 55 54 54 54 55 57 57 56 56 57 57 56 56 57 56
29 29 30 31 31 31 31 32 32 32 32 33 33 36 37 38 40 44 45 45 47 46 46 45 42 43 43 43 48 48 48 49 49 51 51 52 54 55 55 55 55 55 55
28 29 30 30 30 30 29 29 30 30 31 31 31 31 32 34 36 37 37 35 35 35 36 39 39 36 38 40 42 40 40 42 43 45 47 49 50 53 55 55 54 54 50
28 28 29 29 29 30 30 29 29 29 29 29 29 29 29 30 32 33 33 33 32 31 31 31 32 32 33 37 40 37 36 35 34 35 38 38 36 35 34 39 47 53 52
25 26 26 28 28 29 29 29 29 29 28 27 27 28 28 29 30 30 30 30 28 28 30 30 30 30 31 34 39 35 33 32 33 33 32 30 31 31 31 33 35 40 44
22 23 24 24 25 26 27 28 29 29 28 27 27 26 27 28 30 30 28 27 27 26 26 28 28 28 30 31 32 32 31 29 32 31 30 29 29 29 29 32 35 37 41
23 21 22 23 21 23 25 25 26 27 28 27 26 26 26 26 30 30 29 28 26 26 26 27 28 28 28 28 27 27 26 27 27 27 27 27 27 27 28 27 26 30 37
22 24 20 21 21 19 21 22 23 23 22 24 24 24 24 24 25 27 28 28 27 26 26 27 28 29 29 28 27 26 25 26 26 25 25 24 25 25 26 27 26 25 26
22 21 23 21 20 19 17 18 19 20 21 19 19 20 20 22 22 22 25 26 28 27 27 28 29 29 27 27 28 28 28 26 25 24 23 22 22 23 25 26 26 26 26
21 21 21 23 21 20 17 15 15 16 16 18 17 16 17 18 20 20 20 23 26 27 27 26 26 26 27 26 25 25 27 27 26 24 23 23 24 25 24 25 25 25 25
19 21 21 20 21 19 19 17 15 14 14 14 15 15 15 15 17 19 20 20 23 25 25 24 24 23 23 23 24 23 23 24 25 25 25 26 26 24 23 24 23 23 21
19 18 20 19 19 21 20 18 17 16 14 13 14 15 14 14 15 17 17 17 19 22 22 20 19 19 19 19 20 21 21 21 22 23 24 24 24 23 23 23 23 21 21
17 17 17 18 18 18 18 19 19 19 15 13 12 13 15 13 13 14 15 15 14 15 17 16 16 16 16 16 17 18 18 19 21 21 22 23 24 22 22 22 21 20 19
15 17 17 17 17 17 17 17 16 17 16 15 13 10 13 13 12 12 13 13 12 13 13 14 14 14 13 14 14 16 16 17 18 22 21 21 22 21 22 21 20 19 18
15 16 18 18 17 17 17 16 16 15 14 14 16 12 9 13 12 11 10 11 11 11 10 11 11 12 12 12 14 14 17 16 16 16 17 20 21 20 19 18 18 18 17
15 14 17 17 16 15 15 15 14 14 13 13 14 13 9 11 10 11 11 10 9 9 10 10 11 10 11 11 13 14 13 14 13 14 16 15 17 20 18 17 18 16 17
16 12 13 14 14 13 13 13 12 12 12 11 12 12 10 11 11 11 12 10 9 9 9 9 10 11 9 9 10 11 11 11 11 12 13 13 14 15 15 13 10 9 6
14 14 11 12 12 11 12 11 11 11 11 10 11 12 10 11 10 10 10 10 10 10 9 8 9 10 8 8 9 9 9 9 8 7 9 13 14 12 11 13 11 7 6
13 13 12 11 12 11 11 11 11 12 11 10 11 12 10 12 11 11 11 11 10 9 11 8 9 6 6 6 9 7 5 4 5 7 6 9 11 10 14 10 10 13 9
13 14 13 12 13 11 13 13 13 13 12 12 12 12 12 11 11 11 11 14 10 9 9 10 6 9 4 3 6 6 2 1 2 4 5 7 10 7 12 9 8 7 5
14 14 13 13 13 13 13 13 14 13 13 13 13 12 12 11 11 11 11 12 11 8 7 8 8 7 6 3 3 1 1 1 1 1 2 6 6 5 4 7 10 6 6
15 14 12 13 13 13 13 12 11 12 11 11 12 11 13 12 11 11 11 11 10 11 9 7 9 6 4 1 6 1 0 0 -0 -0 2 6 7 9 7 4 2 6 3
15 13 12 13 12 13 10 9 10 10 10 11 11 11 11 10 10 13 12 8 9 8 6 8 11 7 4 7 4 1 0 0 -0 -1 2 3 3 2 1 5 2 8 3

GFSGL_sfc_30mbdewp_123.txt.gz
Dewpoint
31 32 33 34 35 36 37 39 41 43 44 45 46 48 51 55 58 58 59 58 59 61 62 61 60 60 59 61 61 60 58 57 54 55 57 58 59 60 60 59 60 59 59
31 32 32 32 33 34 34 36 38 40 45 48 49 50 53 53 54 55 55 54 49 58 61 61 60 60 60 61 61 60 59 59 56 55 57 58 57 58 59 58 59 59 59
31 31 31 31 31 32 33 33 34 35 36 39 40 40 40 42 44 48 51 51 59 60 61 61 60 60 60 60 60 59 59 59 58 57 56 58 57 57 57 58 58 58 59
29 30 30 30 31 31 31 31 32 32 32 32 34 34 34 35 38 43 51 58 58 58 55 55 51 53 57 59 60 59 57 57 57 57 57 56 56 57 57 56 57 58 57
28 28 29 30 31 31 30 30 29 30 31 30 30 31 32 33 33 36 39 40 41 42 41 38 38 39 41 43 49 50 52 52 52 52 52 53 54 55 55 55 55 55 57
26 26 27 28 29 30 30 29 28 28 29 30 29 29 30 31 32 32 32 32 33 34 34 34 35 35 39 37 37 36 37 45 46 47 48 48 49 46 42 44 47 52 52
22 23 23 26 26 28 29 29 27 27 27 26 28 28 29 30 31 31 31 30 30 29 30 31 32 33 36 38 36 34 33 34 34 38 40 37 36 33 33 36 39 40 44
18 21 20 21 22 24 25 26 28 26 25 25 25 26 27 29 31 30 30 29 28 28 28 28 29 29 31 35 33 31 30 31 31 31 30 29 30 30 31 31 32 33 36
19 18 19 17 20 21 22 23 23 24 23 22 23 23 23 27 29 30 29 28 28 27 28 30 28 28 29 30 29 29 27 27 30 30 30 29 29 29 29 30 30 30 35
23 20 19 17 16 17 19 20 22 20 20 20 19 20 22 23 27 29 28 27 26 27 28 29 30 29 30 29 26 25 24 24 25 25 26 26 27 27 27 27 26 27 29
21 23 20 20 17 16 16 17 18 19 17 17 17 18 19 22 22 25 27 27 27 26 26 26 29 27 27 27 28 27 26 26 25 25 25 25 25 25 26 27 27 25 24
21 21 20 20 19 17 16 15 15 15 15 15 15 15 17 19 21 20 22 25 26 24 25 25 25 24 24 23 24 25 26 27 27 25 25 24 24 24 25 26 27 26 26
19 19 20 18 19 18 16 15 14 14 14 14 14 14 15 16 19 20 18 21 24 22 22 22 21 20 21 22 21 21 23 23 24 24 23 24 25 25 24 25 25 26 25
17 19 19 20 18 18 17 16 16 14 13 14 14 14 14 15 16 19 19 19 19 20 20 19 19 19 19 19 19 19 20 21 22 22 22 24 24 24 22 22 21 21 21
19 18 19 19 19 19 20 18 17 17 14 13 14 16 16 14 14 17 16 16 17 17 16 16 15 16 15 15 17 17 18 18 20 21 21 21 22 22 21 21 20 19 18
18 18 17 18 18 18 17 16 21 19 18 14 11 14 16 13 12 12 13 13 13 14 13 12 12 13 14 14 14 15 16 16 18 18 19 20 20 19 20 20 19 18 17
15 18 17 16 16 17 16 15 14 15 16 15 11 9 13 12 13 10 9 10 10 11 11 11 10 11 11 11 13 13 14 15 15 16 16 17 18 20 18 17 17 17 16
13 15 17 15 14 13 14 13 13 13 11 13 12 9 11 10 10 10 7 8 8 8 9 10 10 9 9 9 10 10 11 12 11 13 13 14 15 17 17 17 17 16 16
12 12 13 12 12 12 12 12 12 11 11 11 12 10 11 11 9 10 9 9 8 7 7 7 9 9 8 8 8 8 9 9 7 7 8 11 13 14 15 14 11 13 14
14 12 12 11 9 10 12 10 11 10 10 10 10 9 11 12 9 9 9 8 8 9 7 6 8 8 6 7 8 6 6 5 6 6 6 7 10 13 13 13 12 8 9
12 13 13 13 10 10 12 10 11 11 10 10 10 10 10 10 9 9 11 9 7 8 7 6 7 5 2 5 6 3 1 -1 0 2 4 5 7 10 12 11 13 10 8
14 13 14 13 14 12 13 14 13 13 12 11 11 11 11 9 9 9 10 11 7 8 9 5 6 4 1 4 5 0 -2 -2 -1 -0 0 2 4 7 9 10 7 5 6
15 13 13 13 13 13 12 12 12 11 12 11 11 13 12 12 11 9 9 11 9 7 6 9 6 6 1 1 2 -0 -3 -2 -0 -0 -1 1 3 6 7 7 7 5 4
14 12 12 13 12 12 11 9 9 10 10 10 11 10 10 11 10 9 11 11 10 8 6 6 6 7 3 1 1 -0 -1 -1 -1 -2 -0 1 3 6 4 5 6 6 3
13 11 11 11 11 10 8 9 8 8 8 9 10 9 10 9 8 8 9 10 11 9 8 4 7 8 5 3 2 -0 -1 -1 -2 -3 -1 2 0 2 2 3 4 7 2
11 11 10 10 9 9 7 6 7 7 7 7 6 5 7 7 7 5 3 4 7 8 8 7 10 9 4 5 2 0 -1 -1 -2 -2 -3 -0 -1 -2 -1 1 2 4 1

GFSGL_sfc_30mbdewp_126.txt.gz
Dewpoint
29 31 32 32 33 34 33 35 36 37 39 42 44 44 45 46 47 49 52 57 58 58 57 56 55 56 57 56 55 59 59 58 54 54 56 57 60 60 60 60 60 59 59
29 30 31 32 32 32 32 33 34 34 35 36 37 39 41 43 46 49 52 56 58 57 58 58 58 58 58 58 54 57 59 59 57 54 56 57 58 60 60 59 59 59 59
28 28 29 31 31 30 31 31 32 32 32 33 34 34 35 36 41 44 47 52 52 53 52 54 54 50 55 59 59 59 59 59 58 56 55 57 57 58 58 58 58 58 59
26 25 26 27 30 30 30 29 29 30 31 31 31 32 33 33 34 36 38 40 40 39 39 39 41 44 50 58 59 59 59 58 57 56 55 55 56 57 56 56 56 57 57
25 24 24 26 28 30 28 27 28 28 29 30 30 30 31 31 32 33 33 33 33 34 35 35 37 37 36 38 54 52 58 58 56 55 54 55 55 55 54 54 55 56 57
21 21 22 23 24 26 27 26 25 26 26 26 28 29 29 30 31 31 31 31 30 30 31 32 34 36 36 34 34 34 36 47 50 51 50 50 46 43 41 43 45 49 50
18 18 18 20 21 23 22 24 23 22 23 24 24 26 28 29 31 30 30 29 29 29 29 30 30 31 34 34 33 32 31 32 32 38 37 33 34 31 33 37 39 40 43
18 18 16 17 18 19 20 19 20 20 20 20 22 23 26 29 31 30 30 29 28 28 29 29 29 29 30 32 31 29 28 29 30 30 29 29 29 30 30 31 32 33 34
19 18 17 16 15 16 17 19 18 18 18 19 20 22 22 26 28 28 28 27 27 27 28 28 28 28 30 29 27 27 26 25 28 29 29 29 29 29 29 31 28 30 34
21 19 18 17 17 15 15 16 17 17 17 17 18 20 21 22 25 25 25 25 24 24 25 26 27 27 27 27 27 26 24 24 25 25 26 26 27 27 27 27 25 26 27
20 19 18 18 17 17 16 16 16 16 16 16 16 18 20 20 21 22 22 23 23 22 22 22 23 23 23 24 25 25 25 27 27 26 26 25 26 26 26 27 27 24 23
18 18 17 17 18 17 16 15 15 15 15 15 15 15 17 21 18 18 18 19 20 20 21 21 20 19 20 19 21 22 22 23 23 23 23 23 23 23 24 25 27 27 26
18 18 18 17 17 16 17 15 14 13 14 15 15 14 15 17 19 17 17 16 17 18 17 17 16 16 18 19 18 19 20 21 21 20 20 22 23 24 23 22 23 23 25
17 18 19 18 18 18 17 17 16 13 13 15 15 15 14 13 15 16 16 17 15 15 15 14 15 15 14 15 16 17 17 18 19 19 19 21 21 21 21 21 20 19 19
17 17 18 18 17 16 19 20 18 15 12 13 16 15 15 12 11 12 13 14 14 13 11 9 10 10 11 11 12 13 14 14 15 16 17 17 19 19 18 19 19 18 17
17 15 15 16 16 16 14 13 16 13 12 10 13 12 14 12 10 9 9 9 9 10 9 8 7 8 8 9 9 10 11 10 11 13 13 14 15 17 18 17 17 17 16
16 13 13 13 14 14 13 12 10 12 13 10 10 10 10 10 9 7 7 6 6 6 7 7 6 6 7 7 7 8 8 8 7 8 9 10 12 14 16 15 16 14 15
14 13 11 12 12 11 11 11 10 10 10 10 11 11 8 8 8 8 6 4 4 4 4 6 5 4 5 6 5 5 5 5 5 5 6 7 8 11 12 13 12 12 13
13 11 8 9 10 10 9 11 10 9 9 9 9 10 11 8 10 10 8 6 6 5 5 6 6 3 2 5 5 2 1 -1 1 1 3 5 5 8 10 12 11 9 10
12 13 9 9 10 11 10 10 11 10 10 9 9 9 9 8 7 8 6 4 6 6 5 6 6 1 1 4 3 -1 -2 -3 -3 -1 0 2 3 6 7 10 11 8 8
12 13 13 13 12 13 13 13 13 12 11 11 11 10 10 9 8 7 9 8 6 6 6 3 5 1 -0 2 3 -2 -5 -5 -3 -2 -2 0 2 3 7 8 7 7 7
13 13 13 13 13 11 11 11 10 10 11 10 10 11 11 10 11 10 9 9 8 6 7 5 5 4 1 1 2 -2 -5 -6 -4 -3 -3 -1 1 3 5 6 6 4 4
13 12 13 12 12 9 8 9 8 8 8 8 8 9 8 8 7 8 8 9 9 7 5 7 5 6 3 -0 1 -1 -3 -3 -1 -3 -4 -2 1 3 3 3 5 4 2
11 11 12 11 8 8 6 6 6 6 6 6 5 7 7 7 5 3 4 6 6 7 7 5 4 6 6 2 -0 -1 -1 -2 -2 -3 -4 -2 0 1 1 2 2 4 1
10 10 8 7 6 4 4 4 4 3 4 3 3 3 4 5 4 1 1 1 3 2 4 7 6 5 7 4 2 1 -2 -2 -3 -4 -4 -2 -1 -3 -2 1 1 4 0
9 7 7 5 3 4 3 2 2 2 1 1 -1 -1 0 2 3 -0 -0 0 -0 -0 2 3 4 4 5 4 3 1 -1 -1 -2 -2 -3 -2 -2 -6 -5 -0 0 1 1

GFSGL_sfc_30mbdewp_129.txt.gz
Dewpoint
27 27 28 29 31 32 32 32 33 34 34 35 36 38 43 45 46 47 47 47 49 53 57 58 57 56 56 56 55 55 57 58 56 56 55 57 59 60 60 60 60 59 59
26 26 27 28 31 29 30 30 32 32 33 33 34 34 35 37 41 45 48 50 52 54 56 56 56 56 54 54 55 56 55 56 57 55 57 56 57 59 60 59 59 60 59
25 25 25 25 28 28 27 28 28 29 30 31 31 32 32 33 35 39 42 45 42 42 43 45 45 52 55 55 56 56 56 56 56 56 55 56 56 57 59 58 58 58 58
23 23 22 23 25 27 26 26 26 27 27 29 29 30 31 31 33 34 35 36 36 37 38 38 37 37 40 43 50 57 55 55 55 56 56 56 56 56 57 57 55 57 57
20 19 21 22 24 23 24 23 23 24 25 26 28 29 29 30 30 31 32 32 32 33 34 35 37 36 35 36 39 37 43 54 56 57 56 55 55 55 55 55 55 55 55
19 17 18 18 19 21 20 21 21 21 22 24 25 27 28 29 31 30 29 29 29 29 30 31 32 33 34 33 33 33 32 41 38 39 55 54 50 45 44 48 50 52 51
18 17 17 16 16 17 18 18 18 19 20 22 23 26 26 28 30 30 29 27 26 26 27 27 28 30 32 32 31 30 31 31 31 31 28 28 30 29 33 38 40 42 44
18 17 17 16 15 15 16 17 17 18 19 20 21 22 24 25 27 28 28 26 25 26 26 26 26 27 29 30 28 27 27 28 30 30 28 29 29 29 30 31 31 33 35
17 17 17 17 16 15 15 16 17 17 17 19 20 21 20 21 23 24 24 23 23 23 24 26 26 26 28 28 26 26 25 26 29 29 29 29 29 30 29 29 29 32 34
18 18 18 17 17 16 15 16 17 17 16 17 18 20 19 19 19 19 21 21 21 20 21 23 24 24 24 25 23 23 23 24 25 25 25 26 26 26 27 26 25 25 27
17 17 17 17 17 16 15 16 16 16 16 16 15 17 18 17 18 17 18 19 19 18 17 18 21 21 21 21 22 22 22 23 23 24 23 23 24 24 24 25 26 24 22
17 17 16 16 17 16 16 14 15 15 16 15 14 13 15 17 15 16 15 14 16 16 16 16 16 16 17 17 18 18 19 20 20 20 20 20 21 21 22 23 24 25 27
17 17 16 16 17 16 16 14 13 15 14 15 14 13 12 14 15 14 14 13 12 12 12 12 12 12 12 13 14 14 14 16 16 16 17 18 20 20 20 21 21 21 23
16 17 17 16 15 17 17 15 13 13 15 12 14 12 11 11 12 13 13 13 12 10 9 8 9 9 8 9 10 11 10 11 13 13 14 15 17 19 18 19 18 18 18
15 15 15 16 14 13 15 14 13 13 13 13 12 14 11 10 10 9 9 9 10 9 6 5 5 5 5 5 6 7 7 6 7 10 10 11 12 15 16 17 15 16 16
14 14 14 14 13 13 11 11 12 11 10 11 10 11 11 9 8 7 7 6 6 5 3 2 2 3 4 4 3 4 3 4 4 6 7 7 9 11 13 14 14 14 14
13 12 13 13 12 12 11 10 8 10 11 10 9 8 8 8 7 6 5 4 4 4 2 2 1 1 3 3 2 1 -1 -1 2 2 4 5 5 7 10 11 11 10 11
10 11 11 10 9 10 9 9 8 8 8 8 11 10 8 8 8 8 5 3 2 4 3 3 1 1 1 1 0 -1 -3 -4 -3 -2 1 2 3 4 7 8 9 8 8
11 8 8 9 9 9 10 11 10 9 9 9 9 10 9 10 11 11 9 4 3 3 5 4 3 1 1 2 0 -4 -5 -4 -4 -4 -2 -1 0 2 5 7 7 7 7
11 10 10 11 12 12 11 11 10 10 9 9 10 10 9 9 8 6 6 4 5 5 3 4 4 1 -0 1 0 -4 -4 -5 -4 -4 -3 -2 -2 -0 2 5 6 5 6
12 12 12 12 11 10 10 9 9 9 9 9 9 8 9 9 8 7 7 6 6 6 6 5 4 3 1 -0 1 -1 -4 -6 -5 -4 -4 -3 -2 -1 2 4 5 5 4
13 13 13 12 8 7 9 8 7 7 7 6 7 7 7 5 4 4 5 5 6 6 6 5 5 5 4 2 1 -1 -2 -5 -4 -4 -5 -4 -2 0 1 2 2 3 3
12 11 11 9 9 7 6 6 5 4 4 2 3 4 5 3 0 1 0 0 2 2 4 5 3 3 4 3 -1 -0 0 -2 -2 -4 -5 -5 -3 -1 -1 -1 0 1 2
11 10 10 7 5 4 3 3 2 3 1 0 -0 0 0 2 -1 -2 -2 -1 -1 -1 1 3 5 4 3 3 2 -1 -0 -2 -3 -4 -5 -5 -3 -2 -5 -2 -0 0 2
8 6 5 4 3 2 1 1 -0 -1 -2 -3 -5 -4 -2 -0 1 -4 -4 -3 -3 -4 -3 -1 -1 -0 2 2 3 3 1 -0 -3 -3 -4 -3 -4 -5 -6 -4 -2 0 0
7 5 3 3 1 0 -1 -2 -3 -4 -5 -6 -7 -7 -6 -5 -3 -5 -6 -5 -6 -6 -6 -6 -4 -4 -3 0 0 3 2 -1 -2 -1 -3 -3 -4 -4 -5 -4 -3 -1 -0